[[[{"header":{"parameterUnit":"kt","parameterCategory":2,"dx":1,"dy":1,"la1":29.587661999999998,"la2":31.0,"lo1":-88.76705300000003,"lo2":-86.6583820000003,"nx":115,"ny":88,"refTime":"2022-10-13T12:00:00:Z","depth":0,"parameterNumber":1,"parameterNumberName":"U-component_of_WINDS"},"data":[11.5086,11.4879,11.4879,11.4879,11.4937,11.5144,11.581,11.7,11.8427,11.9707,12.0782,12.1973,12.2672,12.2672,12.2672,12.2672,12.2672,12.2672,12.2672,12.2672,12.2672,12.2672,12.2672,12.2672,12.2672,12.2672,12.2555,12.209,12.1771,11.9998,11.8807,11.8807,11.8807,11.8951,12.0056,12.1364,12.2148,12.2264,12.2264,12.2672,12.2672,12.2672,12.2672,12.2672,12.2672,12.2004,12.0987,11.9622,11.8369,11.709,11.6043,11.5403,11.5112,11.5112,11.5054,11.4879,11.4879,11.4879,11.4879,11.4879,11.591,11.5976,11.6837,11.8227,12.0225,12.17,12.351,12.4467,12.5513,12.735,12.7905,12.9044,12.9314,12.8771,12.8582,12.9376,12.9852,12.9852,12.9852,12.9852,13.0029,13.0465,13.0703,13.0946,13.097,13.2154,13.2306,13.1846,13.2437,13.2864,13.3397,13.3989,13.4753,13.5691,13.6585,13.6756,13.6688,13.6426,13.6207,13.601,13.5681,13.5133,13.5046,13.5683,13.5314,13.4485,13.4257,13.3995,13.3915,13.366,13.4234,13.4762,13.4851,13.529,13.6143,11.5895,11.4937,11.4879,11.4937,11.5054,11.6069,11.6709,11.7291,11.9385,12.058,12.0987,12.2148,12.2613,12.2672,12.2672,12.2672,12.2672,12.2672,12.2672,12.2672,12.2672,12.2672,12.2672,12.2672,12.2672,12.2672,12.2672,12.2381,12.1654,11.994,11.8633,11.8544,11.7962,11.7233,11.7989,11.9444,12.1131,12.1422,12.2148,12.2555,12.2672,12.2672,12.2672,12.2672,12.2672,12.2555,12.1713,12.0463,11.8982,11.7586,11.6159,11.5286,11.4879,11.4879,11.4879,11.4879,11.4879,11.4879,11.5011,11.5168,11.6393,11.749,11.8124,11.9709,12.2095,12.4249,12.6576,12.7842,12.8572,12.9376,12.9355,12.975,12.975,12.9586,12.9586,12.9811,12.9852,12.9852,12.9852,12.9852,13.0424,13.1278,13.1648,13.1977,13.3029,13.476,13.5089,13.441,13.4018,13.4397,13.4816,13.5538,13.6214,13.7088,13.7962,13.8027,13.7851,13.7611,13.7413,13.7808,13.772,13.6363,13.5881,13.667,13.6624,13.5793,13.5501,13.5649,13.5016,13.4476,13.5288,13.6187,13.6275,13.667,13.7589,11.6476,11.5868,11.5228,11.5286,11.5984,11.6535,11.7698,11.9036,12.0172,12.1103,12.1829,12.2381,12.2672,12.2672,12.2672,12.2672,12.2672,12.2672,12.2672,12.2672,12.2672,12.2672,12.2672,12.2672,12.2672,12.2672,12.2613,12.1771,12.0289,11.904,11.7819,11.6598,11.7058,11.7,11.7264,11.9269,12.0782,12.0782,12.2062,12.2555,12.2672,12.2672,12.2672,12.2672,12.2497,12.2062,12.1278,11.9998,11.8602,11.7264,11.5984,11.5054,11.4879,11.5063,11.5011,11.5142,11.5246,11.4906,11.5345,11.6161,11.7513,11.9332,12.0403,12.2469,12.4815,12.636,12.8786,12.9036,12.9746,12.9852,12.9852,12.9852,12.9852,12.9852,12.9852,12.9852,12.9852,12.9852,12.9852,12.9852,13.0161,13.0949,13.1496,13.1846,13.2372,13.395,13.3818,13.2832,13.4698,13.5775,13.6344,13.6935,13.7525,13.8312,13.8575,13.8575,13.8575,13.8575,13.8334,13.84,13.8181,13.7174,13.6736,13.748,13.7611,13.6931,13.6996,13.7324,13.6843,13.6098,13.6734,13.7502,13.7808,13.8006,13.8246,11.7434,11.6682,11.5778,11.5895,11.6799,11.7175,11.8629,12.0638,12.0987,12.1771,12.2527,12.2672,12.2672,12.2672,12.2672,12.2672,12.2672,12.2672,12.2672,12.2672,12.2672,12.2672,12.2672,12.2672,12.2672,12.2672,12.2439,12.1829,12.0521,11.9184,11.7702,11.5868,11.5635,11.6186,11.6333,11.8105,11.9676,12.0056,12.0956,12.1364,12.1829,12.2148,12.2497,12.2672,12.2555,12.2004,12.0812,11.9533,11.8195,11.6857,11.5577,11.4996,11.4984,11.5605,11.6065,11.6657,11.7278,11.7455,11.7884,11.8762,12.0147,12.1763,12.3377,12.5566,12.7383,12.8907,12.9705,12.9746,12.9852,12.9852,12.9852,12.9852,12.9852,12.9852,12.9852,12.9852,12.9852,12.9852,12.9852,12.9852,12.9852,13.0313,13.0904,13.1299,13.1583,13.2174,13.2832,13.3469,13.5597,13.6999,13.7568,13.7722,13.8487,13.8575,13.8575,13.8575,13.8575,13.8575,13.8575,13.8575,13.8575,13.8027,13.7655,13.8312,13.8575,13.8202,13.8005,13.8465,13.8465,13.8071,13.8246,13.8115,13.8356,13.8422,13.8509,11.9036,11.6884,11.6709,11.6767,11.7,11.8137,11.9447,12.0754,12.1973,12.2555,12.2613,12.2672,12.2672,12.2672,12.2672,12.2672,12.2672,12.2672,12.2672,12.2672,12.2672,12.2672,12.2672,12.2672,12.2672,12.2672,12.2555,12.2322,12.1538,11.9882,11.7993,11.6767,11.5752,11.5345,11.5577,11.7058,11.8164,11.8835,11.93,12.0056,12.0696,12.1045,12.1422,12.2381,12.2381,12.1887,12.0638,11.9474,11.811,11.6857,11.5752,11.4996,11.5664,11.6665,11.9229,12.0269,12.0619,12.0667,12.0835,12.1537,12.3013,12.4394,12.5991,12.7347,12.8328,12.9623,12.9811,12.9832,12.9852,12.9852,12.9852,12.9852,12.9852,12.9852,12.9852,12.9852,12.9852,12.9852,12.9852,12.9852,13.005,13.0839,13.132,13.1167,13.1517,13.5244,13.6296,13.5638,13.691,13.8027,13.8312,13.8334,13.8575,13.8575,13.8575,13.8575,13.8575,13.8575,13.8575,13.8575,13.8575,13.8575,13.8575,13.8575,13.8575,13.8575,13.8575,13.8531,13.8531,13.8575,13.8575,13.8575,13.8575,13.8575,13.8575,12.0056,11.8978,11.7497,11.7291,11.8137,11.9416,12.0696,12.1829,12.2439,12.2672,12.2672,12.2672,12.2672,12.2672,12.2672,12.2672,12.2672,12.2672,12.2672,12.2672,12.2672,12.2672,12.2672,12.2672,12.2672,12.2672,12.2672,12.2613,12.1887,12.0056,11.7528,11.5895,11.5286,11.4937,11.5228,11.6011,11.7058,11.738,11.7904,11.8951,11.9591,12.0056,12.1131,12.2031,12.1682,12.0782,11.9563,11.9242,11.7613,11.581,11.5403,11.4906,11.5351,11.7304,11.9828,12.2071,12.2734,12.2897,12.3174,12.3971,12.5054,12.6206,12.749,12.8662,12.9573,12.9852,12.9852,12.9852,12.9852,12.9852,12.9852,12.9852,12.9852,12.9852,12.9852,12.9852,12.9852,12.9852,12.9852,12.9852,13.0378,13.1188,13.1648,13.1385,13.2482,13.5638,13.6975,13.6777,13.7611,13.8465,13.8575,13.8575,13.8575,13.8575,13.8575,13.8575,13.8575,13.8575,13.8575,13.8575,13.8575,13.8575,13.8575,13.8575,13.8575,13.8575,13.8575,13.8575,13.8575,13.8575,13.8575,13.8575,13.8575,13.8575,13.8575,12.1073,12.0491,11.8311,11.7904,11.8866,12.0172,12.1422,12.2613,12.2672,12.2672,12.2672,12.2672,12.2672,12.2672,12.2672,12.2672,12.2672,12.2672,12.2672,12.2672,12.2672,12.2672,12.2672,12.2672,12.2672,12.2672,12.2613,12.2411,12.1654,11.9998,11.7412,11.5286,11.4996,11.4937,11.517,11.5752,11.6043,11.6275,11.6275,11.7439,11.8486,11.8544,11.9618,12.0724,12.084,11.9909,11.8951,11.8544,11.7439,11.5519,11.4996,11.5631,11.5832,11.8298,12.0759,12.3115,12.4244,12.4538,12.4875,12.6268,12.735,12.7862,12.8682,12.975,12.9852,12.9852,12.9852,12.9852,12.9852,12.9852,12.9852,12.9852,12.9852,12.9852,12.9852,12.9852,12.9852,12.9852,12.9852,12.9852,12.9852,13.0839,13.2569,13.2503,13.2963,13.5462,13.7062,13.7435,13.8027,13.84,13.8575,13.8575,13.8575,13.8575,13.8575,13.8575,13.8575,13.8575,13.8575,13.8575,13.8575,13.8575,13.8575,13.8575,13.8575,13.8575,13.8575,13.8575,13.8575,13.8575,13.8575,13.8575,13.8575,13.8575,13.8575,12.1857,12.058,11.93,11.8807,11.9067,12.0474,12.1533,12.2613,12.2672,12.2672,12.2672,12.2672,12.2672,12.2672,12.2672,12.2672,12.2672,12.2672,12.2672,12.2672,12.2672,12.2672,12.2672,12.2672,12.2672,12.2672,12.2381,12.1771,12.0754,11.9125,11.7322,11.5577,11.5054,11.4879,11.4879,11.5112,11.5228,11.5345,11.5429,11.6275,11.7291,11.7175,11.7962,11.9125,11.9707,11.8835,11.8195,11.7788,11.6915,11.5969,11.5136,11.6462,11.8365,12.0907,12.3398,12.5765,12.8075,12.8519,12.8729,12.8561,12.9231,12.902,12.9688,12.977,12.9852,12.9852,12.9852,12.9852,12.9852,12.9852,12.9852,12.9852,12.9852,12.9852,12.9852,12.9852,12.9852,12.9852,12.9852,12.9852,12.9852,13.1036,13.2877,13.3621,13.3731,13.6054,13.7632,13.7961,13.8202,13.8597,13.8575,13.8575,13.8575,13.8575,13.8575,13.8575,13.8575,13.8575,13.8575,13.8575,13.8575,13.8575,13.8575,13.8575,13.8575,13.8575,13.8575,13.8575,13.8575,13.8575,13.8575,13.8575,13.8575,13.8575,13.8575,12.3893,12.1885,12.058,12.0549,12.1466,12.2737,12.2922,12.2665,12.2672,12.2672,12.2672,12.2672,12.2672,12.2672,12.2672,12.2672,12.2672,12.2672,12.2672,12.2672,12.2672,12.2672,12.2672,12.2672,12.2672,12.2381,12.1887,12.1219,12.0521,11.8544,11.7031,11.5984,11.5345,11.4996,11.4879,11.4879,11.4879,11.4879,11.4996,11.5461,11.6127,11.636,11.6624,11.7962,11.8311,11.7873,11.7233,11.6915,11.6682,11.6022,11.631,11.7805,11.9477,12.2009,12.5135,12.6468,12.8351,12.9647,12.9852,12.9852,12.9852,12.9852,12.9832,12.9852,12.9852,12.9852,12.9852,12.9852,12.9852,12.9852,12.9852,12.9852,12.9852,12.9852,12.9852,12.9852,12.9852,12.9852,12.9852,12.9852,13.0115,13.1825,13.3403,13.3731,13.4455,13.6361,13.8137,13.8268,13.8465,13.8531,13.8575,13.8575,13.8575,13.8575,13.8575,13.8575,13.8575,13.8575,13.8575,13.8575,13.8575,13.8575,13.8575,13.8575,13.8575,13.8575,13.8575,13.8575,13.8575,13.8575,13.8575,13.8575,13.8575,13.8575,13.8575,12.6908,12.5229,12.3891,12.4129,12.5379,12.6273,12.559,12.4152,12.3858,12.3447,12.284,12.2672,12.2672,12.2672,12.2672,12.2672,12.2672,12.2672,12.2672,12.2672,12.2672,12.2672,12.2672,12.2672,12.2672,12.2322,12.1364,12.0638,12.0029,11.8078,11.6884,11.6127,11.5228,11.4937,11.4879,11.4879,11.4879,11.4879,11.4996,11.5228,11.5953,11.5487,11.5694,11.7121,11.709,11.6682,11.6186,11.6709,11.6217,11.5311,11.717,11.8833,12.0716,12.3422,12.6389,12.7854,12.854,12.9832,12.9852,12.9852,12.9852,12.9852,12.9852,12.9852,12.9852,12.9852,12.9852,12.9852,12.9852,12.9852,12.9852,12.9852,12.9852,12.9852,12.9852,12.9852,12.9852,12.9852,12.9852,12.9852,12.9852,13.1299,13.2482,13.268,13.4981,13.715,13.8202,13.8531,13.8531,13.8597,13.8575,13.8575,13.8575,13.8575,13.8575,13.8575,13.8575,13.8575,13.8575,13.8575,13.8575,13.8575,13.8575,13.8575,13.8575,13.8575,13.8575,13.8575,13.8575,13.8575,13.8575,13.8575,13.8575,13.8575,13.8575,13.0556,13.0419,12.904,12.9251,13.0369,13.0681,12.9119,12.6776,12.6306,12.4893,12.2812,12.2672,12.2672,12.2672,12.2672,12.2672,12.2672,12.2672,12.2672,12.2672,12.2672,12.2672,12.2672,12.2672,12.2672,12.2381,12.1131,11.9823,11.8924,11.7206,11.6101,11.5286,11.5054,11.4879,11.4879,11.4879,11.4879,11.4879,11.4879,11.4937,11.5138,11.5054,11.4937,11.5752,11.6043,11.5984,11.5635,11.6011,11.6259,11.6131,11.8068,12.0344,12.2424,12.5246,12.7462,12.9203,12.9643,12.9832,12.9852,12.9852,12.9852,12.9852,12.9852,12.9852,12.9852,12.9852,12.9852,12.9852,12.9852,12.9852,12.9852,12.9852,12.9852,12.9852,12.9852,12.9852,12.9852,12.9852,12.9852,12.9852,12.9852,13.005,13.1036,13.2548,13.5375,13.7019,13.8137,13.8575,13.8597,13.8575,13.8575,13.8575,13.8575,13.8575,13.8575,13.8575,13.8575,13.8575,13.8575,13.8575,13.8575,13.8575,13.8575,13.8575,13.8575,13.8575,13.8575,13.8663,13.8575,13.8575,13.8575,13.8641,13.8575,13.8575,13.8575,13.2277,13.0656,13.0195,13.133,13.3215,13.3374,13.1902,12.9385,12.7504,12.5051,12.2728,12.2672,12.2672,12.2672,12.2672,12.2672,12.2672,12.2672,12.2672,12.2672,12.2672,12.2672,12.2672,12.2672,12.2613,12.2148,12.0696,11.9331,11.8633,11.6508,11.5461,11.5054,11.4879,11.4879,11.4879,11.4879,11.4879,11.4879,11.4879,11.4879,11.4879,11.4879,11.4879,11.5054,11.5286,11.5228,11.5228,11.5307,11.6042,11.7641,11.9685,12.2354,12.4867,12.7176,12.89,12.9553,12.9832,12.9832,12.9852,12.9852,12.9852,12.9852,12.9852,12.9852,12.9852,12.9852,12.9852,12.9852,12.9852,12.9852,12.9852,12.9852,12.9852,12.9852,12.9852,12.9852,12.9852,12.9852,12.9852,12.9852,12.9852,12.9918,13.1036,13.2482,13.4673,13.566,13.7216,13.8575,13.8575,13.8575,13.8575,13.8575,13.8575,13.8575,13.8575,13.8575,13.8575,13.8575,13.8575,13.8575,13.8575,13.8575,13.8575,13.8794,13.8794,13.8641,13.8838,13.9276,13.9101,13.8663,13.8794,13.8926,13.886,13.886,13.8772,13.5147,13.3723,13.3723,13.4658,13.6084,13.6061,13.4548,13.2097,13.0331,12.8154,12.5832,12.4626,12.3641,12.2837,12.2672,12.2672,12.2672,12.2672,12.2672,12.2672,12.2672,12.2672,12.2672,12.2672,12.2613,12.2062,12.0114,11.8749,11.8458,11.6275,11.5228,11.4879,11.4879,11.4879,11.4879,11.4879,11.4879,11.4879,11.4879,11.4879,11.4879,11.4879,11.4879,11.4879,11.4879,11.4879,11.4879,11.4879,11.6393,11.8439,12.0918,12.3382,12.5789,12.8263,12.9537,12.9832,12.9852,12.9852,12.9852,12.9852,12.9852,12.9852,12.9852,12.9852,12.9852,12.9852,12.9852,12.9852,12.9852,12.9852,12.9852,12.9852,12.9852,12.9852,12.9852,12.9852,12.9852,12.9852,12.9852,12.9852,12.9852,12.9852,13.1102,13.2437,13.3424,13.441,13.6756,13.8575,13.8575,13.8575,13.8575,13.8575,13.8575,13.8575,13.8575,13.8575,13.8575,13.8575,13.8575,13.8575,13.8575,13.8641,13.9189,13.9123,13.9189,13.9386,13.9583,13.989,13.9737,13.932,13.9189,13.9452,13.9408,13.921,13.9956,13.8575,13.8575,13.8488,13.84,13.8444,13.8531,13.6965,13.4804,13.4111,13.23,13.0169,12.7902,12.5164,12.3696,12.3422,12.3172,12.2672,12.2672,12.2672,12.2672,12.2672,12.2672,12.2672,12.2672,12.2613,12.2178,12.0405,11.9156,11.8226,11.6392,11.5345,11.4879,11.4879,11.4879,11.4879,11.4879,11.4879,11.4879,11.4879,11.4879,11.4879,11.4879,11.4879,11.4879,11.5089,11.5037,11.4879,11.5917,11.7252,11.8539,12.1584,12.4294,12.6138,12.8519,12.9729,12.9852,12.9852,12.9852,12.9852,12.9852,12.9852,12.9852,12.9852,12.9852,12.9852,12.9852,12.9852,12.9852,12.9852,12.9852,12.9852,12.9852,12.9852,12.9852,12.9852,12.9852,12.9852,12.9852,12.9852,12.9852,12.9852,12.9852,13.0773,13.2088,13.3161,13.3621,13.5704,13.7786,13.7917,13.84,13.8465,13.8663,13.8663,13.8663,13.8663,13.8838,13.9035,13.9101,13.9298,13.9211,13.9254,13.9517,14.0197,14.0262,14.061,14.0415,14.0394,14.0919,14.1029,14.0131,14.0154,14.1117,14.1335,14.1592,14.228,13.8575,13.8575,13.8575,13.8575,13.8531,13.7435,13.7109,13.6861,13.3343,13.228,13.216,12.9685,12.7171,12.586,12.5564,12.4567,12.2896,12.2672,12.2672,12.2672,12.2672,12.2672,12.2672,12.2672,12.2672,12.2613,12.0754,11.9707,11.8602,11.7206,11.581,11.4937,11.4879,11.4879,11.4879,11.4879,11.4879,11.4879,11.4879,11.4879,11.4879,11.4879,11.4879,11.5423,11.6316,11.6769,11.5891,11.7859,11.8984,12.0171,12.2719,12.5255,12.653,12.8582,12.9729,12.9852,12.9852,12.9852,12.9852,12.9852,12.9852,12.9852,12.9852,12.9852,12.9852,12.9852,12.9852,12.9852,12.9852,12.9852,12.9852,12.9852,12.9852,12.9852,12.9852,12.9852,12.9852,12.9852,12.9852,12.9852,12.9852,12.9852,13.0444,13.1759,13.2635,13.3029,13.4518,13.6535,13.7413,13.8027,13.84,13.8926,13.8947,13.8925,13.8904,13.9057,13.9539,13.9759,14.0154,14.0438,14.1162,14.1491,14.1512,14.1769,14.2131,14.2181,14.2279,14.236,14.2529,14.2259,14.222,14.2919,14.3605,14.4419,14.5199,13.8005,13.8575,13.8575,13.8575,13.84,13.7062,13.6931,13.6759,13.3707,13.3328,13.4367,13.1683,13.0171,12.987,12.8669,12.6856,12.4812,12.4489,12.3889,12.2921,12.2672,12.2672,12.284,12.27,12.2672,12.2381,12.1364,12.0334,11.9009,11.7846,11.6624,11.5202,11.4879,11.4879,11.4879,11.4879,11.4879,11.4879,11.4879,11.4879,11.4879,11.4879,11.4879,11.4958,11.611,11.6641,11.6998,11.9709,12.0557,12.2904,12.4027,12.6551,12.7905,12.8896,12.9852,12.9852,12.9852,12.9852,12.9852,12.9852,12.9852,12.9852,12.9852,12.9852,12.9852,12.9852,12.9852,12.9852,12.9852,12.9852,12.9852,12.9852,12.9852,12.9852,12.9852,12.9852,12.9852,12.9852,12.9852,12.9852,12.9852,12.9852,13.0181,13.1365,13.2219,13.2877,13.43,13.5921,13.6821,13.7939,13.8816,13.9298,13.9364,13.9517,13.9561,13.9868,14.0614,14.1295,14.1622,14.1974,14.2829,14.3224,14.3113,14.3281,14.3333,14.3686,14.4314,14.4226,14.3981,14.413,14.4248,14.461,14.499,14.6184,14.9059,13.7172,13.8575,13.8575,13.8575,13.8334,13.6843,13.6273,13.6186,13.4283,13.4673,13.5689,13.3493,13.2948,13.3446,13.1865,12.9366,12.7686,12.6935,12.612,12.4866,12.4544,12.4517,12.3972,12.3585,12.4325,12.352,12.2392,12.0752,12.0029,11.916,11.7439,11.5635,11.517,11.4879,11.4879,11.4879,11.4879,11.4879,11.4879,11.4879,11.4879,11.4879,11.5136,11.5397,11.5884,11.6513,11.8165,12.0122,12.1546,12.4924,12.5897,12.7564,12.8958,12.9541,12.9832,12.9852,12.9852,12.9852,12.9852,12.9852,12.9852,12.9852,12.9852,12.9852,12.9852,12.9852,12.9852,12.9852,12.9852,12.9852,12.9852,12.9852,12.9852,12.9852,12.9852,12.9852,12.9852,12.9852,12.9852,12.9852,12.9852,12.9852,12.9852,13.0904,13.1891,13.2877,13.395,13.5242,13.6513,13.8376,13.9517,14.0131,14.0351,14.0878,14.1098,14.1557,14.2259,14.2983,14.3158,14.3355,14.4036,14.4605,14.456,14.4489,14.4188,14.4381,14.5208,14.5589,14.548,14.5853,14.6745,14.6898,14.6936,14.9764,15.3006,13.623,13.8575,13.8575,13.8575,13.8202,13.5835,13.5397,13.5528,13.2482,13.2437,13.4281,13.3071,13.3577,13.4772,13.3351,13.1284,12.993,12.9717,12.9298,12.8541,12.8489,12.8798,12.8926,12.8798,12.7634,12.5953,12.5241,12.4695,12.2526,12.0119,11.8084,11.6398,11.5191,11.4879,11.5089,11.5293,11.4906,11.4879,11.4879,11.4879,11.4879,11.5011,11.5703,11.7572,11.7814,11.809,11.9514,12.2088,12.4022,12.4898,12.6682,12.8391,12.7543,12.8771,12.9791,12.9852,12.9852,12.9852,12.9852,12.9852,12.9852,12.9852,12.9852,12.9852,12.9852,12.9852,12.9852,12.9852,12.9852,12.9852,12.9852,12.9852,12.9852,12.9852,12.9852,12.9852,12.9852,12.9852,12.9852,12.9852,12.9852,12.9852,12.9852,13.0641,13.0773,13.1693,13.3337,13.4629,13.5571,13.7718,14.0044,14.0789,14.1448,14.1933,14.2635,14.3026,14.3968,14.456,14.4625,14.478,14.5329,14.5789,14.6095,14.6158,14.575,14.5694,14.6282,14.6838,14.7085,14.7787,14.9046,15.033,15.1804,15.419,15.594,13.6646,13.8509,13.8575,13.8202,13.7238,13.5199,13.4344,13.3971,13.1977,13.2154,13.3555,13.3621,13.441,13.536,13.4141,13.265,13.1709,13.1413,13.1128,13.0681,13.0606,13.0606,13.0431,13.0456,12.9638,12.8888,12.8145,12.6761,12.3321,12.0251,11.8031,11.6629,11.4767,11.4994,11.619,11.6692,11.743,11.8574,11.8698,11.8698,11.8649,11.8673,11.9144,12.0171,12.0461,12.1071,12.2276,12.5344,12.5831,12.6486,12.8456,12.8833,12.8771,12.919,12.9832,12.9852,12.9852,12.9852,12.9852,12.9852,12.9852,12.9852,12.9852,12.9852,12.9852,12.9852,12.9852,12.9852,12.9852,12.9852,12.9852,12.9852,12.9852,12.9852,12.9852,12.9852,12.9852,12.9852,12.9852,12.9852,12.9852,12.9852,12.9852,12.9852,12.9852,13.097,13.2745,13.3687,13.441,13.7193,14.0263,14.0987,14.1735,14.2592,14.3819,14.4737,14.5786,14.5961,14.6069,14.6247,14.6599,14.6533,14.6862,14.719,14.7565,14.7465,14.8019,14.8714,14.8985,14.9407,15.1465,15.3676,15.5934,15.7539,15.8201,13.7106,13.8575,13.8575,13.7764,13.6339,13.4607,13.3226,13.2043,13.1385,13.2109,13.3358,13.3555,13.4016,13.4981,13.4302,13.3535,13.2724,13.2167,13.1896,13.1622,13.1043,13.1659,13.1914,13.1994,13.1428,13.1098,13.0104,12.8033,12.4324,12.0877,11.9789,11.7929,11.6229,11.6392,11.8619,11.9318,12.0171,12.1204,12.1575,12.1646,12.1906,12.2221,12.2897,12.292,12.233,12.3313,12.5255,12.6094,12.7307,12.9479,12.9811,12.9811,12.9688,12.9688,12.9852,12.9852,12.9852,12.9852,12.9852,12.9852,12.9852,12.9852,12.9852,12.9852,12.9852,12.9852,12.9852,12.9852,12.9852,12.9852,12.9852,12.9852,12.9852,12.9852,12.9852,12.9852,12.9852,12.9852,12.9852,12.9852,12.9852,12.9852,12.9852,12.9852,12.9852,13.0576,13.2614,13.395,13.4279,13.6492,13.9517,14.0856,14.1845,14.3249,14.4759,14.5895,14.6684,14.6638,14.6792,14.697,14.697,14.7102,14.7256,14.7434,14.7737,14.8629,14.9672,15.0601,15.1263,15.2341,15.4353,15.6576,15.7608,15.8526,15.9502,13.623,13.8575,13.8575,13.7742,13.612,13.3511,13.2043,13.1472,12.9433,12.9676,13.0378,13.0489,13.1911,13.2503,13.2503,13.3122,13.3224,13.2748,13.2361,13.2575,13.1796,13.2574,13.3874,13.342,13.2771,13.3404,13.133,12.994,12.7717,12.549,12.2587,12.2706,12.1403,12.101,12.1584,12.1954,12.2758,12.3606,12.3791,12.3613,12.3596,12.5102,12.5904,12.5637,12.4519,12.4574,12.6071,12.666,12.7393,12.9627,12.9852,12.9852,12.9852,12.9852,12.9852,12.9852,13.0029,12.9963,12.9898,12.9984,12.9984,12.9852,12.9852,12.9852,12.9852,12.9852,12.9852,12.9852,12.9852,12.9852,12.9852,12.9852,12.9852,12.9852,12.9852,12.9852,12.9852,12.9852,13.0004,13.0004,13.0222,13.0308,13.0156,13.0181,12.9984,13.0313,13.268,13.4257,13.4192,13.546,13.811,13.9843,14.1316,14.2846,14.4617,14.5838,14.6614,14.6769,14.7013,14.7102,14.7102,14.7194,14.7375,14.7639,14.8513,14.9691,15.0816,15.2219,15.3853,15.552,15.6842,15.7693,15.8609,15.9502,15.9662,13.5791,13.6296,13.6317,13.5002,13.2766,13.0682,12.9281,12.8623,12.8623,12.9281,12.9918,13.0707,13.132,13.1911,13.1254,13.1167,13.1628,13.1188,13.1254,13.1496,13.1365,13.2043,13.3424,13.2129,13.132,13.1703,13.0517,12.959,12.8298,12.5892,12.4466,12.4082,12.299,12.3695,12.5236,12.6413,12.7109,12.8071,12.8753,12.8753,12.8797,12.9937,13.0521,13.0089,12.8706,12.7498,12.7992,12.8075,12.875,12.9479,12.9852,12.9852,12.9852,12.9852,12.9852,13.005,13.0444,13.0707,13.0313,13.0444,13.0728,12.9984,12.9852,12.9852,12.9852,12.9852,12.9852,12.9852,12.9852,12.9852,12.9852,12.9852,12.9852,12.9852,12.9852,12.9852,12.9963,13.051,13.0966,13.0978,13.0835,13.0876,13.0962,13.1184,13.1098,13.1398,13.3571,13.5199,13.5068,13.5896,13.8128,13.923,14.0787,14.2446,14.428,14.5395,14.6039,14.6572,14.6881,14.7102,14.7102,14.7263,14.7537,14.8497,14.9443,15.0661,15.2677,15.4198,15.5855,15.7163,15.8138,15.8775,15.9334,15.9598,15.9725,13.4826,13.3818,13.3839,13.2306,12.9852,12.8315,12.6934,12.5862,12.7683,12.8209,12.9063,12.9984,13.053,13.0859,12.9478,12.9129,12.9458,12.8998,12.8714,12.8583,12.8451,12.9195,12.9326,12.8512,12.8163,12.9326,12.97,12.9331,12.8343,12.6824,12.5437,12.5438,12.5355,12.591,12.8699,12.9865,13.1972,13.3831,13.4065,13.3634,13.3569,13.3696,13.3804,13.3738,13.2756,13.1655,13.0621,13.005,12.9852,12.9655,12.9195,12.8603,12.8669,12.9063,12.9458,12.9918,13.1056,13.1648,13.1233,13.1846,13.1911,13.0707,13.0489,13.0226,12.9963,12.9852,12.9852,12.9852,12.9852,12.9852,12.9852,12.9852,12.9852,12.9852,12.9852,12.9852,13.005,13.1122,13.1503,13.1524,13.1569,13.1991,13.1949,13.1834,13.2233,13.286,13.4226,13.5921,13.6665,13.7254,13.8023,13.8355,13.9976,14.1556,14.3039,14.3876,14.485,14.576,14.6595,14.7102,14.7102,14.7283,14.8047,14.9119,15.0403,15.2733,15.5029,15.6473,15.7317,15.8532,15.963,15.9614,15.9495,15.9646,15.9757,13.2392,13.224,13.224,13.1299,12.9589,12.8315,12.6473,12.5401,12.479,12.5119,12.6059,12.6256,12.744,12.8052,12.7177,12.6802,12.7854,12.6782,12.5579,12.4902,12.4527,12.4593,12.5184,12.5467,12.6585,12.79,12.9281,12.9458,12.9315,12.9253,12.9093,12.8655,12.8765,13.004,13.0898,13.1695,13.2756,13.4192,13.4542,13.4607,13.4805,13.4805,13.487,13.4783,13.4279,13.3358,13.2109,13.053,12.9852,12.9832,12.7354,12.6651,12.6519,12.746,12.8426,12.9787,13.1167,13.2503,13.3424,13.349,13.3292,13.2067,13.1742,13.1282,13.0272,12.9898,12.9852,12.9852,12.9852,12.9852,12.9852,12.9852,12.9852,12.9918,13.005,12.9918,13.0115,13.1102,13.152,13.0391,13.1394,13.1866,13.2003,13.2094,13.259,13.4118,13.5458,13.647,13.6732,13.7674,13.8136,13.8225,13.9342,14.0856,14.1638,14.2341,14.3689,14.5234,14.6224,14.6602,14.6602,14.724,14.8314,14.9852,15.1433,15.3682,15.6413,15.7982,15.8907,15.9757,15.9757,15.9757,15.9757,15.9757,15.9757,12.9018,12.8295,12.8229,12.742,12.6039,12.4612,12.3645,12.3185,12.3278,12.3869,12.4395,12.5138,12.5947,12.6388,12.5796,12.5927,12.621,12.4987,12.4001,12.3258,12.2639,12.2311,12.2574,12.3672,12.5072,12.6519,12.792,12.9018,12.9721,12.9852,12.9852,12.9918,13.0641,13.1365,13.2043,13.2832,13.406,13.5221,13.5549,13.5988,13.669,13.6756,13.6756,13.669,13.5923,13.5331,13.4234,13.1451,12.9852,12.9458,12.8032,12.7177,12.79,12.792,12.8315,12.9787,13.1167,13.224,13.3029,13.3818,13.395,13.3382,13.2341,13.1754,13.1139,13.0255,12.9852,12.9898,12.9852,12.9852,12.9852,12.9852,12.9852,13.0181,13.143,13.2482,13.2482,13.36,13.4137,13.4034,13.414,13.4579,13.4661,13.4661,13.4955,13.5594,13.6799,13.6909,13.6843,13.7808,13.8509,13.8487,13.9167,14.0021,14.0804,14.1236,14.2249,14.4403,14.546,14.562,14.5947,14.6622,14.8713,15.1287,15.2618,15.4421,15.7069,15.9178,15.9757,15.9757,15.9757,15.9757,15.9757,15.9757,15.9757,12.6322,12.5053,12.5007,12.4395,12.3343,12.2376,12.1719,12.1475,12.2423,12.2752,12.3015,12.402,12.4546,12.4921,12.4612,12.4678,12.4593,12.3541,12.2883,12.2705,12.1738,12.1343,12.1606,12.2752,12.4264,12.5664,12.7177,12.8426,12.9787,12.9852,12.9852,12.9918,13.0773,13.1517,13.2043,13.3029,13.4476,13.5681,13.5878,13.6449,13.7611,13.7808,13.8137,13.84,13.7172,13.6186,13.5484,13.2306,13.0313,12.9787,12.8163,12.7637,12.8229,12.8052,12.8381,12.9787,13.1102,13.2109,13.2766,13.3753,13.4016,13.3645,13.2995,13.2456,13.2042,13.1019,13.0551,13.0403,13.0424,13.0444,13.053,13.0904,13.1102,13.1299,13.2811,13.4041,13.4352,13.5511,13.6234,13.6018,13.6037,13.614,13.6198,13.6246,13.6426,13.6975,13.7742,13.8334,13.8071,13.8575,13.8575,13.8575,13.8685,13.9341,13.9756,14.0105,14.1222,14.3462,14.4169,14.4239,14.5091,14.5701,14.8609,15.2115,15.288,15.5053,15.7678,15.9694,15.9757,15.9757,15.9757,15.9757,15.9757,15.9757,15.9757,12.4856,12.3606,12.3521,12.3475,12.3258,12.3146,12.2376,12.1409,12.1475,12.1606,12.1522,12.1869,12.2442,12.308,12.2442,12.2574,12.3165,12.2179,12.1672,12.1541,12.1409,12.1343,12.1475,12.2554,12.4001,12.5533,12.6934,12.836,12.9787,12.9852,12.9852,12.9852,13.0115,13.0641,13.1648,13.1977,13.2877,13.4213,13.441,13.5133,13.647,13.6602,13.7106,13.8202,13.6975,13.5747,13.4607,13.2635,13.097,12.9721,12.7571,12.6453,12.6256,12.7131,12.8381,12.9787,13.1167,13.2372,13.3753,13.395,13.3687,13.2766,13.3295,13.3624,13.2163,13.1558,13.1246,13.1368,13.1455,13.1583,13.1911,13.27,13.36,13.395,13.4279,13.4594,13.4536,13.5734,13.6214,13.5451,13.5667,13.6513,13.6694,13.6669,13.7216,13.7961,13.84,13.8575,13.8575,13.8575,13.8575,13.8575,13.8575,13.8947,13.9123,13.9472,14.002,14.1754,14.2129,14.2875,14.3904,14.4628,14.6567,15.018,15.2842,15.5556,15.7912,15.9134,15.9757,15.9757,15.9757,15.9757,15.9757,15.9757,15.9757,12.2574,12.2113,12.2113,12.2048,12.2113,12.2113,12.1804,12.1343,12.1343,12.1343,12.1343,12.1343,12.1587,12.1869,12.1541,12.1587,12.2001,12.1541,12.1343,12.1343,12.1343,12.1343,12.1409,12.185,12.3251,12.5335,12.6144,12.7571,12.97,12.9852,12.9852,12.9852,12.9852,13.0181,13.0576,13.0707,13.1365,13.2614,13.2832,13.3555,13.4805,13.5133,13.5397,13.5725,13.5397,13.487,13.4213,13.1911,13.0444,12.9721,12.8866,12.8274,12.8209,12.79,12.836,12.9589,13.0444,13.132,13.2635,13.2832,13.2898,13.3271,13.3032,13.2575,13.2094,13.1029,13.0649,13.0625,13.0752,13.1036,13.1846,13.2635,13.3753,13.5331,13.5549,13.6057,13.6934,13.7525,13.7372,13.7219,13.7327,13.7743,13.7787,13.783,13.8137,13.84,13.8575,13.8575,13.8575,13.8575,13.8575,13.8575,13.8575,13.8575,13.8575,13.8838,13.9232,13.9846,14.0483,14.1558,14.2946,14.3827,14.4776,14.8488,15.1728,15.4289,15.7626,15.8813,15.9115,15.9686,15.9757,15.963,15.9416,15.9488,15.9345,12.1343,12.1343,12.1343,12.1343,12.1343,12.1343,12.1343,12.1343,12.1343,12.1343,12.1343,12.1343,12.1343,12.1343,12.1343,12.1343,12.1343,12.1343,12.1343,12.1343,12.1343,12.1343,12.1343,12.1343,12.2593,12.4678,12.5816,12.7571,12.9458,12.9852,12.9852,12.9852,12.9852,12.9852,12.9898,12.9852,13.0247,13.1233,13.132,13.2043,13.3424,13.3621,13.3818,13.4213,13.3818,13.3358,13.2898,13.097,12.9918,12.9852,12.9852,12.9852,12.9655,12.8952,12.8821,12.9721,12.9852,13.0378,13.1167,13.1385,13.1846,13.2503,13.2413,13.2043,13.1852,13.1112,13.0673,13.058,13.051,13.0839,13.1846,13.2372,13.3555,13.5528,13.5812,13.6054,13.6647,13.7434,13.8026,13.8421,13.8575,13.8575,13.8575,13.8575,13.8531,13.8575,13.8575,13.8575,13.8575,13.8575,13.8575,13.8575,13.8575,13.8575,13.8575,13.8706,13.8904,13.9298,13.9693,14.0351,14.2016,14.3241,14.43,14.6593,14.9715,15.2862,15.6428,15.7926,15.7672,15.7958,15.8576,15.8877,15.9004,15.8877,15.8678,12.1343,12.1343,12.1343,12.1343,12.1343,12.1343,12.1343,12.1343,12.1343,12.1343,12.1343,12.1343,12.1343,12.1343,12.1343,12.1343,12.1343,12.1343,12.1343,12.1343,12.1343,12.1343,12.1343,12.1343,12.2198,12.3738,12.6256,12.8295,12.9787,12.9852,12.9852,12.9852,12.9852,12.9852,12.9852,12.9852,12.9898,13.0029,13.0115,13.0641,13.178,13.1977,13.2635,13.3687,13.27,13.1451,13.0181,12.9984,12.9852,12.9852,12.9852,12.9852,12.9852,12.9721,12.9766,12.9852,12.9852,12.9852,12.9984,13.005,13.0115,13.0465,13.1258,13.1785,13.171,13.1637,13.1546,13.1492,13.1583,13.1846,13.2109,13.2963,13.3818,13.4344,13.4344,13.441,13.4781,13.5694,13.6966,13.8026,13.8334,13.8531,13.8575,13.8575,13.8575,13.8575,13.8575,13.8575,13.8575,13.8575,13.8575,13.8575,13.8575,13.8575,13.8575,13.8575,13.8663,13.8816,13.9188,13.9947,14.1759,14.3223,14.4343,14.5712,14.884,15.111,15.4623,15.6233,15.6011,15.6419,15.6965,15.7425,15.7449,15.7474,15.7434,12.1343,12.1343,12.1343,12.1343,12.1343,12.1343,12.1343,12.1343,12.1343,12.1343,12.1343,12.1343,12.1343,12.1343,12.1343,12.1343,12.1343,12.1343,12.1343,12.1343,12.1343,12.1343,12.1343,12.1343,12.2048,12.3606,12.5401,12.7571,12.9569,12.9852,12.9852,12.9852,12.9852,12.9852,12.9852,12.9852,12.9852,12.9852,12.9852,13.005,13.0444,13.0489,13.0839,13.1167,13.0859,13.0313,12.9918,12.9852,12.9852,12.9852,12.9852,12.9852,12.9852,12.9852,12.9852,12.9852,12.9852,12.9852,12.9852,12.9852,12.9852,12.9918,13.0349,13.0567,13.0551,13.0547,13.0567,13.0551,13.051,13.1036,13.1648,13.1562,13.1693,13.2569,13.2766,13.3161,13.4168,13.4672,13.5221,13.5788,13.658,13.7545,13.8334,13.8509,13.8509,13.8575,13.8575,13.8575,13.8575,13.8575,13.8575,13.8575,13.8575,13.8575,13.8575,13.8575,13.8663,13.9224,13.9721,14.0616,14.2032,14.3353,14.4594,14.5865,14.7705,14.989,15.1906,15.3724,15.4644,15.5144,15.5553,15.5813,15.5864,15.5873,15.5889,12.1343,12.1343,12.1343,12.1343,12.1343,12.1343,12.1343,12.1343,12.1343,12.1343,12.1343,12.1343,12.1343,12.1343,12.1343,12.1343,12.1343,12.1343,12.1343,12.1343,12.1343,12.1343,12.1343,12.1343,12.2264,12.4067,12.5138,12.7045,12.9589,12.9852,12.9852,12.9852,12.9852,12.9852,12.9852,12.9852,12.9852,12.9852,12.9852,12.9852,12.9918,12.9852,12.9852,12.9852,12.9852,12.9852,12.9852,12.9852,12.9852,12.9852,12.9852,12.9852,12.9852,12.9852,12.9852,12.9852,12.9852,12.9852,12.9852,12.9852,12.9852,12.9852,12.9852,12.9918,12.9852,12.9852,12.9852,12.9918,12.9852,13.0181,13.0839,13.0444,13.0247,13.1056,13.1254,13.1648,13.2476,13.3178,13.3476,13.3702,13.4805,13.5923,13.6734,13.7502,13.7809,13.7852,13.8268,13.8509,13.8575,13.8575,13.8575,13.8575,13.8575,13.8575,13.8575,13.8575,13.8966,13.9668,14.056,14.1614,14.3621,14.5273,14.63,14.7695,14.8575,15.0328,15.0653,15.2271,15.2347,15.3009,15.3901,15.4186,15.4278,15.4283,15.4253,12.1343,12.1343,12.1343,12.1343,12.1343,12.1343,12.1343,12.1343,12.1343,12.1343,12.1343,12.1343,12.1343,12.1343,12.1343,12.1343,12.1343,12.1343,12.1343,12.1343,12.1343,12.1343,12.1343,12.1343,12.279,12.527,12.5533,12.7025,12.9721,12.9852,12.9852,12.9852,12.9852,12.9852,12.9852,12.9852,12.9852,12.9852,12.9852,12.9852,12.9852,12.9852,12.9852,12.9852,12.9852,12.9852,12.9852,12.9852,12.9852,12.9852,12.9852,12.9852,12.9852,12.9852,12.9852,12.9852,12.9852,12.9852,12.9852,12.9852,12.9852,12.9852,12.9852,12.9852,12.9852,12.9852,12.9852,12.9852,12.9852,12.9852,12.9984,12.9918,12.9918,12.9984,12.9984,12.9984,13.005,13.1299,13.1826,13.2126,13.325,13.4194,13.4302,13.5469,13.6278,13.6823,13.7611,13.8444,13.8444,13.8575,13.8575,13.8575,13.8575,13.8575,13.8575,13.8575,13.9415,14.0316,14.121,14.278,14.5405,14.7636,14.8588,14.9523,14.986,15.0099,15.0245,15.0452,15.0752,15.1139,15.21,15.2502,15.2626,15.266,15.2645,12.1343,12.1343,12.1343,12.1343,12.1343,12.1343,12.1343,12.1343,12.1343,12.1343,12.1343,12.1343,12.1343,12.1343,12.1343,12.1343,12.1343,12.1343,12.1343,12.1343,12.1343,12.1343,12.1343,12.1343,12.2771,12.5224,12.5599,12.7045,12.9589,12.9852,12.9852,12.9852,12.9852,12.9852,12.9852,12.9852,12.9852,12.9852,12.9852,12.9852,12.9852,12.9852,12.9852,12.9852,12.9852,12.9852,12.9852,12.9852,12.9852,12.9852,12.9852,12.9852,12.9852,12.9852,12.9852,12.9852,12.9852,12.9852,12.9852,12.9852,12.9852,12.9852,12.9852,12.9852,12.9852,12.9852,12.9852,12.9852,12.9852,12.9852,12.9852,12.9852,12.9852,12.9852,12.9852,12.9852,12.9852,13.0091,13.0481,13.051,13.1834,13.2672,13.284,13.3872,13.5207,13.6077,13.6712,13.7304,13.8334,13.8465,13.8531,13.8575,13.8575,13.8509,13.8575,13.8465,13.8706,13.9816,14.203,14.371,14.4776,14.7948,14.9911,14.9423,14.9945,15.0294,15.0294,15.0294,15.0452,15.038,15.0624,15.1011,15.1184,15.1026,15.1026,12.1343,12.1343,12.1343,12.1343,12.1343,12.1343,12.1343,12.1343,12.1343,12.1343,12.1343,12.1343,12.1343,12.1343,12.1343,12.1343,12.1343,12.1343,12.1343,12.1343,12.1343,12.1343,12.1343,12.1343,12.279,12.5401,12.5599,12.7025,12.9392,12.9852,12.9852,12.9852,12.9852,12.9852,12.9852,12.9852,12.9852,12.9852,12.9852,12.9852,12.9852,12.9852,12.9852,12.9852,12.9852,12.9852,12.9852,12.9852,12.9852,12.9852,12.9852,12.9852,12.9852,12.9315,12.8966,12.8932,12.8426,12.834,12.8932,12.9524,12.9852,12.9852,12.9852,12.9852,12.9852,12.9852,12.9852,12.9852,12.9852,12.9852,12.9852,12.9852,12.9852,12.9852,12.9852,12.9852,12.9852,12.9852,12.9852,12.9898,13.0632,13.1116,13.1285,13.1942,13.3035,13.4302,13.5286,13.5812,13.6646,13.6822,13.7084,13.7477,13.7218,13.6956,13.6868,13.7348,13.8305,13.9423,14.1756,14.4179,14.5029,14.7589,14.9295,14.9254,14.9824,15.0238,15.008,15.0294,15.0294,15.0294,15.0294,15.0294,15.0294,15.0294,14.9881,12.1343,12.1343,12.1343,12.1343,12.1343,12.1343,12.1343,12.1343,12.1343,12.1343,12.1278,12.1146,12.1146,12.1278,12.1146,12.1146,12.1343,12.1343,12.1343,12.1343,12.1343,12.1343,12.1343,12.1475,12.2922,12.5335,12.5796,12.7288,12.9766,12.9852,12.9852,12.9852,12.9852,12.9852,12.9852,12.9852,12.9852,12.9852,12.9852,12.9852,12.9852,12.9852,12.9852,12.9852,12.9852,12.9852,12.9852,12.97,12.9655,12.9655,12.9478,12.9413,12.9286,12.8212,12.7516,12.7485,12.6342,12.6125,12.746,12.8735,12.9458,12.9635,12.9564,12.963,12.9852,12.9573,12.9487,12.9589,12.9569,12.9655,12.9832,12.9852,12.9852,12.9852,12.9852,12.9852,12.9852,12.9852,12.9852,12.9852,12.9963,12.9832,13.0029,13.014,13.0576,13.1891,13.3226,13.4279,13.4673,13.4758,13.5101,13.5475,13.5291,13.4707,13.516,13.6093,13.8069,13.965,14.1451,14.3109,14.4733,14.6337,14.7713,14.7856,14.8698,14.931,14.9453,14.9821,14.9607,14.9123,14.9295,14.9667,14.9824,14.9753,14.9254,12.1343,12.1343,12.1343,12.1343,12.1343,12.1343,12.1343,12.1343,12.1278,12.1343,12.1146,12.0075,12.0291,12.1146,12.0141,12.0206,12.1212,12.1343,12.1343,12.1343,12.1343,12.1343,12.1409,12.2423,12.3889,12.5513,12.6736,12.8118,12.9655,12.9852,12.9852,12.9852,12.9852,12.9852,12.9852,12.9852,12.9852,12.9852,12.9852,12.9852,12.9852,12.9852,12.9852,12.9852,12.9852,12.9852,12.9787,12.8755,12.8183,12.8118,12.7139,12.6547,12.6499,12.6194,12.6043,12.6019,12.573,12.573,12.6059,12.6388,12.6979,12.8052,12.8227,12.8642,12.9524,12.7897,12.6944,12.7996,12.8183,12.8623,12.9524,12.9787,12.9852,12.9852,12.9852,12.9787,12.9832,12.9852,12.9852,12.9852,12.9852,12.9852,12.9852,12.9852,12.9984,13.051,13.1583,13.3029,13.4079,13.4342,13.3847,13.3587,13.407,13.4926,13.6335,13.7817,13.9061,13.9646,14.1413,14.259,14.3402,14.4953,14.6013,14.62,14.6471,14.6842,14.6727,14.6765,14.6863,14.6927,14.6985,14.6857,14.7001,14.7686,14.7856,12.1935,12.1409,12.1982,12.1916,12.1343,12.1343,12.1343,12.1212,11.9831,11.922,11.9173,11.8431,11.8515,11.9239,11.9154,11.9615,12.0338,12.1014,12.1343,12.1343,12.1343,12.1343,12.1475,12.2752,12.4132,12.5579,12.6979,12.8426,12.9721,12.9852,12.9852,12.9852,12.9852,12.9852,12.9852,12.9852,12.9852,12.9787,12.7946,12.6565,12.5973,12.5927,12.5599,12.4987,12.6959,12.7617,12.6939,12.619,12.5467,12.4829,12.4002,12.3645,12.3579,12.2341,12.1581,12.1568,12.0976,12.0845,12.1522,12.2245,12.356,12.5599,12.6369,12.685,12.6959,12.6073,12.5902,12.6611,12.6736,12.7045,12.7814,12.788,12.8143,12.8821,12.8886,12.9129,12.9721,12.9852,12.9852,12.9852,12.9852,12.9852,12.9852,12.9852,12.9852,12.9898,13.0444,13.1233,13.2043,13.2242,13.1924,13.134,13.2571,13.4092,13.4944,13.7224,13.8811,13.9034,14.0622,14.1729,14.1957,14.3346,14.4345,14.4559,14.5202,14.5488,14.5615,14.5557,14.5586,14.5602,14.5545,14.5559,14.5645,14.6172,14.6286,12.1963,12.0817,12.2226,12.2028,12.0705,12.0686,12.062,12.0423,11.7971,11.6853,11.6787,11.659,11.6655,11.6918,11.8018,11.8628,11.8891,12.0075,12.0686,12.0686,12.0883,12.1014,12.108,12.2686,12.4067,12.5335,12.6736,12.8163,12.9392,12.9524,12.9635,12.9852,12.9852,12.9852,12.9852,12.9852,12.9721,12.9458,12.5888,12.3541,12.2527,12.2508,12.1522,11.9812,12.3494,12.4678,12.262,12.2752,12.1765,11.9568,11.9282,11.9055,11.8731,11.5909,11.4757,11.5454,11.4055,11.3876,11.5519,11.6834,11.8872,12.1634,12.363,12.3812,12.2137,12.3042,12.3982,12.4658,12.4546,12.4875,12.5533,12.5467,12.5927,12.7197,12.7263,12.7637,12.8932,12.9301,12.9453,12.9442,12.966,12.9852,12.9852,12.9852,12.9852,12.9852,13.005,12.9984,13.0115,12.9852,12.9918,13.037,13.1945,13.3211,13.4419,13.6438,13.8568,13.8594,14.0089,14.108,14.1066,14.2134,14.2833,14.2932,14.383,14.4601,14.4674,14.4945,14.4673,14.4574,14.4516,14.4644,14.4617,14.4688,14.4402,11.9023,11.7773,11.9286,11.9023,11.7642,11.7576,11.7576,11.7595,11.705,0.0,0.0,11.5567,11.5717,11.6721,11.5848,11.6111,11.7247,11.751,11.7576,11.7708,11.8957,11.9549,11.9661,12.2226,12.3521,12.385,12.525,12.6716,12.8052,12.8052,12.8689,12.9787,12.9852,12.9852,12.9852,12.9852,12.9261,12.8097,12.7308,12.7374,12.8274,12.834,12.5973,12.1014,12.3955,12.3165,11.8234,11.922,11.7031,11.0983,10.9442,10.8275,10.7055,10.4227,10.4736,10.919,10.7383,10.7038,10.9585,11.0062,11.1443,11.4288,11.8021,11.8616,11.4627,11.4629,11.6343,12.0027,12.0253,12.1719,12.5204,12.4527,12.4395,12.5796,12.4921,12.4724,12.6144,12.7285,12.8035,12.8253,12.9057,12.9832,12.9766,12.9832,12.9852,12.9852,12.9852,12.9852,12.9852,12.9955,13.0442,13.1915,13.4654,13.7005,13.7461,13.8974,14.0324,14.031,14.0681,14.0992,14.0992,14.1134,14.1348,14.1491,14.1533,14.1847,14.1791,14.1975,14.1775,14.1733,14.1775,14.1761,14.1776,14.1762,14.1762,11.8891,11.7097,11.9286,11.8891,0.0,11.6787,11.5191,11.2495,11.2495,11.2495,11.2429,11.1754,11.182,11.2477,11.2495,11.2889,11.3631,11.5059,11.5717,11.5848,11.8102,11.9154,11.922,12.2094,12.3455,12.3521,12.4941,12.5927,12.6585,12.6585,12.6631,12.6631,12.7288,12.6565,12.4593,12.6585,12.7308,12.6671,12.5927,12.5533,12.5467,12.4809,12.2705,11.9304,12.1869,0.0,0.0,0.0,0.0,0.0,0.0,0.0,0.0,10.0973,9.7686,9.8278,9.364,9.109,9.1864,9.315,9.6847,10.3273,10.645,10.5994,10.0998,10.7192,11.0888,10.9984,11.3474,11.6582,11.8674,11.8365,11.8497,11.9859,12.0056,12.0988,12.3082,12.4654,12.5857,12.6587,12.7897,12.8728,12.88,12.9326,12.9832,12.9852,12.9852,12.9852,12.9955,13.0585,13.1485,13.249,13.5803,13.8209,13.835,13.9755,14.0892,14.0992,14.0992,14.0992,14.0992,14.0992,14.0992,14.0992,14.0992,14.0992,14.0992,14.0992,14.0992,14.0992,14.0992,14.0992,14.0992,14.0992,14.0992,11.7642,11.5472,11.8121,11.7726,11.5191,11.5209,11.2543,10.827,10.827,10.827,10.827,10.7941,10.7678,10.7547,10.8944,10.9619,10.9733,11.228,11.3463,11.3577,11.6524,11.7923,11.8102,12.0845,12.2338,12.2667,12.3804,12.4678,12.5184,12.5204,12.4724,12.3869,12.5007,12.3823,12.0732,0.0,0.0,0.0,12.3606,12.3146,12.2461,12.1127,11.922,11.6984,11.968,0.0,11.8036,11.8168,11.6571,11.2889,11.2166,0.0,10.7581,0.0,0.0,0.0,0.0,0.0,0.0,0.0,0.0,0.0,9.1648,9.1328,8.8988,9.9232,10.3894,9.8905,10.5805,11.0749,11.0737,11.0779,11.1653,11.3566,11.4846,11.6783,11.9683,12.1611,12.3216,12.4579,12.5997,12.6971,12.7314,12.8558,12.9392,12.9392,12.9655,12.996,13.0452,13.1654,13.2799,13.374,13.6247,13.8272,13.866,13.9982,14.0992,14.0992,14.0992,14.0992,14.0992,14.0992,14.0992,14.0992,14.0992,14.0992,14.0992,14.0992,14.0992,14.0992,14.0992,14.0835,14.0506,14.0492,14.055,11.0851,10.9519,11.1114,11.0851,10.9387,10.9322,10.8944,10.827,10.827,10.827,10.8221,10.6923,10.5756,10.4671,10.6019,10.6694,10.6792,10.8353,10.9125,10.9256,11.2052,11.3385,11.3517,11.6327,11.8365,11.9661,11.9896,12.1258,12.3653,12.3718,12.4264,12.527,12.5467,12.527,12.4678,12.279,12.0554,11.8036,12.1568,12.4546,12.6782,12.5487,12.2245,11.7313,11.9699,11.8825,11.3714,11.4617,11.2232,10.5723,10.2896,10.02,9.7257,9.1236,8.525,0.0,7.4946,0.0,0.0,0.0,0.0,0.0,0.0,0.0,0.0,8.9456,9.1151,8.8855,9.8533,10.4686,10.4138,10.4441,10.6332,11.0076,11.0874,11.2259,11.5223,11.7993,12.0257,12.1709,12.3121,12.446,12.5743,12.7111,12.8006,12.8313,12.9072,13.0146,13.2043,13.2328,13.3576,13.7083,13.79,13.8523,13.9841,14.0593,14.0778,14.0849,14.0706,14.0992,14.0778,14.0778,14.0849,14.0849,14.0706,14.0849,14.0906,14.0906,14.0835,14.0764,14.0692,14.0278,13.9263,13.8936,13.9337,10.9536,10.8401,10.9799,10.7695,10.3405,10.3422,10.3405,10.3405,10.3422,10.3471,10.3405,10.2764,10.2091,10.1581,10.2172,10.2435,10.2567,10.3948,10.5065,10.6035,10.8896,11.1066,11.2596,11.4665,11.644,11.7839,11.7905,11.8544,11.9746,11.9812,11.9661,11.953,12.1174,11.922,11.3941,11.7116,11.9351,12.045,12.2469,12.4461,12.6408,12.5138,12.3146,12.0648,12.108,11.9699,11.6327,11.6834,11.4551,10.9027,10.6709,10.3487,9.8835,8.6538,7.9268,0.0,0.0,0.0,0.0,0.0,0.0,0.0,0.0,0.0,0.0,0.0,7.8142,8.2718,9.4761,9.9723,9.3466,9.5465,9.7541,9.8613,9.7098,9.9335,10.7442,10.9424,11.177,11.5847,11.9132,12.1915,12.4275,12.5858,12.7375,12.9187,12.8434,12.7468,12.7027,12.9743,13.2393,13.4116,13.5892,13.7478,13.8163,13.8285,13.828,13.8352,13.8352,13.8352,13.8352,13.8352,13.8352,13.8352,13.8352,13.8494,13.9051,13.8756,13.8544,13.8911,13.8725,13.814,13.7451,13.7309,13.7424,10.7169,10.6068,10.4864,10.1837,9.7775,9.779,9.8428,9.9527,9.9527,9.9451,9.9461,9.9492,9.8194,9.5944,9.4503,9.4659,9.6233,9.7993,10.0288,10.3027,10.5526,10.781,10.9965,11.1443,11.2889,11.4157,11.3959,11.4139,11.4748,11.4814,11.335,11.0785,11.2841,11.0249,10.3268,11.0052,11.644,12.1831,12.2883,12.3804,12.45,12.3475,12.2752,12.2423,12.1324,12.0075,11.8628,11.7642,11.5537,11.2201,10.8058,10.3306,9.7702,8.1383,0.0,0.0,0.0,0.0,0.0,0.0,0.0,0.0,0.0,6.0824,4.9107,0.0,6.8118,0.0,8.972,9.4138,8.771,8.8398,0.0,0.0,8.5424,8.6915,9.6512,9.953,10.292,10.8416,11.3758,11.8159,12.13,12.3571,12.6003,12.8829,12.7393,12.5216,12.3235,12.7596,13.1233,13.1579,13.3513,13.5162,13.5119,13.5481,13.5712,13.5698,13.5712,13.5555,13.5216,13.5399,13.5712,13.5725,13.5993,13.6448,13.7023,13.6694,13.6455,13.6259,13.5064,13.4212,13.5043,13.5154,13.5368,10.0316,9.9404,9.0637,8.9224,9.2688,9.2674,9.5251,9.9461,9.9477,9.9426,9.9401,9.9463,9.452,8.5825,8.0114,0.0,8.6625,8.9432,9.3985,9.9921,10.1449,10.2304,10.2583,10.4145,10.5608,10.7023,10.5674,10.6397,10.8862,10.8993,10.5476,9.8916,9.8982,9.912,9.922,10.2984,10.9093,11.7229,12.1352,12.2883,12.1672,12.1541,12.0817,11.953,11.9417,11.8628,11.6984,11.3236,11.0934,11.0211,9.9032,9.0484,8.5788,0.0,0.0,0.0,0.0,0.0,0.0,0.0,0.0,0.0,0.0,0.0,0.0,0.0,0.0,7.468,8.0971,0.0,9.2644,8.6145,0.0,0.0,0.0,7.9073,8.1469,8.9373,9.5824,9.9108,0.0,0.0,11.5028,11.9128,12.2617,12.4834,12.5806,12.6317,12.6443,12.8849,13.1277,13.1163,13.1722,13.1967,13.1835,13.2547,13.3201,13.3447,13.4102,13.3335,13.2249,13.2984,13.3986,13.3914,13.5277,13.591,13.5065,13.5057,13.5418,13.2305,12.9685,12.8558,13.1093,13.18,13.2585,9.0083,8.2046,7.8247,7.8253,8.0722,7.9879,8.377,9.0757,8.9844,8.9397,8.9379,8.9441,8.3649,7.3752,7.2181,0.0,0.0,0.0,8.4,9.2342,9.2519,9.584,10.1465,10.2304,10.3372,10.4753,10.4293,10.4605,10.5723,10.6578,9.5738,7.4514,0.0,8.2769,8.0478,9.2834,10.295,11.0312,11.7294,12.0995,12.1343,12.1343,12.0601,11.9201,11.8234,11.6243,11.3104,11.1329,10.6792,9.8982,9.1207,8.3053,0.0,0.0,0.0,0.0,0.0,0.0,0.0,0.0,0.0,0.0,0.0,4.4847,3.6846,0.0,0.0,0.0,6.18,6.646,7.2115,7.5498,0.0,0.0,0.0,0.0,0.0,0.0,0.0,8.9062,9.696,10.4378,11.1177,11.4526,11.611,11.6022,11.8854,12.0326,11.8647,0.0,12.468,12.5759,12.5874,12.6193,12.7161,12.4692,12.3545,12.6314,12.7623,12.7988,12.7458,12.8682,12.9692,12.9789,13.0191,13.0528,13.0101,12.7128,12.4556,12.4066,12.3198,12.3304,12.5399,12.6696,12.7967,7.7769,0.0,0.0,0.0,0.0,6.8146,7.2284,7.971,7.809,7.746,7.7327,7.7317,0.0,0.0,0.0,0.0,0.0,0.0,7.5756,8.3784,8.745,9.2413,9.8572,9.9032,9.9806,10.0808,10.0375,9.9212,9.7445,9.5606,8.2131,5.8191,0.0,0.0,0.0,0.0,9.5818,10.4041,11.4019,11.9878,12.1278,12.0883,12.0357,11.9746,11.705,11.3762,10.9931,10.6594,9.9953,8.9497,8.0949,0.0,0.0,0.0,0.0,0.0,0.0,0.0,0.0,0.0,0.0,0.0,0.0,0.0,0.0,0.0,0.0,0.0,0.0,0.0,5.7772,6.6451,6.9288,0.0,0.0,0.0,0.0,0.0,0.0,0.0,0.0,0.0,10.223,10.6341,10.9162,0.0,0.0,11.6946,11.3878,11.6637,11.9146,11.9354,11.8279,0.0,11.904,11.5729,11.4372,11.8117,12.0118,12.0454,11.8283,12.0266,12.1631,11.9645,12.1692,12.2716,12.056,11.5693,11.3158,11.4797,11.443,11.4332,11.6387,11.8825,12.0953,0.0,0.0,0.0,0.0,5.9378,0.0,0.0,0.0,6.5433,6.4637,0.0,6.4402,0.0,0.0,0.0,0.0,5.1164,6.2616,0.0,0.0,8.7846,9.338,9.1359,9.2639,9.3347,9.337,9.1594,8.768,8.1423,7.2256,6.3846,0.0,0.0,0.0,0.0,0.0,8.7143,9.8658,11.2143,11.9812,12.1146,11.9943,11.9878,12.0949,11.5687,11.1263,10.8007,9.752,8.9445,8.4525,6.7216,0.0,0.0,0.0,0.0,0.0,0.0,0.0,0.0,0.0,0.0,0.0,0.0,0.0,0.0,0.0,0.0,0.0,0.0,0.0,0.0,6.1181,0.0,0.0,0.0,0.0,0.0,0.0,0.0,0.0,0.0,8.6624,8.569,9.3548,10.193,10.9309,0.0,0.0,0.0,0.0,11.645,11.3626,10.9233,10.6514,10.6612,10.7503,10.8833,11.0543,0.0,0.0,10.3177,10.6915,10.9158,10.3206,10.977,11.3038,10.5464,10.1192,10.0809,10.5284,10.2588,10.0723,10.3481,10.7338,11.0826,0.0,0.0,0.0,0.0,0.0,0.0,0.0,0.0,0.0,5.4483,5.4275,5.327,0.0,0.0,0.0,0.0,0.0,0.0,0.0,0.0,7.0798,7.629,7.7477,8.2287,8.2892,7.953,7.6983,7.0511,0.0,0.0,0.0,0.0,0.0,0.0,0.0,0.0,8.1875,9.1672,10.7804,11.7426,11.9746,11.9417,11.8891,11.8299,11.4635,10.6808,9.4575,8.7524,8.0488,0.0,0.0,0.0,0.0,0.0,0.0,0.0,0.0,0.0,0.0,0.0,0.0,0.0,0.0,0.0,0.0,0.0,0.0,0.0,0.0,0.0,0.0,0.0,5.6922,0.0,0.0,0.0,0.0,0.0,0.0,0.0,0.0,0.0,7.3576,8.4708,9.5101,10.1937,10.8189,11.2462,11.3438,0.0,0.0,0.0,0.0,0.0,0.0,0.0,9.9761,10.2403,9.6453,9.1807,9.3102,9.8566,10.2083,9.9915,0.0,0.0,8.6776,8.3684,8.4612,8.7482,8.76,8.811,9.1066,9.3718,9.5964,0.0,0.0,0.0,0.0,0.0,0.0,0.0,0.0,0.0,4.2261,4.211,0.0,0.0,0.0,0.0,0.0,0.0,0.0,0.0,0.0,0.0,0.0,6.6722,7.1691,0.0,0.0,0.0,0.0,0.0,0.0,0.0,0.0,0.0,0.0,0.0,0.0,7.8454,8.7064,10.5111,11.6111,11.9004,11.8628,11.7905,11.6853,11.3583,10.4375,8.8618,0.0,0.0,0.0,4.7156,0.0,0.0,0.0,0.0,0.0,0.0,0.0,0.0,0.0,0.0,0.0,0.0,0.0,0.0,0.0,0.0,0.0,0.0,0.0,0.0,0.0,4.9024,0.0,0.0,0.0,0.0,0.0,0.0,0.0,0.0,0.0,0.0,7.4164,8.4867,9.4302,10.1418,10.7263,11.1381,11.1495,11.1556,0.0,0.0,0.0,0.0,0.0,0.0,0.0,0.0,0.0,0.0,0.0,0.0,0.0,9.1683,9.1325,7.5739,7.1905,7.1541,7.3055,0.0,0.0,0.0,0.0,0.0,0.0,0.0,0.0,0.0,0.0,0.0,0.0,0.0,0.0,0.0,2.8107,0.0,0.0,2.3541,0.0,0.0,0.0,0.0,0.0,0.0,0.0,0.0,0.0,0.0,0.0,0.0,0.0,0.0,0.0,0.0,0.0,0.0,0.0,0.0,0.0,0.0,7.6752,8.4583,10.4436,11.6118,11.8891,11.7642,11.6853,11.6655,11.2578,10.4161,9.109,0.0,0.0,0.0,0.0,0.0,0.0,0.0,0.0,0.0,0.0,0.0,0.0,0.0,0.0,0.0,0.0,0.0,0.0,0.0,0.0,0.0,0.0,0.0,0.0,0.0,0.0,4.3126,4.9538,5.3012,0.0,0.0,0.0,0.0,0.0,0.0,0.0,0.0,0.0,8.6853,9.5835,10.3196,10.93,10.8993,10.8071,10.8187,10.3105,9.962,10.143,9.9898,9.6601,0.0,0.0,0.0,0.0,0.0,0.0,0.0,0.0,0.0,0.0,0.0,0.0,0.0,0.0,0.0,0.0,0.0,0.0,0.0,0.0,0.0,0.0,0.0,0.0,0.0,0.0,0.0,0.0,2.6621,2.4615,0.0,0.0,0.0,0.0,0.0,0.0,0.0,0.0,0.0,0.0,0.0,0.0,0.0,0.0,0.0,0.0,0.0,0.0,0.0,0.0,0.0,0.0,0.0,0.0,7.6199,8.2948,10.3947,11.5244,11.598,11.659,11.6327,11.5256,11.0211,10.1284,8.8355,0.0,0.0,0.0,0.0,0.0,0.0,0.0,0.0,0.0,0.0,0.0,0.0,0.0,0.0,0.0,0.0,0.0,0.0,0.0,0.0,0.0,0.0,0.0,0.0,0.0,0.0,0.0,5.38,5.464,5.1705,0.0,0.0,0.0,0.0,0.0,0.0,0.0,0.0,0.0,0.0,9.8313,10.4581,10.5127,10.5563,10.7766,10.4614,10.2929,10.5559,10.1928,9.6941,9.168,0.0,0.0,0.0,0.0,0.0,0.0,0.0,0.0,0.0,0.0,0.0,0.0,0.0,0.0,0.0,0.0,0.0,0.0,0.0,0.0,0.0,0.0,0.0,0.0,0.0,0.0,0.0,0.0,0.0,0.0,0.0,0.0,0.0,0.0,0.0,0.0,0.0,0.0,0.0,0.0,0.0,0.0,0.0,0.0,0.0,0.0,0.0,0.0,0.0,0.0,0.0,0.0,0.0,7.5982,8.2349,10.3145,11.3958,11.3899,11.5256,11.5059,11.3087,10.8584,9.8471,0.0,0.0,0.0,0.0,0.0,0.0,0.0,0.0,0.0,0.0,0.0,0.0,0.0,0.0,0.0,0.0,0.0,0.0,0.0,0.0,0.0,0.0,0.0,0.0,0.0,0.0,0.0,0.0,4.7222,4.9805,4.8566,0.0,0.0,0.0,0.0,0.0,0.0,0.0,0.0,0.0,0.0,9.1669,9.7937,9.9385,0.0,0.0,10.3124,10.2016,10.5701,10.3542,9.82,8.8654,8.126,0.0,0.0,0.0,0.0,0.0,0.0,0.0,0.0,0.0,0.0,0.0,0.0,0.0,0.0,0.0,0.0,0.0,0.0,0.0,0.0,0.0,0.0,0.0,0.0,0.0,0.0,0.0,0.0,0.0,0.0,0.0,0.0,0.0,0.0,0.0,0.0,0.0,0.0,0.0,0.0,0.0,0.0,0.0,0.0,0.0,0.0,0.0,0.0,0.0,0.0,0.0,0.0,7.6016,8.2519,10.2173,11.2621,11.258,11.3882,11.3218,11.0474,10.7532,9.5825,0.0,0.0,0.0,0.0,0.0,0.0,0.0,0.0,0.0,0.0,0.0,0.0,0.0,0.0,0.0,0.0,0.0,0.0,0.0,0.0,0.0,0.0,0.0,0.0,0.0,0.0,0.0,0.0,0.0,0.0,0.0,0.0,0.0,0.0,0.0,0.0,0.0,0.0,0.0,0.0,0.0,8.4435,9.0661,9.2573,9.5489,0.0,9.8702,9.7141,10.1594,10.3584,9.9195,8.2648,0.0,0.0,0.0,0.0,0.0,0.0,0.0,0.0,0.0,0.0,0.0,0.0,0.0,0.0,0.0,0.0,0.0,0.0,0.0,0.0,0.0,0.0,0.0,0.0,0.0,0.0,0.0,0.0,0.0,0.0,0.0,0.0,0.0,0.0,0.0,0.0,0.0,0.0,0.0,0.0,0.0,0.0,0.0,0.0,0.0,0.0,0.0,0.0,0.0,0.0,0.0,0.0,0.0,0.0,8.0931,10.1784,11.2664,11.2504,11.2915,11.2267,11.0408,10.6594,0.0,0.0,0.0,0.0,0.0,0.0,0.0,0.0,0.0,0.0,0.0,0.0,0.0,0.0,0.0,0.0,0.0,0.0,0.0,0.0,0.0,0.0,0.0,0.0,0.0,0.0,0.0,2.3251,0.0,0.0,0.0,0.0,0.0,0.0,0.0,0.0,0.0,0.0,0.0,0.0,0.0,0.0,8.3529,9.0573,8.888,8.8732,0.0,0.0,8.837,9.0651,9.3315,9.165,0.0,0.0,0.0,0.0,0.0,0.0,0.0,0.0,0.0,0.0,0.0,0.0,0.0,0.0,0.0,0.0,0.0,0.0,0.0,0.0,0.0,0.0,0.0,0.0,0.0,0.0,0.0,0.0,0.0,0.0,0.0,0.0,0.0,0.0,0.0,0.0,0.0,0.0,0.0,0.0,0.0,0.0,0.0,0.0,0.0,0.0,0.0,0.0,0.0,0.0,0.0,0.0,0.0,0.0,7.1686,7.9418,9.7216,10.7591,10.9705,11.099,11.0653,10.8584,10.495,9.3757,0.0,0.0,0.0,0.0,0.0,0.0,0.0,0.0,0.0,0.0,0.0,0.0,0.0,0.0,0.0,0.0,0.0,0.0,0.0,0.0,0.0,0.0,0.0,0.0,0.0,0.0,0.0,0.0,0.0,0.0,0.0,0.0,0.0,0.0,0.0,0.0,0.0,0.0,0.0,0.0,0.0,0.0,8.2993,8.0618,0.0,0.0,0.0,8.1543,8.4413,0.0,0.0,0.0,0.0,0.0,0.0,0.0,0.0,0.0,0.0,0.0,0.0,0.0,0.0,0.0,0.0,0.0,0.0,0.0,0.0,0.0,0.0,0.0,0.0,0.0,0.0,0.0,0.0,0.0,0.0,0.0,0.0,0.0,0.0,0.0,0.0,0.0,0.0,0.0,0.0,0.0,0.0,0.0,0.0,0.0,0.0,0.0,0.0,0.0,0.0,0.0,0.0,0.0,0.0,0.0,0.0,0.0,7.7716,9.1828,10.1625,10.6652,10.902,10.8943,10.645,10.3354,9.2836,0.0,0.0,0.0,0.0,0.0,0.0,0.0,0.0,0.0,0.0,0.0,0.0,0.0,0.0,0.0,0.0,0.0,0.0,0.0,0.0,0.0,0.0,0.0,0.0,0.0,0.0,0.0,0.0,0.0,0.0,0.0,0.0,0.0,0.0,0.0,0.0,0.0,0.0,0.0,0.0,0.0,7.4726,7.3616,7.1677,7.1193,0.0,0.0,7.5334,7.937,8.1067,0.0,0.0,0.0,0.0,0.0,0.0,0.0,0.0,0.0,0.0,0.0,0.0,0.0,0.0,0.0,0.0,0.0,0.0,0.0,0.0,0.0,0.0,0.0,0.0,0.0,0.0,0.0,0.0,0.0,0.0,0.0,0.0,0.0,0.0,0.0,0.0,0.0,0.0,0.0,0.0,0.0,0.0,0.0,0.0,0.0,0.0,0.0,0.0,0.0,0.0,0.0,0.0,0.0,0.0,0.0,0.0,7.7746,9.3947,10.5357,11.1046,10.9645,10.8473,10.7794,10.38,9.2836,0.0,0.0,0.0,0.0,0.0,0.0,0.0,0.0,0.0,0.0,0.0,0.0,0.0,0.0,0.0,0.0,0.0,0.0,0.0,0.0,0.0,0.0,0.0,0.0,0.0,0.0,0.0,0.0,0.0,0.0,0.0,0.0,0.0,0.0,0.0,0.0,0.0,0.0,0.0,0.0,0.0,7.1791,7.5945,7.2008,0.0,0.0,0.0,0.0,6.7051,6.6392,0.0,0.0,0.0,0.0,0.0,0.0,0.0,0.0,0.0,0.0,0.0,0.0,0.0,0.0,0.0,0.0,0.0,0.0,0.0,0.0,0.0,0.0,0.0,0.0,0.0,0.0,0.0,0.0,0.0,0.0,0.0,0.0,0.0,0.0,0.0,0.0,0.0,0.0,0.0,0.0,0.0,0.0,0.0,0.0,0.0,0.0,0.0,0.0,0.0,0.0,0.0,0.0,0.0,0.0,0.0,0.0,8.0566,9.2034,10.1868,11.0202,10.9067,10.796,10.7194,10.2945,9.2456,0.0,0.0,0.0,0.0,0.0,0.0,0.0,0.0,0.0,0.0,0.0,0.0,0.0,0.0,0.0,0.0,0.0,0.0,0.0,0.0,0.0,0.0,0.0,0.0,0.0,0.0,0.0,0.0,0.0,0.0,0.0,0.0,0.0,0.0,0.0,0.0,0.0,0.0,0.0,0.0,6.0855,6.5479,7.1114,0.0,0.0,0.0,0.0,0.0,0.0,6.0927,5.9006,0.0,0.0,0.0,0.0,0.0,0.0,0.0,0.0,0.0,0.0,0.0,0.0,0.0,0.0,0.0,0.0,0.0,0.0,0.0,0.0,0.0,0.0,0.0,0.0,0.0,0.0,0.0,0.0,0.0,0.0,0.0,0.0,0.0,0.0,0.0,0.0,0.0,0.0,0.0,0.0,0.0,0.0,0.0,0.0,0.0,0.0,0.0,0.0,0.0,0.0,0.0,0.0,0.0,0.0,0.0,8.1288,8.7938,9.6594,10.7513,10.8354,10.7834,10.6122,10.1848,9.1889,7.5789,0.0,0.0,0.0,0.0,0.0,0.0,0.0,0.0,0.0,0.0,0.0,0.0,0.0,0.0,0.0,0.0,0.0,0.0,0.0,0.0,0.0,0.0,0.0,0.0,0.0,0.0,0.0,0.0,0.0,0.0,0.0,0.0,0.0,0.0,0.0,0.0,0.0,0.0,0.0,5.4734,5.8825,0.0,0.0,0.0,0.0,0.0,0.0,0.0,0.0,5.6596,0.0,0.0,0.0,0.0,0.0,0.0,0.0,0.0,0.0,0.0,0.0,0.0,0.0,0.0,0.0,0.0,0.0,0.0,0.0,0.0,0.0,0.0,0.0,0.0,0.0,0.0,0.0,0.0,0.0,0.0,0.0,0.0,0.0,0.0,0.0,0.0,0.0,0.0,0.0,0.0,0.0,0.0,0.0,0.0,0.0,0.0,0.0,0.0,0.0,0.0,0.0,0.0,0.0,0.0,0.0,0.0,8.2464,9.4922,10.5662,10.8826,10.8929,10.6119,10.1948,9.1047,7.2897,0.0,0.0,0.0,0.0,0.0,0.0,0.0,0.0,0.0,0.0,0.0,0.0,0.0,0.0,0.0,0.0,0.0,0.0,0.0,0.0,0.0,0.0,0.0,0.0,0.0,0.0,0.0,0.0,0.0,0.0,0.0,0.0,0.0,0.0,0.0,0.0,0.0,0.0,3.6673,4.746,0.0,0.0,0.0,0.0,0.0,0.0,0.0,0.0,5.153,0.0,0.0,0.0,0.0,0.0,0.0,0.0,0.0,0.0,0.0,0.0,0.0,0.0,0.0,0.0,0.0,0.0,0.0,0.0,0.0,0.0,0.0,0.0,0.0,0.0,0.0,0.0,0.0,0.0,0.0,0.0,0.0,0.0,0.0,0.0,0.0,0.0,0.0,0.0,0.0,0.0,0.0,0.0,0.0,0.0,0.0,0.0,0.0,0.0,0.0,0.0,0.0,0.0,0.0,0.0,0.0,0.0,0.0,9.2481,10.4143,10.687,10.747,10.589,9.8162,8.6078,0.0,0.0,0.0,0.0,0.0,0.0,0.0,0.0,0.0,0.0,0.0,0.0,0.0,0.0,0.0,0.0,0.0,0.0,0.0,0.0,0.0,0.0,0.0,0.0,0.0,0.0,0.0,0.0,0.0,0.0,0.0,0.0,0.0,0.0,0.0,0.0,0.0,0.0,0.0,0.0,0.0,0.0,0.0,0.0,0.0,0.0,0.0,0.0,0.0,0.0,0.0,0.0,0.0,0.0,0.0,0.0,0.0,0.0,0.0,0.0,0.0,0.0,0.0,0.0,0.0,0.0,0.0,0.0,0.0,0.0,0.0,0.0,0.0,0.0,0.0,0.0,0.0,0.0,0.0,0.0,0.0,0.0,0.0,0.0,0.0,0.0,0.0,0.0,0.0,0.0,0.0,0.0,0.0,0.0,0.0,0.0,0.0,0.0,0.0,0.0,0.0,0.0,0.0,0.0,0.0,0.0,0.0,0.0,8.8699,10.0994,10.4354,10.5758,10.5513,9.2769,7.9281,0.0,0.0,0.0,0.0,0.0,0.0,0.0,0.0,0.0,0.0,0.0,0.0,0.0,0.0,0.0,0.0,0.0,0.0,0.0,0.0,0.0,0.0,0.0,0.0,0.0,0.0,0.0,0.0,0.0,0.0,0.0,0.0,0.0,0.0,0.0,0.0,0.0,0.0,0.0,0.0,0.0,0.0,0.0,0.0,0.0,0.0,0.0,0.0,4.536,0.0,0.0,0.0,0.0,0.0,0.0,0.0,0.0,0.0,0.0,0.0,0.0,0.0,0.0,0.0,0.0,0.0,0.0,0.0,0.0,0.0,0.0,0.0,0.0,0.0,0.0,0.0,0.0,0.0,0.0,0.0,0.0,0.0,0.0,0.0,0.0,0.0,0.0,0.0,0.0,0.0,0.0,0.0,0.0,0.0,0.0,0.0,0.0,0.0,0.0,0.0,0.0,0.0,0.0,0.0,0.0,0.0,0.0,0.0,8.2261,9.4603,10.1983,10.5165,10.3379,8.6279,7.1141,0.0,0.0,0.0,0.0,0.0,0.0,0.0,0.0,0.0,0.0,0.0,0.0,0.0,0.0,0.0,0.0,0.0,0.0,0.0,0.0,0.0,0.0,0.0,0.0,0.0,0.0,0.0,0.0,0.0,0.0,0.0,0.0,0.0,0.0,0.0,0.0,0.0,0.0,0.0,0.0,0.0,0.0,0.0,0.0,0.0,0.0,0.0,0.0,0.0,0.0,0.0,0.0,0.0,0.0,0.0,0.0,0.0,0.0,0.0,0.0,0.0,0.0,0.0,0.0,0.0,0.0,0.0,0.0,0.0,0.0,0.0,0.0,0.0,0.0,0.0,0.0,0.0,0.0,0.0,0.0,0.0,0.0,0.0,0.0,0.0,0.0,0.0,0.0,0.0,0.0,0.0,0.0,0.0,0.0,0.0,0.0,0.0,0.0,0.0,0.0,0.0,0.0,0.0,0.0,0.0,0.0,0.0,0.0,7.3129,8.5534,9.4318,9.6023,8.9975,7.6443,6.4765,0.0,0.0,0.0,0.0,0.0,0.0,0.0,0.0,0.0,0.0,0.0,0.0,0.0,0.0,0.0,0.0,0.0,0.0,0.0,0.0,0.0,0.0,0.0,0.0,0.0,0.0,0.0,0.0,0.0,0.0,0.0,0.0,0.0,0.0,0.0,0.0,0.0,0.0,0.0,0.0,0.0,0.0,0.0,0.0,0.0,0.0,0.0,0.0,0.0,0.0,0.0,0.0,0.0,0.0,0.0,0.0,0.0,0.0,0.0,0.0,0.0,0.0,0.0,0.0,0.0,0.0,0.0,0.0,0.0,0.0,0.0,0.0,0.0,0.0,0.0,0.0,0.0,0.0,0.0,0.0,0.0,0.0,0.0,0.0,0.0,0.0,0.0,0.0,0.0,0.0,0.0,0.0,0.0,0.0,0.0,0.0,0.0,0.0,0.0,0.0,0.0,0.0,0.0,0.0,0.0,0.0,0.0,0.0,0.0,7.5445,8.3663,8.3838,7.534,6.6054,5.7077,0.0,0.0,0.0,0.0,0.0,0.0,0.0,0.0,0.0,0.0,0.0,0.0,0.0,0.0,0.0,0.0,0.0,0.0,0.0,0.0,0.0,0.0,0.0,0.0,0.0,0.0,0.0,0.0,0.0,0.0,0.0,0.0,0.0,0.0,0.0,0.0,0.0,0.0,0.0,0.0,0.0,0.0,0.0,0.0,0.0,0.0,0.0,0.0,0.0,0.0,0.0,0.0,0.0,0.0,0.0,0.0,0.0,0.0,0.0,0.0,0.0,0.0,0.0,0.0,0.0,0.0,0.0,0.0,0.0,0.0,0.0,0.0,0.0,0.0,0.0,0.0,0.0,0.0,0.0,0.0,0.0,0.0,0.0,0.0,0.0,0.0,0.0,0.0,0.0,0.0,0.0,0.0,0.0,0.0,0.0,0.0,0.0,0.0,0.0,0.0,0.0,0.0,0.0,0.0,0.0,0.0,0.0,0.0,0.0,6.4561,6.9741,6.9368,6.2944,5.5554,4.6642,0.0,0.0,0.0,0.0,0.0,0.0,0.0,0.0,0.0,0.0,0.0,0.0,0.0,0.0,0.0,0.0,0.0,0.0,0.0,0.0,0.0,0.0,0.0,0.0,0.0,0.0,0.0,0.0,0.0,0.0,0.0,0.0,0.0,0.0,0.0,0.0,0.0,0.0,0.0,0.0,0.0,0.0,0.0,0.0,0.0,0.0,0.0,0.0,0.0,0.0,0.0,0.0,0.0,0.0,0.0,0.0,0.0,0.0,0.0,0.0,0.0,0.0,0.0,0.0,0.0,0.0,0.0,0.0,0.0,0.0,0.0,0.0,0.0,0.0,0.0,0.0,0.0,0.0,0.0,0.0,0.0,0.0,0.0,0.0,0.0,0.0,0.0,0.0,0.0,0.0,0.0,0.0,0.0,0.0,0.0,0.0,0.0,0.0,0.0,0.0,0.0,0.0,0.0,0.0,0.0,0.0,0.0,0.0,0.0,4.2555,5.1241,5.4587,5.1248,4.4639,3.9476,3.6172,0.0,0.0,0.0,0.0,0.0,0.0,0.0,0.0,0.0,0.0,0.0,0.0,0.0,0.0,0.0,0.0,0.0,0.0,0.0,0.0,0.0,0.0,0.0,0.0,0.0,0.0,0.0,0.0,0.0,0.0,0.0,0.0,0.0,0.0,0.0,0.0,0.0,0.0,0.0,0.0,0.0,0.0,0.0,0.0,0.0,0.0,0.0,0.0,0.0,0.0,0.0,0.0,0.0,0.0,0.0,0.0,0.0,0.0,0.0,0.0,0.0,0.0,0.0,0.0,0.0,0.0,0.0,0.0,0.0,0.0,0.0,0.0,0.0,0.0,0.0,0.0,0.0,0.0,0.0,0.0,0.0,0.0,0.0,0.0,0.0,0.0,0.0,0.0,0.0,0.0,0.0,0.0,0.0,0.0,0.0,0.0,0.0,0.0,0.0,0.0,0.0,0.0,0.0,0.0,0.0,0.0,0.0,0.0,3.1738,4.1522,4.5405,4.2338,3.7703,3.4035,0.0,0.0,0.0,0.0,0.0,0.0,0.0,0.0,0.0,0.0,0.0,0.0,0.0,0.0,0.0,0.0,0.0,0.0,0.0,0.0,0.0,0.0,0.0,0.0,0.0,0.0,0.0,0.0,0.0,0.0,0.0,0.0,0.0,0.0,0.0,0.0,0.0,0.0,0.0,0.0,0.0,0.0,0.0,0.0,0.0,0.0,0.0,0.0,0.0,0.0,0.0,0.0,0.0,0.0,0.0,0.0,0.0,0.0,0.0,0.0,0.0,0.0,0.0,0.0,0.0,0.0,0.0,0.0,0.0,0.0,0.0,0.0,0.0,0.0,0.0,0.0,0.0,0.0,0.0,0.0,0.0,0.0,0.0,0.0,0.0,0.0,0.0,0.0,0.0,0.0,0.0,0.0,0.0,0.0,0.0,0.0,0.0,0.0,0.0,0.0,0.0,0.0,0.0,0.0,0.0,0.0,0.0,0.0,2.5476,3.6226,4.243,4.2609,3.693,3.5614,3.0114,0.0,0.0,0.0,0.0,0.0,0.0,0.0,0.0,0.0,0.0,0.0,0.0,0.0,0.0,0.0,0.0,0.0,0.0,0.0,0.0,0.0,0.0,0.0,0.0,0.0,0.0,0.0,0.0,0.0,0.0,0.0,0.0,0.0,0.0,0.0,0.0,0.0,0.0,0.0,0.0,0.0,0.0,0.0,0.0,0.0,0.0,0.0,0.0,0.0,0.0,0.0,0.0,0.0,0.0,0.0,0.0,0.0,0.0,0.0,0.0,0.0,0.0,0.0,0.0,0.0,0.0,0.0,0.0,0.0,0.0,0.0,0.0,0.0,0.0,0.0,0.0,0.0,0.0,0.0,0.0,0.0,0.0,0.0,0.0,0.0,0.0,0.0,0.0,0.0,0.0,0.0,0.0,0.0,0.0,0.0,0.0,0.0,0.0,0.0,0.0,0.0,0.0,0.0,0.0,0.0,0.0,0.0,0.0,0.0,2.6579,0.0,3.5718,3.8574,3.2512,2.8761,0.0,0.0,0.0,0.0,0.0,0.0,0.0,0.0,0.0,0.0,0.0,0.0,0.0,0.0,0.0,0.0,0.0,0.0,0.0,0.0,0.0,0.0,0.0,0.0,0.0,0.0,0.0,0.0,0.0,0.0,0.0,0.0,0.0,0.0,0.0,0.0,0.0,0.0,0.0,0.0,0.0,0.0,0.0,0.0,0.0,0.0,0.0,0.0,0.0,0.0,0.0,0.0,0.0,0.0,0.0,0.0,0.0,0.0,0.0,0.0,0.0,0.0,0.0,0.0,0.0,0.0,0.0,0.0,0.0,0.0,0.0,0.0,0.0,0.0,0.0,0.0,0.0,0.0,0.0,0.0,0.0,0.0,0.0,0.0,0.0,0.0,0.0,0.0,0.0,0.0,0.0,0.0,0.0,0.0,0.0,0.0,0.0,0.0,0.0,0.0,0.0,0.0,0.0,0.0,0.0,0.0,0.0,0.0,0.0,2.5988,2.8357,3.2499,3.8126,3.2561,2.9825,0.0,0.0,0.0,0.0,0.0,0.0,0.0,0.0,0.0,0.0,0.0,0.0,0.0,0.0,0.0,0.0,0.0,0.0,0.0,0.0,0.0,0.0,0.0,0.0,0.0,0.0,0.0,0.0,0.0,0.0,0.0,0.0,0.0,0.0,0.0,0.0,0.0,0.0,0.0,0.0,0.0,0.0,0.0,0.0,0.0,0.0,0.0,0.0,0.0,0.0,0.0,0.0,0.0,0.0,0.0,0.0,0.0,0.0,0.0,0.0,0.0,0.0,0.0,0.0,0.0,0.0,0.0,0.0,0.0,0.0,0.0,0.0,0.0,0.0,0.0,0.0,0.0,0.0,0.0,0.0,0.0,0.0,0.0,0.0,0.0,0.0,0.0,0.0,0.0,0.0,0.0,0.0,0.0,0.0,0.0,0.0,0.0,0.0,0.0,0.0,0.0,0.0,0.0,0.0,0.0,0.0,0.0,0.0,0.0,3.2936,3.2182,3.2926,3.559,3.5153,3.2906,0.0,0.0,0.0,0.0,0.0,0.0,0.0,0.0,0.0,0.0,0.0,0.0,0.0,0.0,0.0,0.0,0.0,0.0,0.0,0.0,0.0,0.0,0.0,0.0,0.0,0.0,0.0,0.0,0.0,0.0,0.0,0.0,0.0,0.0,0.0,0.0,0.0,0.0,0.0,0.0,0.0,0.0,0.0,0.0,0.0,0.0,0.0,0.0,0.0,0.0,0.0,0.0,0.0,0.0,0.0,0.0,0.0,0.0,0.0,0.0,0.0,0.0,0.0,0.0,0.0,0.0,0.0,0.0,0.0,0.0,0.0,0.0,0.0,0.0,0.0,0.0,0.0,0.0,0.0,0.0,0.0,0.0,0.0,0.0,0.0,0.0,0.0,0.0,0.0,0.0,0.0,0.0,0.0,0.0,0.0,0.0,0.0,0.0,0.0,0.0,0.0,0.0,0.0,0.0,0.0,0.0,0.0,0.0,0.0,0.0,3.0384,3.2212,3.4005,3.2788,3.1383,2.9908,0.0,0.0,0.0,0.0,0.0,0.0,0.0,0.0,0.0,0.0,0.0,0.0,0.0,0.0,0.0,0.0,0.0,0.0,0.0,0.0,0.0,0.0,0.0,0.0,0.0,0.0,0.0,0.0,0.0,0.0,0.0,0.0,0.0,0.0,0.0,0.0,0.0,0.0,0.0,0.0,0.0,0.0,0.0,0.0,0.0,0.0,0.0,0.0,0.0,0.0,0.0,0.0,0.0,0.0,0.0,0.0,0.0,0.0,0.0,0.0,0.0,0.0,0.0,0.0,0.0,0.0,0.0,0.0,0.0,0.0,0.0,0.0,0.0,0.0,0.0,0.0,0.0,0.0,0.0,0.0,0.0,0.0,0.0,0.0,0.0,0.0,0.0,0.0,0.0,0.0,0.0,0.0,0.0,0.0,0.0,0.0,0.0,0.0,0.0,0.0,0.0,0.0,0.0,0.0,0.0,0.0,0.0,0.0,0.0,0.0,3.1272,3.3393,3.2468,3.1749,0.0,0.0,0.0,0.0,0.0,0.0,0.0,0.0,0.0,0.0,0.0,0.0,0.0,0.0,0.0,0.0,0.0,0.0,0.0,0.0,0.0,0.0,0.0,0.0,0.0,0.0,0.0,0.0,0.0,0.0,0.0,0.0,0.0,0.0,0.0,0.0,0.0,0.0,0.0,0.0,0.0,0.0,0.0,0.0,0.0,0.0,0.0,0.0,0.0,0.0,0.0,0.0,0.0,0.0,0.0,0.0,0.0,0.0,0.0,0.0,0.0,0.0,0.0,0.0,0.0,0.0,0.0,0.0,0.0,0.0,0.0,0.0,0.0,0.0,0.0,0.0,0.0,0.0,0.0,0.0,0.0,0.0,0.0,0.0,0.0,0.0,0.0,0.0,0.0,0.0,0.0,0.0,0.0,0.0,0.0,0.0,0.0,0.0,0.0,0.0,0.0,0.0,0.0,0.0,0.0,0.0,0.0,0.0,0.0,0.0,0.0,3.059,3.2805,3.3384,0.0,3.228,0.0,0.0,0.0,0.0,0.0,0.0,0.0,0.0,0.0,0.0,0.0,0.0,0.0,0.0,0.0,0.0,0.0,0.0,0.0,0.0,0.0,0.0,0.0,0.0,0.0,0.0,0.0,0.0,0.0,0.0,0.0,0.0,0.0,0.0,0.0,0.0,0.0,0.0,0.0,0.0,0.0,0.0,0.0,0.0,0.0,0.0,0.0,0.0,0.0,0.0,0.0,0.0,0.0,0.0,0.0,0.0,0.0,0.0,0.0,0.0,0.0,0.0,0.0,0.0,0.0,0.0,0.0,0.0,0.0,0.0,0.0,0.0,0.0,0.0,0.0,0.0,0.0,0.0,0.0,0.0,0.0,0.0,0.0,0.0,0.0,0.0,0.0,0.0,0.0,0.0,0.0,0.0,0.0,0.0,0.0,0.0,0.0,0.0,0.0,0.0,0.0,0.0,0.0,0.0,0.0,0.0,0.0,0.0,0.0,0.0,0.0,0.0,3.4228,3.379,2.8059,0.0,0.0,0.0,0.0,0.0,0.0,0.0,0.0,0.0,0.0,0.0,0.0,0.0,0.0,0.0,0.0,0.0,0.0,0.0,0.0,0.0,0.0,0.0,0.0,0.0,0.0,0.0,0.0,0.0,0.0,0.0,0.0,0.0,0.0,0.0,0.0,0.0,0.0,0.0,0.0,0.0,0.0,0.0,0.0,0.0,0.0,0.0,0.0,0.0,0.0,0.0,0.0,0.0,0.0,0.0,0.0,0.0,0.0,0.0,0.0,0.0,0.0,0.0,0.0,0.0,0.0,0.0,0.0,0.0,0.0,0.0,0.0,0.0,0.0,0.0,0.0,0.0,0.0,0.0,0.0,0.0,0.0,0.0,0.0,0.0,0.0,0.0,0.0,0.0,0.0,0.0,0.0,0.0,0.0,0.0,0.0,0.0,0.0,0.0,0.0,0.0,0.0,0.0,0.0,0.0,0.0,0.0,0.0,0.0,0.0,3.2358,2.9269,3.2853,3.2165,2.6536,0.0,0.0,0.0,0.0,0.0,0.0,0.0,0.0,0.0,0.0,0.0,0.0,0.0,0.0,0.0,0.0,0.0,0.0,0.0,0.0,0.0,0.0,0.0,0.0,0.0,0.0,0.0,0.0,0.0,0.0,0.0,0.0,0.0,0.0,0.0,0.0,0.0,0.0,0.0,0.0,0.0,0.0,0.0,0.0,0.0,0.0,0.0,0.0,0.0,0.0,0.0,0.0,0.0,0.0,0.0,0.0,0.0,0.0,0.0,0.0,0.0,0.0,0.0,0.0,0.0,0.0,0.0,0.0,0.0,0.0,0.0,0.0,0.0,0.0,0.0,0.0,0.0,0.0,0.0,0.0,0.0,0.0,0.0,0.0,0.0,0.0,0.0,0.0,0.0,0.0,0.0,0.0,0.0,0.0,0.0,0.0,0.0,0.0,0.0,0.0,0.0,0.0,0.0,0.0,0.0,0.0,0.0,0.0,0.0,0.0,3.2558,0.0,0.0,0.0,2.6752,0.0,0.0,0.0,0.0,0.0,0.0,0.0,0.0,0.0,0.0,0.0,0.0,0.0,0.0,0.0,0.0,0.0,0.0,0.0,0.0,0.0,0.0,0.0,0.0,0.0,0.0,0.0,0.0,0.0,0.0,0.0,0.0,0.0,0.0,0.0,0.0,0.0,0.0,0.0,0.0,0.0,0.0,0.0,0.0,0.0,0.0,0.0,0.0,0.0,0.0,0.0,0.0,0.0,0.0,0.0,0.0,0.0,0.0,0.0,0.0,0.0,0.0,0.0,0.0,0.0,0.0,0.0,0.0,0.0,0.0,0.0,0.0,0.0,0.0,0.0,0.0,0.0,0.0,0.0,0.0,0.0,0.0,0.0,0.0,0.0,0.0,0.0,0.0,0.0,0.0,0.0,0.0,0.0,0.0,0.0,0.0,0.0,0.0,0.0,0.0,0.0,0.0,0.0,0.0,0.0,0.0,0.0,0.0,0.0,0.0,0.0,0.0,0.0,0.0,0.0,0.0,0.0,0.0,0.0,0.0,0.0,0.0,0.0,0.0,0.0,0.0,0.0,0.0,0.0,0.0,0.0,0.0,0.0,0.0,0.0,0.0,0.0,0.0,0.0,0.0,0.0,0.0,0.0,0.0,0.0,0.0,0.0,0.0,0.0,0.0,0.0,0.0,0.0,0.0,0.0,0.0,0.0,0.0,0.0,0.0,0.0,0.0,0.0,0.0,0.0,0.0,0.0,0.0,0.0,0.0,0.0,0.0,0.0,0.0,0.0,0.0,0.0,0.0,0.0,0.0,0.0,0.0,0.0,0.0,0.0,0.0,0.0,0.0,0.0,0.0,0.0,0.0,0.0,0.0,0.0,0.0,0.0,0.0,0.0,0.0,0.0,0.0,0.0,0.0,0.0,0.0,0.0,0.0,0.0,0.0,0.0,0.0,0.0,0.0,0.0,0.0,0.0,0.0,0.0,0.0,0.0,0.0,0.0,0.0,0.0,0.0,0.0,0.0,0.0,0.0,0.0,0.0,0.0,0.0,0.0,0.0,0.0,0.0,0.0,0.0,0.0,0.0,0.0,0.0,0.0,0.0,0.0,0.0,0.0,0.0,0.0,0.0,0.0,0.0,0.0,0.0,0.0,0.0,0.0,0.0,0.0,0.0,0.0,0.0,0.0,0.0,0.0,0.0,0.0,0.0,0.0,0.0,0.0,0.0,0.0,0.0,0.0,0.0,0.0,0.0,0.0,0.0,0.0,0.0,0.0,0.0,0.0,0.0,0.0,0.0,0.0,0.0,0.0,0.0,0.0,0.0,0.0,0.0,0.0,0.0,0.0,0.0,0.0,0.0,0.0,0.0,0.0,0.0,0.0,0.0,0.0,0.0,0.0,0.0,0.0,0.0,0.0,0.0,0.0,0.0,0.0,0.0,0.0,0.0,0.0,0.0,0.0,0.0,0.0,0.0,0.0,0.0,0.0,0.0,0.0,0.0,0.0,0.0,0.0,0.0,0.0,0.0,0.0,0.0,0.0,0.0,0.0,0.0,0.0,0.0,0.0,0.0,0.0,0.0,0.0,0.0,0.0,0.0,0.0,0.0,0.0,0.0,0.0,0.0,0.0,0.0,0.0,0.0,0.0,0.0,0.0,0.0,0.0,0.0,0.0,0.0,0.0,0.0,0.0,0.0,0.0,0.0,0.0,0.0,0.0,0.0,0.0,0.0,0.0,0.0,0.0,0.0,0.0,0.0,0.0,0.0,0.0,0.0,0.0,0.0,0.0,0.0,0.0,0.0,0.0,0.0,0.0,0.0,0.0,0.0,0.0,0.0,0.0,0.0,0.0,0.0,0.0,0.0,0.0,0.0,0.0,0.0,0.0,0.0,0.0,0.0,0.0,0.0,0.0,0.0,0.0,0.0,0.0,0.0,0.0,0.0,0.0,0.0,0.0,0.0,0.0,0.0,0.0,0.0,0.0,0.0,0.0,0.0,0.0,0.0,0.0,0.0,0.0,0.0,0.0,0.0,0.0,0.0,0.0,0.0,0.0,0.0,0.0,0.0,0.0,0.0,0.0,0.0,0.0,0.0,0.0,0.0,0.0,0.0,0.0,0.0,0.0,0.0,0.0,0.0,0.0,0.0,0.0,0.0,0.0,0.0,0.0,0.0,0.0,0.0,0.0,0.0,0.0,0.0,0.0,0.0,0.0,0.0,0.0,0.0,0.0,0.0,0.0,0.0,0.0,0.0,0.0,0.0,0.0,0.0,0.0,0.0,0.0,0.0,0.0,0.0,0.0,0.0,0.0,0.0,0.0,0.0,0.0,0.0,0.0,0.0,0.0,0.0,0.0,0.0,0.0,0.0,0.0,0.0,0.0,0.0,0.0,0.0,0.0,0.0,0.0,0.0,0.0,0.0,0.0,0.0,0.0,0.0,0.0,0.0,0.0,0.0,0.0,0.0,0.0,0.0,0.0,0.0,0.0,0.0,0.0,0.0,0.0,0.0,0.0,0.0,0.0,0.0,0.0,0.0,0.0,0.0,0.0,0.0,0.0,0.0,0.0,0.0,0.0,0.0,0.0,0.0,0.0,0.0,0.0,0.0,0.0,0.0,0.0,0.0,0.0,0.0,0.0,0.0,0.0,0.0,0.0,0.0,0.0,0.0,0.0,0.0,0.0,0.0,0.0,0.0,0.0,0.0,0.0,0.0,0.0,0.0,0.0,0.0,0.0,0.0,0.0,0.0,0.0,0.0,0.0,0.0,0.0,0.0,0.0,0.0,0.0,0.0,0.0,0.0,0.0,0.0,0.0,0.0,0.0,0.0,0.0,0.0,0.0,0.0,0.0,0.0,0.0,0.0,0.0,0.0,0.0,0.0,0.0,0.0,0.0,0.0,0.0,0.0,0.0,0.0,0.0,0.0,0.0,0.0,0.0,0.0,0.0,0.0,0.0,0.0,0.0,0.0,0.0,0.0,0.0,0.0,0.0,0.0,0.0,0.0,0.0,0.0,0.0,0.0,0.0,0.0,0.0,0.0,0.0,0.0,0.0,0.0,0.0,0.0,0.0,0.0,0.0,0.0,0.0,0.0,0.0,0.0,0.0,0.0,0.0,0.0,0.0,0.0,0.0,0.0,0.0,0.0,0.0,0.0,0.0,0.0,0.0,0.0,0.0,0.0,0.0,0.0,0.0,0.0,0.0,0.0,0.0,0.0,0.0,0.0,0.0,0.0,0.0,0.0,0.0,0.0,0.0,0.0,0.0,0.0,0.0,0.0,0.0,0.0,0.0,0.0,0.0,0.0,0.0,0.0,0.0,0.0,0.0,0.0,0.0,0.0,0.0,0.0,0.0,0.0,0.0,0.0,0.0,0.0,0.0,0.0,0.0,0.0,0.0,0.0,0.0,0.0,0.0,0.0,0.0,0.0,0.0,0.0,0.0,0.0,0.0,0.0,0.0,0.0,0.0,0.0,0.0,0.0,0.0,0.0,0.0,0.0,0.0,0.0,0.0,0.0,0.0,0.0,0.0,0.0,0.0,0.0,0.0,0.0,0.0,0.0,0.0,0.0,0.0,0.0,0.0,0.0,0.0,0.0,0.0,0.0,0.0,0.0,0.0,0.0,0.0,0.0,0.0,0.0,0.0,0.0,0.0,0.0,0.0,0.0,0.0,0.0,0.0,0.0,0.0,0.0,0.0,0.0,0.0,0.0,0.0,0.0,0.0,0.0,0.0,0.0,0.0,0.0,0.0,0.0,0.0,0.0,0.0,0.0,0.0,0.0,0.0,0.0,0.0,0.0,0.0,0.0,0.0,0.0,0.0,0.0,0.0,0.0,0.0,0.0,0.0,0.0,0.0,0.0,0.0,0.0,0.0,0.0,0.0,0.0,0.0,0.0,0.0,0.0,0.0,0.0,0.0,0.0,0.0,0.0,0.0,0.0,0.0,0.0,0.0,0.0,0.0,0.0,0.0,0.0,0.0,0.0,0.0,0.0,0.0,0.0,0.0,0.0,0.0,0.0,0.0,0.0,0.0,0.0,0.0,0.0,0.0,0.0,0.0,0.0,0.0,0.0,0.0,0.0,0.0,0.0,0.0,0.0,0.0,0.0,0.0,0.0,0.0,0.0,0.0,0.0,0.0,0.0,0.0,0.0,0.0,0.0,0.0,0.0,0.0,0.0,0.0,0.0,0.0,0.0,0.0,0.0,0.0,0.0,0.0,0.0,0.0,0.0,0.0,0.0,0.0,0.0,0.0,0.0,0.0,0.0,0.0,0.0,0.0,0.0,0.0,0.0,0.0,0.0,0.0,0.0,0.0,0.0,0.0,0.0,0.0,0.0,0.0,0.0,0.0,0.0,0.0,0.0,0.0,0.0,0.0,0.0]}],[{"header":{"parameterUnit":"kt","parameterCategory":2,"dx":1,"dy":1,"la1":29.587661999999998,"la2":31.0,"lo1":-88.76705300000003,"lo2":-86.6583820000003,"nx":115,"ny":88,"refTime":"2022-10-13T12:00:00:Z","depth":0,"parameterNumber":2,"parameterNumberName":"V-component_of_WINDS"},"data":[9.6622,9.6395,9.6395,9.6395,9.6444,9.6671,9.7176,9.812,9.9372,10.0446,10.1292,10.2234,10.282,10.282,10.282,10.282,10.282,10.282,10.282,10.282,10.282,10.282,10.282,10.282,10.282,10.282,10.2722,10.2332,10.2121,10.069,9.9746,9.9746,9.9746,9.9812,10.0739,10.178,10.2381,10.2478,10.2478,10.282,10.282,10.282,10.282,10.282,10.282,10.2316,10.152,10.043,9.9324,9.825,9.7371,9.6834,9.659,9.659,9.6542,9.6395,9.6395,9.6395,9.6395,9.6395,9.4914,9.5073,9.5939,9.4464,9.0905,9.1344,8.6784,8.1313,8.0394,7.8471,7.7854,7.625,7.5792,7.6563,7.6879,7.5686,7.5018,7.5018,7.5018,7.5018,7.5167,7.5324,7.5366,7.5554,7.5663,7.6347,7.6387,7.6121,7.6463,7.7241,7.8136,7.8778,7.9574,8.0077,8.0054,7.9006,7.8668,7.8666,7.859,7.8476,7.8286,7.8019,7.8018,7.8435,7.8616,7.838,7.7562,7.6342,7.6635,7.6926,7.7451,7.7903,7.8053,7.8356,7.8701,9.7193,9.6444,9.6395,9.6444,9.6542,9.734,9.7876,9.8364,10.0121,10.1178,10.152,10.2381,10.2771,10.282,10.282,10.282,10.282,10.282,10.282,10.282,10.282,10.282,10.282,10.282,10.282,10.282,10.282,10.2576,10.2024,10.0641,9.96,9.947,9.8982,9.8315,9.895,10.017,10.1585,10.1828,10.2381,10.2722,10.282,10.282,10.282,10.282,10.282,10.2722,10.2072,10.1081,9.9893,9.8721,9.7469,9.6737,9.6395,9.6395,9.6395,9.6395,9.6395,9.6395,9.6238,9.605,9.42,9.3195,9.5441,9.295,8.6288,8.302,7.8998,7.6341,7.6303,7.5686,7.5722,7.5195,7.5195,7.5477,7.5477,7.5088,7.5018,7.5018,7.5018,7.5018,7.5395,7.5889,7.6007,7.6197,7.6804,7.7755,7.7945,7.7602,7.7522,7.8231,7.8869,7.9589,8.0086,8.0098,8.0105,7.969,7.9538,7.95,7.9386,7.9614,7.9613,7.8927,7.8698,7.9155,7.893,7.8548,7.7838,7.7579,7.7462,7.764,7.8207,7.8776,7.8927,7.9155,7.9537,9.7681,9.7225,9.6688,9.6737,9.7322,9.773,9.8706,9.9828,10.0837,10.1618,10.217,10.2576,10.282,10.282,10.282,10.282,10.282,10.282,10.282,10.282,10.282,10.282,10.282,10.282,10.282,10.282,10.2771,10.2121,10.0934,9.9942,9.8916,9.7891,9.8169,9.812,9.8396,10.0023,10.1292,10.1292,10.2365,10.2722,10.282,10.282,10.282,10.282,10.2673,10.2365,10.1764,10.069,9.9519,9.8396,9.7322,9.6542,9.6395,9.6176,9.6238,9.6081,9.5956,9.6364,9.5719,9.4486,9.2432,8.9059,8.9145,8.7205,8.1056,7.9342,7.5341,7.5063,7.505,7.5018,7.5018,7.5018,7.5018,7.5018,7.5018,7.5018,7.5018,7.5018,7.5018,7.5018,7.5243,7.5699,7.5967,7.6121,7.6425,7.7336,7.726,7.6691,7.8013,7.9033,7.9563,8.0058,8.0102,8.0106,8.0107,8.0107,8.0107,8.0107,7.9917,7.9955,7.9879,7.9497,7.9343,7.9574,7.95,7.9007,7.9045,7.9085,7.9006,7.8626,7.9043,7.9537,7.9764,7.9878,7.9917,9.843,9.7908,9.7096,9.7193,9.8006,9.8267,9.9486,10.1227,10.152,10.2121,10.2756,10.282,10.282,10.282,10.282,10.282,10.282,10.282,10.282,10.282,10.282,10.282,10.282,10.282,10.282,10.282,10.2625,10.217,10.1129,10.0007,9.8819,9.7225,9.703,9.7437,9.7615,9.9047,10.0365,10.0739,10.1438,10.178,10.217,10.2381,10.2673,10.282,10.2722,10.2316,10.1374,10.03,9.9177,9.8055,9.6981,9.6493,9.627,9.5404,9.4724,9.3994,9.2974,9.275,9.2205,9.0821,8.8853,8.5705,8.2001,7.9178,7.7251,7.5885,7.5121,7.505,7.5018,7.5018,7.5018,7.5018,7.5018,7.5018,7.5018,7.5018,7.5018,7.5018,7.5018,7.5018,7.5018,7.5283,7.5625,7.5853,7.5969,7.6311,7.6691,7.7107,7.8583,7.9495,8.0027,8.0065,8.0107,8.0107,8.0107,8.0107,8.0107,8.0107,8.0107,8.0107,8.0107,7.9841,7.9726,7.9955,8.0107,7.9841,7.9727,7.9993,7.9993,7.9765,7.9917,7.9841,8.0031,8.0069,8.0069,9.9828,9.8023,9.7876,9.7925,9.812,9.9128,10.0284,10.1325,10.2234,10.2722,10.2771,10.282,10.282,10.282,10.282,10.282,10.282,10.282,10.282,10.282,10.282,10.282,10.282,10.282,10.282,10.282,10.2722,10.2527,10.1926,10.0593,9.9063,9.7925,9.7127,9.6786,9.6981,9.8169,9.9096,9.9714,10.0105,10.0739,10.1276,10.1569,10.1828,10.2576,10.2576,10.2219,10.1227,10.0251,9.9161,9.8055,9.7127,9.6493,9.5452,9.4105,9.0459,8.8944,8.834,8.8274,8.8044,8.6942,8.4841,8.1702,7.7491,7.6282,7.5969,7.5263,7.5088,7.5053,7.5018,7.5018,7.5018,7.5018,7.5018,7.5018,7.5018,7.5018,7.5018,7.5018,7.5018,7.5018,7.5131,7.5587,7.5817,7.5777,7.5931,7.8132,7.874,7.836,7.9194,7.9841,8.0106,8.0069,8.0107,8.0107,8.0107,8.0107,8.0107,8.0107,8.0107,8.0107,8.0107,8.0107,8.0107,8.0107,8.0107,8.0107,8.0107,8.0031,8.0031,8.0107,8.0107,8.0107,8.0107,8.0107,8.0107,10.0739,9.9779,9.8591,9.8364,9.9128,10.0202,10.1276,10.217,10.2625,10.282,10.282,10.282,10.282,10.282,10.282,10.282,10.282,10.282,10.282,10.282,10.282,10.282,10.282,10.282,10.282,10.282,10.282,10.2771,10.2219,10.0739,9.8672,9.7193,9.6737,9.6444,9.6688,9.7291,9.8169,9.8494,9.8933,9.9812,10.0349,10.0739,10.1585,10.2283,10.199,10.1292,10.0381,10.0056,9.8689,9.7176,9.6834,9.6364,9.583,9.4885,9.2051,8.6321,8.5243,8.5009,8.4606,8.357,8.194,7.9871,7.722,7.5552,7.5045,7.5018,7.5018,7.5018,7.5018,7.5018,7.5018,7.5018,7.5018,7.5018,7.5018,7.5018,7.5018,7.5018,7.5018,7.5018,7.5321,7.5741,7.6007,7.5855,7.6537,7.836,7.9082,7.8969,7.95,7.9993,8.0107,8.0107,8.0107,8.0107,8.0107,8.0107,8.0107,8.0107,8.0107,8.0107,8.0107,8.0107,8.0107,8.0107,8.0107,8.0107,8.0107,8.0107,8.0107,8.0107,8.0107,8.0107,8.0107,8.0107,8.0107,10.1536,10.1048,9.9275,9.8933,9.9795,10.0837,10.1828,10.2771,10.282,10.282,10.282,10.282,10.282,10.282,10.282,10.282,10.282,10.282,10.282,10.282,10.282,10.282,10.282,10.282,10.282,10.282,10.2771,10.2658,10.2024,10.069,9.8575,9.6737,9.6493,9.6444,9.6639,9.7127,9.7371,9.7567,9.7567,9.8543,9.9421,9.947,10.0316,10.1243,10.1341,10.056,9.9812,9.947,9.8543,9.6932,9.6493,9.5372,9.5008,9.352,9.1205,8.4961,8.3164,8.2723,8.2213,8.02,7.8615,7.7779,7.6415,7.5195,7.5018,7.5018,7.5018,7.5018,7.5018,7.5018,7.5018,7.5018,7.5018,7.5018,7.5018,7.5018,7.5018,7.5018,7.5018,7.5018,7.5018,7.5587,7.6539,7.6501,7.6766,7.8209,7.9083,7.9348,7.969,7.9955,8.0107,8.0107,8.0107,8.0107,8.0107,8.0107,8.0107,8.0107,8.0107,8.0107,8.0107,8.0107,8.0107,8.0107,8.0107,8.0107,8.0107,8.0107,8.0107,8.0107,8.0107,8.0107,8.0107,8.0107,8.0107,10.2137,10.1178,10.0105,9.9746,9.9909,10.0476,10.1696,10.2771,10.282,10.282,10.282,10.282,10.282,10.282,10.282,10.282,10.282,10.282,10.282,10.282,10.282,10.282,10.282,10.282,10.282,10.282,10.2576,10.2121,10.1325,9.9958,9.8445,9.6981,9.6542,9.6395,9.6395,9.659,9.6688,9.6786,9.6803,9.7567,9.8364,9.8267,9.8982,9.9958,10.0446,9.9714,9.9177,9.8836,9.8103,9.6986,9.597,9.3994,9.1338,8.7945,8.4414,8.0846,7.7575,7.6984,7.6633,7.6914,7.5933,7.6141,7.5301,7.5159,7.5018,7.5018,7.5018,7.5018,7.5018,7.5018,7.5018,7.5018,7.5018,7.5018,7.5018,7.5018,7.5018,7.5018,7.5018,7.5018,7.5018,7.5701,7.6765,7.7146,7.7259,7.8551,7.9462,7.9652,7.9841,8.0069,8.0107,8.0107,8.0107,8.0107,8.0107,8.0107,8.0107,8.0107,8.0107,8.0107,8.0107,8.0107,8.0107,8.0107,8.0107,8.0107,8.0107,8.0107,8.0107,8.0107,8.0107,8.0107,8.0107,8.0107,8.0107,10.0382,10.2104,10.1178,10.1097,10.1302,9.8672,9.9651,10.2473,10.282,10.282,10.282,10.282,10.282,10.282,10.282,10.282,10.282,10.282,10.282,10.282,10.282,10.282,10.282,10.282,10.282,10.2576,10.2219,10.1715,10.1129,9.947,9.8201,9.7322,9.6786,9.6493,9.6395,9.6395,9.6395,9.6395,9.6493,9.6883,9.7388,9.7584,9.7859,9.8982,9.9275,9.8852,9.8315,9.8103,9.7908,9.5854,9.3819,9.1317,8.861,8.469,7.9576,7.9314,7.7264,7.5371,7.5018,7.5018,7.5018,7.5018,7.5053,7.5018,7.5018,7.5018,7.5018,7.5018,7.5018,7.5018,7.5018,7.5018,7.5018,7.5018,7.5018,7.5018,7.5018,7.5018,7.5018,7.5018,7.5169,7.6157,7.7069,7.7259,7.7676,7.8778,7.9803,7.9879,7.9993,8.0031,8.0107,8.0107,8.0107,8.0107,8.0107,8.0107,8.0107,8.0107,8.0107,8.0107,8.0107,8.0107,8.0107,8.0107,8.0107,8.0107,8.0107,8.0107,8.0107,8.0107,8.0107,8.0107,8.0107,8.0107,8.0107,9.6667,9.8833,9.7832,9.802,9.8398,9.5369,9.6641,10.0424,10.1027,10.1649,10.2619,10.282,10.282,10.282,10.282,10.282,10.282,10.282,10.282,10.282,10.282,10.282,10.282,10.282,10.282,10.2527,10.178,10.1227,10.0772,9.908,9.8023,9.7388,9.6688,9.6444,9.6395,9.6395,9.6395,9.6395,9.6493,9.6688,9.7242,9.6852,9.7078,9.8331,9.825,9.7908,9.7437,9.7876,9.7518,9.6116,9.2007,8.9598,8.7303,8.0967,7.6694,7.706,7.6949,7.5053,7.5018,7.5018,7.5018,7.5018,7.5018,7.5018,7.5018,7.5018,7.5018,7.5018,7.5018,7.5018,7.5018,7.5018,7.5018,7.5018,7.5018,7.5018,7.5018,7.5018,7.5018,7.5018,7.5018,7.5853,7.6537,7.6651,7.798,7.9234,7.9841,8.0031,8.0031,8.0069,8.0107,8.0107,8.0107,8.0107,8.0107,8.0107,8.0107,8.0107,8.0107,8.0107,8.0107,8.0107,8.0107,8.0107,8.0107,8.0107,8.0107,8.0107,8.0107,8.0107,8.0107,8.0107,8.0107,8.0107,8.0107,9.1416,9.1215,9.067,9.0765,9.1551,9.1238,9.3435,9.684,9.7577,9.9623,10.2652,10.282,10.282,10.282,10.282,10.282,10.282,10.282,10.282,10.282,10.282,10.282,10.282,10.282,10.282,10.2576,10.1585,10.0544,9.9844,9.8347,9.742,9.6737,9.6542,9.6395,9.6395,9.6395,9.6395,9.6395,9.6395,9.6444,9.6559,9.6542,9.6444,9.7127,9.7371,9.7322,9.703,9.7291,9.6638,9.4883,9.0853,8.7686,8.5424,7.8547,7.5644,7.568,7.5227,7.5053,7.5018,7.5018,7.5018,7.5018,7.5018,7.5018,7.5018,7.5018,7.5018,7.5018,7.5018,7.5018,7.5018,7.5018,7.5018,7.5018,7.5018,7.5018,7.5018,7.5018,7.5018,7.5018,7.5018,7.5131,7.5701,7.6575,7.8208,7.9158,7.9803,8.0107,8.0069,8.0107,8.0107,8.0107,8.0107,8.0107,8.0107,8.0107,8.0107,8.0107,8.0107,8.0107,8.0107,8.0107,8.0107,8.0107,8.0107,8.0107,8.0107,8.0107,8.0107,8.0107,8.0107,8.0145,8.0107,8.0107,8.0107,8.8908,9.1274,9.1005,8.9629,8.7496,8.7392,8.9599,9.3197,9.5754,9.9303,10.2753,10.282,10.282,10.282,10.282,10.282,10.282,10.282,10.282,10.282,10.282,10.282,10.282,10.282,10.2771,10.2381,10.1276,10.0186,9.96,9.7762,9.6883,9.6542,9.6395,9.6395,9.6395,9.6395,9.6395,9.6395,9.6395,9.6395,9.6395,9.6395,9.6395,9.6542,9.6737,9.6688,9.6688,9.6594,9.571,9.2637,8.9221,8.5524,8.1672,7.8172,7.5597,7.508,7.5053,7.5053,7.5018,7.5018,7.5018,7.5018,7.5018,7.5018,7.5018,7.5018,7.5018,7.5018,7.5018,7.5018,7.5018,7.5018,7.5018,7.5018,7.5018,7.5018,7.5018,7.5018,7.5018,7.5018,7.5018,7.5056,7.5701,7.6537,7.7754,7.8323,7.9272,8.0107,8.0107,8.0107,8.0107,8.0107,8.0107,8.0107,8.0107,8.0107,8.0107,8.0107,8.0107,8.0107,8.0107,8.0107,8.0107,8.0183,8.0183,8.0145,8.0108,8.0107,8.0108,8.0107,8.0183,8.0259,8.0221,8.007,8.007,8.4911,8.6997,8.6997,8.5684,8.3546,8.3583,8.5716,8.9311,9.1737,9.4883,9.8311,10.0079,10.1413,10.2503,10.282,10.282,10.282,10.282,10.282,10.282,10.282,10.282,10.282,10.282,10.2771,10.2365,10.0788,9.9698,9.9454,9.7567,9.6688,9.6395,9.6395,9.6395,9.6395,9.6395,9.6395,9.6395,9.6395,9.6395,9.6395,9.6395,9.6395,9.6395,9.6395,9.6395,9.6395,9.6395,9.42,9.1241,8.7801,8.4303,8.0668,7.7116,7.526,7.5053,7.5018,7.5018,7.5018,7.5018,7.5018,7.5018,7.5018,7.5018,7.5018,7.5018,7.5018,7.5018,7.5018,7.5018,7.5018,7.5018,7.5018,7.5018,7.5018,7.5018,7.5018,7.5018,7.5018,7.5018,7.5018,7.5018,7.5739,7.6463,7.7032,7.7602,7.9006,8.0107,8.0107,8.0107,8.0107,8.0107,8.0107,8.0107,8.0107,8.0107,8.0107,8.0107,8.0107,8.0107,8.0107,8.0145,8.0411,8.0373,8.0411,8.0525,8.0487,8.0258,8.022,8.0335,8.0411,8.0259,8.0183,8.007,8.06,8.0107,8.0107,8.0258,8.0409,8.0334,8.0031,8.2094,8.5312,8.5695,8.8191,9.1835,9.4967,9.8671,10.1345,10.1798,10.2101,10.282,10.282,10.282,10.282,10.282,10.282,10.282,10.282,10.2771,10.2463,10.1032,10.0039,9.9258,9.7664,9.6786,9.6395,9.6395,9.6395,9.6395,9.6395,9.6395,9.6395,9.6395,9.6395,9.6395,9.6395,9.6395,9.6395,9.6144,9.6207,9.6395,9.5025,9.3006,9.1112,8.6876,8.2953,8.0262,7.6984,7.523,7.5018,7.5018,7.5018,7.5018,7.5018,7.5018,7.5018,7.5018,7.5018,7.5018,7.5018,7.5018,7.5018,7.5018,7.5018,7.5018,7.5018,7.5018,7.5018,7.5018,7.5018,7.5018,7.5018,7.5018,7.5018,7.5018,7.5018,7.5549,7.6309,7.688,7.7146,7.8398,7.95,7.9576,7.9955,7.9993,8.0107,8.0107,8.0107,8.0107,8.0108,8.007,8.0108,8.0373,8.0373,8.0449,8.0601,8.0943,8.1133,8.1745,8.1324,8.1057,8.1514,8.1628,8.1057,8.0257,7.9637,7.9405,7.8789,7.9426,8.0107,8.0107,8.0107,8.0107,8.0031,7.9348,8.006,8.1676,8.307,8.5034,8.7579,9.0543,9.4424,9.7781,9.8654,10.0031,10.2552,10.282,10.282,10.282,10.282,10.282,10.282,10.282,10.282,10.2771,10.1325,10.0446,9.9519,9.8347,9.7176,9.6444,9.6395,9.6395,9.6395,9.6395,9.6395,9.6395,9.6395,9.6395,9.6395,9.6395,9.6395,9.5624,9.4296,9.3612,9.5057,9.2237,9.0529,8.882,8.5133,8.1633,7.9786,7.6879,7.523,7.5018,7.5018,7.5018,7.5018,7.5018,7.5018,7.5018,7.5018,7.5018,7.5018,7.5018,7.5018,7.5018,7.5018,7.5018,7.5018,7.5018,7.5018,7.5018,7.5018,7.5018,7.5018,7.5018,7.5018,7.5018,7.5018,7.5018,7.5359,7.6119,7.6577,7.6804,7.7566,7.863,7.9235,7.969,7.9955,8.0259,8.0221,8.0108,8.0146,8.0183,8.0107,8.0182,8.0714,8.098,8.1397,8.1587,8.1702,8.247,8.3356,8.297,8.2196,8.2814,8.3277,8.1927,8.0618,7.9527,7.8123,7.7093,7.6595,7.9727,8.0107,8.0107,8.0107,7.9955,7.9083,7.9007,7.9606,8.0439,8.1504,8.3149,8.6233,8.9307,9.1995,9.4182,9.6737,9.9725,10.0248,10.1109,10.2403,10.282,10.282,10.2619,10.2786,10.282,10.2576,10.178,10.0526,9.986,9.8884,9.7859,9.6719,9.6395,9.6395,9.6395,9.6395,9.6395,9.6395,9.6395,9.6395,9.6395,9.6395,9.6395,9.6301,9.4549,9.3771,9.3325,8.9442,8.8295,8.4865,8.3215,7.9751,7.7854,7.6352,7.5018,7.5018,7.5018,7.5018,7.5018,7.5018,7.5018,7.5018,7.5018,7.5018,7.5018,7.5018,7.5018,7.5018,7.5018,7.5018,7.5018,7.5018,7.5018,7.5018,7.5018,7.5018,7.5018,7.5018,7.5018,7.5018,7.5018,7.5018,7.5207,7.5891,7.6385,7.6765,7.7489,7.8326,7.8894,7.9539,7.9994,8.0373,8.0411,8.0297,8.0373,8.0753,8.0826,8.1166,8.1663,8.1814,8.2307,8.2534,8.2574,8.3193,8.4009,8.4006,8.353,8.3531,8.3652,8.2481,8.1041,7.8977,7.6991,7.5694,7.2852,7.9196,8.0107,8.0107,8.0107,7.9917,7.9006,7.8628,7.8627,7.7822,7.7754,7.933,8.2106,8.3985,8.5887,8.884,9.2702,9.5511,9.6633,9.7818,9.9657,10.0181,10.0215,10.1008,10.148,10.0452,10.1201,10.078,10.0261,9.911,9.9325,9.8543,9.703,9.6639,9.6395,9.6395,9.6395,9.6395,9.6395,9.6395,9.6395,9.6395,9.6395,9.597,9.5656,9.4945,9.393,9.1596,8.8886,8.6798,8.2001,8.064,7.8267,7.6247,7.5404,7.5053,7.5018,7.5018,7.5018,7.5018,7.5018,7.5018,7.5018,7.5018,7.5018,7.5018,7.5018,7.5018,7.5018,7.5018,7.5018,7.5018,7.5018,7.5018,7.5018,7.5018,7.5018,7.5018,7.5018,7.5018,7.5018,7.5018,7.5018,7.5018,7.5625,7.6195,7.6765,7.7336,7.7984,7.8667,7.954,8.0145,8.0752,8.098,8.0825,8.0899,8.1625,8.1927,8.2343,8.2496,8.261,8.295,8.333,8.3409,8.3684,8.4352,8.4623,8.4259,8.4056,8.394,8.2677,8.0611,7.8416,7.5728,7.2792,6.983,7.8702,8.0107,8.0107,8.0107,7.9841,7.8474,7.8171,7.8247,7.6537,7.6463,7.7674,7.8092,7.9027,8.0879,8.4342,8.8344,9.2304,9.2473,9.3188,9.4358,9.4428,9.4007,9.3831,9.4007,9.558,9.7909,9.7464,9.7423,9.6375,9.7923,9.8482,9.7184,9.6496,9.6395,9.6144,9.5782,9.6364,9.6395,9.6395,9.6395,9.6395,9.6238,9.5166,9.2479,9.2047,9.1693,8.9703,8.6034,8.3359,8.2179,7.9544,7.705,7.8302,7.6563,7.5124,7.5018,7.5018,7.5018,7.5018,7.5018,7.5018,7.5018,7.5018,7.5018,7.5018,7.5018,7.5018,7.5018,7.5018,7.5018,7.5018,7.5018,7.5018,7.5018,7.5018,7.5018,7.5018,7.5018,7.5018,7.5018,7.5018,7.5018,7.5018,7.5473,7.5549,7.6081,7.7031,7.7679,7.8173,7.9161,8.0448,8.1131,8.1357,8.1121,8.1729,8.242,8.3068,8.3409,8.3447,8.3483,8.3747,8.4013,8.4242,8.4437,8.4839,8.4329,8.4829,8.4777,8.3429,8.1867,8.0033,7.6597,7.1342,6.7745,6.5791,7.8893,8.0069,8.0107,7.9841,7.9234,7.8057,7.7564,7.7299,7.6197,7.6347,7.7108,7.7146,7.7602,7.884,8.0749,8.3746,8.7022,8.8015,8.9387,9.1238,9.1345,9.1345,9.1594,9.1559,9.2844,9.3107,9.1669,9.0209,9.1201,9.4109,9.4466,9.4392,9.5345,9.4952,9.4089,9.3708,9.2782,9.1191,9.1029,9.1029,9.1094,9.1061,9.0445,8.882,8.8427,8.746,8.5768,8.1497,8.0743,7.9855,7.7089,7.6458,7.6563,7.6004,7.5053,7.5018,7.5018,7.5018,7.5018,7.5018,7.5018,7.5018,7.5018,7.5018,7.5018,7.5018,7.5018,7.5018,7.5018,7.5018,7.5018,7.5018,7.5018,7.5018,7.5018,7.5018,7.5018,7.5018,7.5018,7.5018,7.5018,7.5018,7.5018,7.5018,7.5018,7.5663,7.6689,7.7184,7.7602,7.9009,8.0675,8.1092,8.1162,8.1498,8.2564,8.3406,8.417,8.4323,8.4439,8.4436,8.4585,8.4547,8.4737,8.4927,8.3967,8.322,8.3319,8.2699,8.1895,8.0805,7.6034,7.11,6.6391,6.3101,6.1422,7.9158,8.0107,8.0107,7.9538,7.8666,7.7716,7.6918,7.6235,7.5855,7.6273,7.6994,7.7108,7.7374,7.798,7.7637,7.9544,8.2483,8.3089,8.4788,8.7429,8.7612,8.792,8.7675,8.7417,8.8129,8.7804,8.642,8.5146,8.6548,8.863,9.0473,9.0286,9.173,9.2014,9.0507,8.9963,8.882,8.7405,8.7019,8.692,8.6554,8.5978,8.5009,8.4975,8.5955,8.4404,8.1633,8.0331,7.8684,7.551,7.5088,7.5088,7.5301,7.5301,7.5018,7.5018,7.5018,7.5018,7.5018,7.5018,7.5018,7.5018,7.5018,7.5018,7.5018,7.5018,7.5018,7.5018,7.5018,7.5018,7.5018,7.5018,7.5018,7.5018,7.5018,7.5018,7.5018,7.5018,7.5018,7.5018,7.5018,7.5018,7.5018,7.5018,7.5018,7.5435,7.6613,7.7336,7.7526,7.8704,8.0145,8.0557,8.0969,8.2185,8.3367,8.4286,8.4741,8.4821,8.4857,8.4853,8.4853,8.4929,8.4965,8.496,8.4279,8.2069,8.0632,8.0023,7.8271,7.461,6.9987,6.5257,6.2929,6.1001,5.8843,7.8702,8.0107,8.0107,7.9576,7.8589,7.7034,7.6235,7.5857,7.4681,7.4868,7.5321,7.5433,7.6159,7.6501,7.6501,7.71,7.828,7.8341,7.8844,8.0696,8.037,8.0844,8.1337,8.1061,8.0667,8.0058,8.1418,8.2632,8.3834,8.6197,8.7038,8.7526,8.7649,8.7415,8.6876,8.6488,8.6006,8.5051,8.4781,8.4907,8.4797,8.2558,8.147,8.1882,8.3299,8.2943,8.0509,7.9579,7.8545,7.5407,7.5018,7.5018,7.5018,7.5018,7.5018,7.5018,7.5167,7.5129,7.5091,7.5093,7.5093,7.5018,7.5018,7.5018,7.5018,7.5018,7.5018,7.5018,7.5018,7.5018,7.5018,7.5018,7.5018,7.5018,7.5018,7.5018,7.5018,7.5018,7.5058,7.5058,7.5136,7.5139,7.5098,7.5207,7.5093,7.5283,7.6651,7.7562,7.7524,7.806,7.8936,7.9422,8.1281,8.2732,8.3916,8.4837,8.4861,8.4897,8.4931,8.4929,8.4929,8.4769,8.4606,8.4757,8.2905,8.0116,7.8144,7.486,7.108,6.7925,6.4615,6.2714,6.0785,5.8843,5.8408,7.8399,7.874,7.8703,7.7943,7.6653,7.5402,7.464,7.4261,7.4261,7.464,7.5056,7.5511,7.5817,7.6159,7.5779,7.5777,7.6043,7.5741,7.5779,7.5967,7.5891,7.6235,7.7032,7.6237,7.5817,7.6518,7.8229,7.8444,7.9103,8.0928,8.2969,8.286,8.4875,8.4518,8.3729,8.4018,8.3237,8.2033,8.1385,8.1385,8.1314,7.9626,7.8813,7.9377,7.9743,7.9815,7.7858,7.7575,7.6598,7.551,7.5018,7.5018,7.5018,7.5018,7.5018,7.5131,7.5359,7.5511,7.5283,7.5359,7.5476,7.5093,7.5018,7.5018,7.5018,7.5018,7.5018,7.5018,7.5018,7.5018,7.5018,7.5018,7.5018,7.5018,7.5018,7.5018,7.5129,7.5397,7.5518,7.5192,7.5442,7.5371,7.5373,7.5596,7.5594,7.5529,7.6777,7.8057,7.7981,7.8065,7.8597,7.9577,8.1591,8.2968,8.4194,8.4845,8.4794,8.4783,8.4855,8.4929,8.4929,8.4648,8.4324,8.1837,7.9774,7.7284,7.216,6.7347,6.3217,6.2404,6.1794,6.0352,5.9078,5.8582,5.8234,7.7793,7.726,7.7224,7.6387,7.5018,7.4036,7.3239,7.2666,7.3764,7.4068,7.4562,7.5093,7.5362,7.5552,7.4754,7.46,7.479,7.4524,7.4407,7.4331,7.4255,7.4638,7.4714,7.415,7.3995,7.4714,7.4977,7.4857,7.4895,7.7148,7.8097,7.8668,8.0921,8.2158,8.0615,8.0755,7.9935,7.8146,7.7744,7.8031,7.7993,7.7774,7.7739,7.7701,7.7276,7.6299,7.5509,7.5131,7.5018,7.4904,7.4638,7.4296,7.4334,7.4562,7.479,7.5056,7.5665,7.6007,7.5815,7.6121,7.6159,7.5511,7.5433,7.5281,7.5129,7.5018,7.5018,7.5018,7.5018,7.5018,7.5018,7.5018,7.5018,7.5018,7.5018,7.5018,7.5131,7.5703,7.6258,7.6222,7.6296,7.5869,7.5177,7.5684,7.6057,7.6032,7.7008,7.8326,7.8556,7.8596,7.9087,7.9729,8.1172,8.1779,8.3157,8.4433,8.4421,8.4367,8.4743,8.4929,8.4929,8.4766,8.4348,8.1651,7.7619,7.0967,6.5606,6.1046,6.0339,5.9273,5.8495,5.8539,5.8643,5.8452,5.8147,7.6389,7.6349,7.6349,7.5853,7.4866,7.4036,7.2973,7.24,7.2093,7.2283,7.278,7.2894,7.3577,7.3884,7.3426,7.3163,7.377,7.3198,7.2549,7.2203,7.1941,7.1979,7.2321,7.2438,7.3084,7.3843,7.464,7.479,7.5037,7.5142,7.5568,7.6162,7.6275,7.6504,7.7442,7.7285,7.7276,7.7524,7.7678,7.7716,7.783,7.783,7.7867,7.7866,7.7526,7.6994,7.6273,7.5362,7.5018,7.5053,7.3574,7.3122,7.3046,7.3543,7.4147,7.498,7.5777,7.6501,7.7032,7.707,7.6956,7.6345,7.6301,7.6034,7.5354,7.5091,7.5018,7.5018,7.5018,7.5018,7.5018,7.5018,7.5018,7.5056,7.5131,7.5056,7.5169,7.5739,7.7133,7.9026,7.7349,7.6085,7.5542,7.5689,7.6503,7.7044,7.7912,7.8741,7.8743,7.9086,7.9652,8.0106,8.0449,8.0863,8.2394,8.3898,8.385,8.4062,8.4475,8.4428,8.4428,8.4688,8.434,8.2052,7.7107,7.0544,6.2848,5.9657,5.892,5.8147,5.8147,5.8147,5.8147,5.8147,5.8147,7.4489,7.4071,7.4033,7.3612,7.2814,7.1945,7.1342,7.1076,7.1219,7.1561,7.1865,7.2249,7.267,7.297,7.2628,7.2704,7.2822,7.2207,7.1637,7.1253,7.0806,7.0616,7.0768,7.1447,7.2211,7.3046,7.3808,7.4489,7.4942,7.5018,7.5018,7.5056,7.5473,7.5891,7.6235,7.6691,7.7448,7.802,7.821,7.8513,7.8968,7.9006,7.9006,7.8968,7.8475,7.8133,7.7451,7.5893,7.5018,7.479,7.3919,7.3426,7.3843,7.3808,7.4036,7.498,7.5777,7.6349,7.6804,7.726,7.7336,7.7105,7.7082,7.6885,7.643,7.5535,7.5018,7.5091,7.5018,7.5018,7.5018,7.5018,7.5018,7.5207,7.5929,7.6537,7.6537,7.7183,7.8374,7.9149,7.867,7.7308,7.6091,7.7014,7.772,7.8285,7.8931,7.9044,7.9006,7.9614,8.0069,8.0107,8.0297,8.0943,8.2166,8.278,8.2853,8.3529,8.3823,8.3545,8.3891,8.4545,8.2858,7.9701,7.5937,7.0934,6.3859,5.8625,5.8147,5.8147,5.8147,5.8147,5.8147,5.8147,5.8147,7.2932,7.2245,7.2173,7.1865,7.1257,7.0654,7.0274,7.0089,7.0725,7.0915,7.1067,7.1603,7.1907,7.2169,7.1945,7.1983,7.1979,7.1371,7.0991,7.0844,7.0241,7.0013,7.0165,7.0915,7.1789,7.2552,7.3426,7.4147,7.498,7.5018,7.5018,7.5056,7.5549,7.5931,7.6235,7.6804,7.764,7.8286,7.84,7.8779,7.95,7.9614,7.9803,7.9955,7.9196,7.8627,7.8172,7.6387,7.5283,7.498,7.3995,7.3691,7.4033,7.3884,7.4074,7.498,7.5739,7.6273,7.6653,7.7222,7.7374,7.7257,7.7318,7.7488,7.7294,7.5882,7.5326,7.5431,7.5395,7.5359,7.5362,7.5625,7.5739,7.5853,7.6727,7.7633,7.8156,7.8731,7.93,7.9821,7.9186,7.8402,7.7843,7.8217,7.8666,7.9082,7.9576,7.9917,7.9765,8.0107,8.0107,8.0107,8.0221,8.0905,8.1401,8.1707,8.2203,8.288,8.287,8.2596,8.3399,8.4014,8.1477,7.8607,7.6431,6.9542,6.2957,5.8321,5.8147,5.8147,5.8147,5.8147,5.8147,5.8147,5.8147,7.2131,7.1409,7.1405,7.1333,7.1253,7.1143,7.0654,7.0051,7.0089,7.0165,7.016,7.0317,7.0692,7.1105,7.0692,7.0768,7.111,7.054,7.0203,7.0127,7.0051,7.0013,7.0089,7.0801,7.1637,7.2476,7.3239,7.4109,7.498,7.5018,7.5018,7.5018,7.5169,7.5473,7.6007,7.6197,7.6765,7.7488,7.7602,7.8019,7.8741,7.8817,7.9158,7.9841,7.9082,7.8324,7.7716,7.6577,7.5663,7.4942,7.3653,7.3008,7.2894,7.3353,7.4074,7.498,7.5777,7.6425,7.7222,7.7336,7.7184,7.6653,7.7103,7.7293,7.6786,7.586,7.5489,7.6037,7.6039,7.5969,7.6159,7.6615,7.7183,7.7336,7.7526,7.8345,7.9643,7.9854,7.9936,7.9886,7.9218,7.8667,7.9568,7.9005,7.9272,7.9652,7.9955,8.0107,8.0107,8.0107,8.0107,8.0107,8.0107,8.0525,8.0677,8.0982,8.1248,8.1739,8.1697,8.2074,8.2874,8.3291,8.2029,8.0168,7.7352,6.8598,6.1954,5.9399,5.8147,5.8147,5.8147,5.8147,5.8147,5.8147,5.8147,7.0768,7.0502,7.0502,7.0464,7.0502,7.0502,7.0279,7.0013,7.0013,7.0013,7.0013,7.0013,7.0198,7.0317,7.0127,7.0198,7.0393,7.0127,7.0013,7.0013,7.0013,7.0013,7.0051,7.035,7.1114,7.2362,7.2784,7.3653,7.4977,7.5018,7.5018,7.5018,7.5018,7.5207,7.5435,7.5511,7.5891,7.6613,7.6691,7.7108,7.783,7.8019,7.8171,7.8361,7.8171,7.7867,7.7488,7.6159,7.5359,7.4942,7.4448,7.4106,7.4068,7.3843,7.4109,7.4866,7.5359,7.5817,7.6577,7.6691,7.6729,7.6993,7.6951,7.6832,7.6601,7.6318,7.5763,7.5654,7.5585,7.5701,7.6121,7.6577,7.7222,7.8133,7.821,7.885,7.9758,8.0102,8.0063,8.0024,7.9686,7.9726,7.9953,7.9727,7.9803,7.9955,8.0107,8.0107,8.0107,8.0107,8.0107,8.0107,8.0107,8.0107,8.0107,8.0259,8.0487,8.0639,8.0751,8.1471,8.1339,8.1477,8.165,7.9629,7.4824,6.5989,6.0803,5.8737,5.7913,5.8121,5.8147,5.8051,5.7974,5.8,5.7948,7.0013,7.0013,7.0013,7.0013,7.0013,7.0013,7.0013,7.0013,7.0013,7.0013,7.0013,7.0013,7.0013,7.0013,7.0013,7.0013,7.0013,7.0013,7.0013,7.0013,7.0013,7.0013,7.0013,7.0013,7.0735,7.1983,7.2594,7.3653,7.479,7.5018,7.5018,7.5018,7.5018,7.5018,7.5091,7.5018,7.5245,7.5815,7.5817,7.6235,7.7032,7.7146,7.726,7.7488,7.726,7.6994,7.6729,7.5663,7.5056,7.5018,7.5018,7.5018,7.4904,7.4451,7.4375,7.4942,7.5018,7.5321,7.5777,7.5855,7.6121,7.6501,7.6353,7.6235,7.6413,7.6175,7.5873,7.558,7.5397,7.5587,7.6121,7.6425,7.7108,7.8247,7.8362,7.8551,7.9042,7.9198,7.9539,7.9918,8.0107,8.0107,8.0107,8.0107,8.0031,8.0107,8.0107,8.0107,8.0107,8.0107,8.0107,8.0107,8.0107,8.0107,8.0107,8.0183,8.0297,8.0373,8.0449,8.0828,7.9431,7.8788,7.891,7.6718,7.061,6.4493,5.99,5.7627,5.7437,5.7541,5.7619,5.7679,5.7774,5.7679,5.7558,7.0013,7.0013,7.0013,7.0013,7.0013,7.0013,7.0013,7.0013,7.0013,7.0013,7.0013,7.0013,7.0013,7.0013,7.0013,7.0013,7.0013,7.0013,7.0013,7.0013,7.0013,7.0013,7.0013,7.0013,7.0507,7.1485,7.2894,7.4071,7.498,7.5018,7.5018,7.5018,7.5018,7.5018,7.5018,7.5018,7.5091,7.5167,7.5169,7.5473,7.6083,7.6197,7.6577,7.7184,7.6615,7.5893,7.5207,7.5093,7.5018,7.5018,7.5018,7.5018,7.5018,7.4942,7.5015,7.5018,7.5018,7.5018,7.5093,7.5131,7.5169,7.5324,7.5163,7.5465,7.5899,7.557,7.5423,7.5822,7.5969,7.6121,7.6273,7.6766,7.726,7.7564,7.7564,7.7602,7.7718,7.7654,7.8183,7.9539,7.9917,8.0031,8.0107,8.0107,8.0107,8.0107,8.0107,8.0107,8.0107,8.0107,8.0107,8.0107,8.0107,8.0107,8.0107,8.0107,8.0107,7.9994,7.9804,7.8775,7.7069,7.4805,7.4791,7.26,6.6511,6.5117,6.0567,5.7831,5.7556,5.6884,5.6937,5.7006,5.7161,5.7316,5.7204,7.0013,7.0013,7.0013,7.0013,7.0013,7.0013,7.0013,7.0013,7.0013,7.0013,7.0013,7.0013,7.0013,7.0013,7.0013,7.0013,7.0013,7.0013,7.0013,7.0013,7.0013,7.0013,7.0013,7.0013,7.0464,7.1409,7.24,7.3653,7.4901,7.5018,7.5018,7.5018,7.5018,7.5018,7.5018,7.5018,7.5018,7.5018,7.5018,7.5131,7.5359,7.5433,7.5587,7.5777,7.5552,7.5283,7.5056,7.5018,7.5018,7.5018,7.5018,7.5018,7.5018,7.5018,7.5018,7.5018,7.5018,7.5018,7.5018,7.5018,7.5018,7.5056,7.5068,7.5146,7.5326,7.5181,7.5146,7.5326,7.5397,7.5701,7.6007,7.6005,7.6081,7.6539,7.6653,7.688,7.7413,7.6534,7.6797,7.8101,7.8855,7.9462,7.9917,8.0069,8.0069,8.0107,8.0107,8.0107,8.0107,8.0107,8.0107,8.0107,8.0107,8.0107,8.0107,8.0107,8.0107,7.8819,7.8247,7.615,7.4134,7.1375,6.9355,6.7004,6.5136,6.4301,6.2243,5.9105,5.7531,5.6612,5.6377,5.6327,5.6634,5.683,5.6787,7.0013,7.0013,7.0013,7.0013,7.0013,7.0013,7.0013,7.0013,7.0013,7.0013,7.0013,7.0013,7.0013,7.0013,7.0013,7.0013,7.0013,7.0013,7.0013,7.0013,7.0013,7.0013,7.0013,7.0013,7.0545,7.1675,7.2249,7.335,7.4866,7.5018,7.5018,7.5018,7.5018,7.5018,7.5018,7.5018,7.5018,7.5018,7.5018,7.5018,7.5056,7.5018,7.5018,7.5018,7.5018,7.5018,7.5018,7.5018,7.5018,7.5018,7.5018,7.5018,7.5018,7.5018,7.5018,7.5018,7.5018,7.5018,7.5018,7.5018,7.5018,7.5018,7.5018,7.5056,7.5018,7.5018,7.5018,7.5056,7.5018,7.5207,7.5587,7.5359,7.5245,7.5665,7.5779,7.6007,7.6244,7.5781,7.5565,7.6853,7.783,7.8475,7.9043,7.9687,7.9915,7.9689,7.9879,8.0069,8.0107,8.0107,8.0107,8.0107,8.0107,8.0107,8.0107,8.0107,7.9275,7.7718,7.5773,7.3621,6.9275,6.6109,6.3993,6.1697,6.0358,5.9453,5.9249,5.6506,5.6298,5.5596,5.5588,5.5691,5.6105,5.5869,5.5953,7.0013,7.0013,7.0013,7.0013,7.0013,7.0013,7.0013,7.0013,7.0013,7.0013,7.0013,7.0013,7.0013,7.0013,7.0013,7.0013,7.0013,7.0013,7.0013,7.0013,7.0013,7.0013,7.0013,7.0013,7.0848,7.2325,7.2476,7.3384,7.4942,7.5018,7.5018,7.5018,7.5018,7.5018,7.5018,7.5018,7.5018,7.5018,7.5018,7.5018,7.5018,7.5018,7.5018,7.5018,7.5018,7.5018,7.5018,7.5018,7.5018,7.5018,7.5018,7.5018,7.5018,7.5018,7.5018,7.5018,7.5018,7.5018,7.5018,7.5018,7.5018,7.5018,7.5018,7.5018,7.5018,7.5018,7.5018,7.5018,7.5018,7.5018,7.5093,7.5056,7.5056,7.5093,7.5093,7.5093,7.5131,7.5091,7.5393,7.6091,7.7029,7.7672,7.7637,7.8954,7.9375,7.9194,7.95,8.0031,8.0031,8.0107,8.0107,8.0107,8.0107,8.0107,8.0107,8.0107,7.8326,7.6384,7.4393,7.0993,6.5262,6.0447,5.8484,5.6696,5.645,5.6027,5.5196,5.4853,5.4916,5.4963,5.4984,5.4989,5.5316,5.4999,5.504,7.0013,7.0013,7.0013,7.0013,7.0013,7.0013,7.0013,7.0013,7.0013,7.0013,7.0013,7.0013,7.0013,7.0013,7.0013,7.0013,7.0013,7.0013,7.0013,7.0013,7.0013,7.0013,7.0013,7.0013,7.0882,7.2252,7.2514,7.335,7.4866,7.5018,7.5018,7.5018,7.5018,7.5018,7.5018,7.5018,7.5018,7.5018,7.5018,7.5018,7.5018,7.5018,7.5018,7.5018,7.5018,7.5018,7.5018,7.5018,7.5018,7.5018,7.5018,7.5018,7.5018,7.5018,7.5018,7.5018,7.5018,7.5018,7.5018,7.5018,7.5018,7.5018,7.5018,7.5018,7.5018,7.5018,7.5018,7.5018,7.5018,7.5018,7.5018,7.5018,7.5018,7.5018,7.5018,7.5018,7.5018,7.5061,7.5144,7.5397,7.6595,7.742,7.7131,7.7925,7.8801,7.8663,7.8931,7.9272,7.9917,7.9993,8.0031,8.0107,8.0107,8.0069,8.0107,7.9993,7.988,7.7452,7.1978,6.821,6.6647,5.9681,5.5444,5.5449,5.5132,5.4842,5.4842,5.4842,5.4853,5.4827,5.4823,5.487,5.484,5.4829,5.4829,7.0013,7.0013,7.0013,7.0013,7.0013,7.0013,7.0013,7.0013,7.0013,7.0013,7.0013,7.0013,7.0013,7.0013,7.0013,7.0013,7.0013,7.0013,7.0013,7.0013,7.0013,7.0013,7.0013,7.0013,7.0848,7.24,7.2514,7.3384,7.4752,7.5018,7.5018,7.5018,7.5018,7.5018,7.5018,7.5018,7.5018,7.5018,7.5018,7.5018,7.5018,7.5018,7.5018,7.5018,7.5018,7.5018,7.5018,7.5018,7.5018,7.5018,7.5018,7.5018,7.5018,7.5037,7.4881,7.4486,7.4147,7.4144,7.4486,7.4828,7.5018,7.5018,7.5018,7.5018,7.5018,7.5018,7.5018,7.5018,7.5018,7.5018,7.5018,7.5018,7.5018,7.5018,7.5018,7.5018,7.5018,7.5018,7.5018,7.5091,7.5944,7.6321,7.618,7.6561,7.7098,7.7637,7.8058,7.8362,7.8893,7.9044,7.9046,7.9123,7.9723,7.9871,7.9419,7.9348,7.7356,7.4035,6.8423,6.3159,6.1375,5.6654,5.4477,5.437,5.4578,5.4775,5.4764,5.4842,5.4842,5.4842,5.4842,5.4842,5.4842,5.4842,5.4645,7.0013,7.0013,7.0013,7.0013,7.0013,7.0013,7.0013,7.0013,7.0013,7.0013,6.9976,6.99,6.99,6.9976,6.99,6.99,7.0013,7.0013,7.0013,7.0013,7.0013,7.0013,7.0013,7.0089,7.0924,7.2362,7.2628,7.3536,7.5015,7.5018,7.5018,7.5018,7.5018,7.5018,7.5018,7.5018,7.5018,7.5018,7.5018,7.5018,7.5018,7.5018,7.5018,7.5018,7.5018,7.5018,7.5018,7.4977,7.4904,7.4904,7.4754,7.4716,7.4784,7.4818,7.4505,7.365,7.2898,7.2818,7.3543,7.4372,7.479,7.4939,7.4757,7.4795,7.5018,7.5045,7.5042,7.4866,7.4901,7.4904,7.5053,7.5018,7.5018,7.5018,7.5018,7.5018,7.5018,7.5018,7.5018,7.5018,7.5129,7.5053,7.5167,7.5278,7.5435,7.6195,7.6918,7.7526,7.7754,7.7607,7.7314,7.7578,7.8505,7.8904,7.8428,7.8178,7.5112,6.7547,6.2194,5.9278,5.6875,5.5032,5.3718,5.377,5.4122,5.4437,5.4489,5.4808,5.473,5.4507,5.4477,5.4567,5.4578,5.4552,5.437,7.0013,7.0013,7.0013,7.0013,7.0013,7.0013,7.0013,7.0013,6.9976,7.0013,6.99,6.9325,6.9406,6.99,6.9363,6.9401,6.9938,7.0013,7.0013,7.0013,7.0013,7.0013,7.0051,7.0725,7.1527,7.2511,7.3125,7.3922,7.4904,7.5018,7.5018,7.5018,7.5018,7.5018,7.5018,7.5018,7.5018,7.5018,7.5018,7.5018,7.5018,7.5018,7.5018,7.5018,7.5018,7.5018,7.498,7.4337,7.396,7.3922,7.3034,7.2694,7.308,7.3456,7.3414,7.2849,7.259,7.259,7.278,7.297,7.3312,7.3884,7.3427,7.3618,7.4828,7.5056,7.4729,7.4132,7.396,7.4261,7.4828,7.498,7.5018,7.5018,7.5018,7.498,7.5053,7.5018,7.5018,7.5018,7.5018,7.5018,7.5018,7.5018,7.5093,7.5397,7.5969,7.6804,7.7264,7.6346,7.5679,7.5676,7.5902,7.624,7.6987,7.6984,7.3746,6.7029,6.1901,5.8744,5.7348,5.4827,5.3505,5.3213,5.3356,5.3446,5.354,5.4099,5.4272,5.3659,5.3498,5.3406,5.3232,5.3571,5.377,7.0355,7.0051,7.0426,7.0388,7.0013,7.0013,7.0013,6.9938,6.9141,6.8832,6.8761,6.8376,6.8382,6.8799,6.8794,6.9059,6.9477,6.9824,7.0013,7.0013,7.0013,7.0013,7.0089,7.0915,7.1713,7.2549,7.3312,7.4147,7.4942,7.5018,7.5018,7.5018,7.5018,7.5018,7.5018,7.5018,7.5018,7.498,7.3916,7.3118,7.2776,7.2704,7.2514,7.2207,7.3346,7.3726,7.3381,7.2856,7.2438,7.2025,7.0873,7.0579,7.1304,7.1169,7.0815,7.0232,6.989,6.9814,7.016,7.0578,7.1337,7.2514,7.2546,7.2776,7.3346,7.3662,7.3654,7.3191,7.3125,7.335,7.384,7.3878,7.403,7.4375,7.4413,7.46,7.4942,7.5018,7.5018,7.5018,7.5018,7.5018,7.5018,7.5018,7.5018,7.5091,7.5359,7.5815,7.6235,7.5583,7.5067,7.5019,7.5005,7.3994,7.081,6.9872,6.7188,6.2767,5.8337,5.6007,5.5427,5.4354,5.276,5.2615,5.2401,5.2504,5.3045,5.3203,5.3124,5.2635,5.257,5.253,5.2741,5.3067,5.3199,7.0459,6.971,7.0611,7.0497,6.9601,6.9634,6.9596,6.9482,6.811,6.7465,6.7427,6.7313,6.7351,6.7503,6.818,6.849,6.8642,6.9325,6.9634,6.9634,6.9748,6.9824,6.9862,7.0877,7.1675,7.2362,7.3125,7.3995,7.4752,7.4828,7.4939,7.5018,7.5018,7.5018,7.5018,7.5018,7.4942,7.479,7.2773,7.1371,7.0697,7.073,7.016,6.9173,7.1299,7.1983,7.0839,7.0915,7.0346,6.8989,6.796,6.7745,6.8463,6.7427,6.684,6.6699,6.5933,6.5788,6.6737,6.7497,6.8674,7.027,7.1064,7.0899,6.9851,7.1172,7.2123,7.2017,7.1907,7.2097,7.2476,7.2438,7.2704,7.3391,7.3429,7.3691,7.4486,7.4605,7.4646,7.4969,7.5048,7.5018,7.5018,7.5018,7.5018,7.5018,7.5131,7.5093,7.5169,7.5018,7.5056,7.5032,7.5031,7.1483,6.5107,6.039,5.8329,5.648,5.3731,5.196,5.1998,5.1952,5.2031,5.1979,5.1729,5.1828,5.2523,5.1996,5.1854,5.213,5.1842,5.171,5.2458,5.2707,5.2603,6.8718,6.7996,6.887,6.8718,6.7921,6.7883,6.7883,6.785,6.7579,0.0,0.0,6.6807,6.6851,6.7389,6.6927,6.7079,6.7693,6.7845,6.7883,6.7958,6.868,6.9022,6.913,7.0611,7.1405,7.1595,7.2359,7.316,7.3884,7.3884,7.4299,7.498,7.5018,7.5018,7.5018,7.5018,7.4676,7.3957,7.3501,7.3539,7.4106,7.4144,7.2776,6.9824,7.1565,7.111,6.8262,6.8832,6.7611,6.4116,6.2988,6.2276,6.1808,6.0327,6.066,6.312,6.1998,6.1837,6.3348,6.3584,6.4382,6.5984,6.6179,6.4949,6.1793,6.7059,7.0122,6.956,6.9472,7.0274,7.2287,7.1941,7.1865,7.2628,7.2169,7.2055,7.2784,7.2933,7.3456,7.4748,7.5028,7.5053,7.5015,7.5053,7.5018,7.5018,7.5018,7.5018,7.5018,7.484,7.4601,7.4776,7.3444,7.0799,6.2192,5.6149,5.2901,5.2722,5.1944,5.1317,5.1317,5.1369,5.1447,5.1499,5.1383,5.1409,5.1564,5.15,5.1383,5.1499,5.1383,5.1422,5.1602,5.1641,5.1641,6.8642,6.7649,6.887,6.8642,0.0,6.7427,6.6547,6.499,6.499,6.499,6.4952,6.4603,6.4641,6.5021,6.499,6.5218,6.5605,6.6471,6.6851,6.6927,6.8186,6.8794,6.8832,7.0535,7.1367,7.1405,7.2135,7.2704,7.3084,7.3084,7.3156,7.3156,7.3536,7.3118,7.1979,7.3084,7.3501,7.3087,7.2704,7.2476,7.2438,7.2059,7.0844,6.8837,7.0317,0.0,0.0,0.0,0.0,0.0,0.0,0.0,0.0,5.837,5.647,5.6812,5.4063,5.2558,5.3038,5.3848,5.595,5.955,5.8551,5.3389,4.3066,5.7823,6.593,6.2345,6.3264,6.5331,6.8258,6.8338,6.8414,6.9244,6.9358,6.9107,6.8797,6.9408,7.1297,7.4287,7.5056,7.4837,7.441,7.4714,7.5053,7.5018,7.5018,7.5018,7.484,7.2804,7.2275,7.453,6.9148,6.1264,5.6073,5.2687,5.1368,5.1317,5.1317,5.1317,5.1317,5.1317,5.1317,5.1317,5.1317,5.1317,5.1317,5.1317,5.1317,5.1317,5.1317,5.1317,5.1317,5.1317,5.1317,6.7921,6.6668,6.8154,6.7926,6.6547,6.6516,6.5059,6.2588,6.2588,6.2588,6.2588,6.2398,6.2246,6.217,6.2939,6.3289,6.3395,6.4907,6.5591,6.5698,6.7275,6.804,6.8186,6.9814,7.0721,7.0911,7.1523,7.1983,7.2321,7.2287,7.2055,7.1561,7.2173,7.1489,6.9705,0.0,0.0,0.0,7.1409,7.1143,7.0659,6.9933,6.8832,6.7541,6.9097,0.0,6.8148,6.8224,6.7345,6.5218,6.48,0.0,6.2112,0.0,0.0,0.0,0.0,0.0,0.0,0.0,0.0,0.0,4.873,4.0364,2.628,4.6636,5.923,5.5248,5.7037,5.9546,6.1936,6.2636,6.3251,6.3722,6.4234,6.4028,6.2635,6.4025,6.7773,7.3657,7.4542,7.4233,7.3644,7.4223,7.4752,7.4752,7.4904,7.4373,7.273,7.037,6.9177,6.9343,6.1375,5.3381,5.1498,5.1425,5.1317,5.1317,5.1317,5.1317,5.1317,5.1317,5.1317,5.1317,5.1317,5.1317,5.1317,5.1317,5.1317,5.1317,5.1317,5.1303,5.1097,5.1135,5.1199,6.404,6.331,6.4192,6.404,6.3234,6.3196,6.2939,6.2588,6.2588,6.2588,6.2521,6.1732,6.102,6.047,6.1172,6.1522,6.1656,6.2597,6.3082,6.3158,6.4693,6.5422,6.5498,6.7161,6.8338,6.913,6.9179,7.0009,7.1481,7.1519,7.1789,7.2325,7.2438,7.2325,7.1983,7.0848,6.9558,6.8148,7.0232,7.1907,7.3198,7.2404,7.0578,6.7731,6.9065,6.8604,6.5612,6.6174,6.4838,6.1078,5.9444,5.7887,5.6151,5.2609,4.9157,0.0,4.3161,0.0,0.0,0.0,0.0,0.0,0.0,0.0,0.0,3.5604,4.837,5.247,5.4197,5.4279,5.2347,5.4586,5.5722,5.4732,5.4489,5.4072,5.3309,5.5453,6.1191,7.1648,7.2841,7.2811,7.2415,7.3388,7.3811,7.343,7.3631,7.1401,6.6149,6.8931,6.7831,5.5559,5.6372,5.544,5.2241,5.1302,5.1239,5.1265,5.1213,5.1317,5.1239,5.1239,5.1265,5.1265,5.1213,5.1265,5.1329,5.1329,5.1303,5.1277,5.1251,5.1057,5.0516,5.0526,5.0757,6.3281,6.2664,6.3433,6.2217,5.9776,5.9748,5.9776,5.9776,5.9748,5.9814,5.9776,5.9368,5.9016,5.8685,5.9026,5.9178,5.9254,6.0052,6.0698,6.1296,6.2871,6.4124,6.4966,6.6243,6.7269,6.8034,6.8072,6.8484,6.9135,6.9173,6.913,6.9054,7.0004,6.8832,6.5826,6.7617,6.8908,6.9586,7.0797,7.1903,7.2935,7.2249,7.1143,6.97,6.9862,6.9065,6.7161,6.7497,6.6136,6.2947,6.1647,5.9786,5.7062,4.9963,4.4933,0.0,0.0,0.0,0.0,0.0,0.0,0.0,0.0,0.0,0.0,0.0,3.8113,3.8572,4.4188,4.7199,4.5839,4.7792,4.8732,4.7931,4.7227,4.6057,4.399,4.673,5.4212,6.7984,6.7917,6.6195,6.4995,6.7361,6.871,6.7071,6.5044,6.2731,6.0504,5.9898,5.8082,5.0854,5.1952,5.3117,5.1743,5.0759,5.033,5.0356,5.0356,5.0356,5.0356,5.0356,5.0356,5.0356,5.0356,5.0408,5.0653,5.1018,5.1155,5.0817,5.0663,5.0492,4.9943,4.9891,5.0018,6.1913,6.1239,5.9367,5.747,5.5706,5.5679,5.6399,5.7534,5.7534,5.7057,5.6272,5.6218,5.5273,5.3697,5.3162,5.3658,5.5037,5.5937,5.7428,5.952,6.0964,6.2322,6.3449,6.4382,6.5218,6.5908,6.5794,6.5939,6.625,6.6288,6.5484,6.4002,6.5149,6.3412,5.8948,6.3299,6.7269,7.0384,7.0991,7.1523,7.1835,7.1333,7.0915,7.0725,7.0047,6.9325,6.849,6.7921,6.6706,6.4739,6.2348,5.9644,5.6444,4.7046,0.0,0.0,0.0,0.0,0.0,0.0,0.0,0.0,0.0,2.7479,2.42,0.0,2.9574,0.0,3.5965,4.133,4.0261,4.2016,0.0,0.0,3.9777,3.7567,3.4088,3.7771,4.6802,6.2791,6.1165,5.843,5.7695,6.119,6.2266,5.8245,5.5681,5.4405,5.4948,5.2079,4.9679,4.8094,4.8553,4.9571,5.0561,5.0024,4.9395,4.9432,4.9395,4.938,4.9424,4.9365,4.9395,4.9358,4.9287,4.9368,4.9788,5.0683,5.0891,4.9889,4.9619,4.9514,4.9235,4.915,4.9228,5.799,5.7138,4.7718,4.6324,5.0325,5.035,5.307,5.7496,5.7469,5.5717,5.2748,5.2469,4.8812,4.2791,4.0628,0.0,4.7801,4.9,5.2533,5.7762,5.8609,5.9102,5.9226,6.0166,6.0973,6.1712,6.1011,6.1428,6.293,6.3006,6.0897,5.7073,5.7111,5.6258,5.468,5.8526,6.2985,6.7725,7.0151,7.0991,7.0203,7.0127,6.971,6.9054,6.8946,6.849,6.7541,6.5377,6.4048,6.363,5.7176,5.2241,4.9592,0.0,0.0,0.0,0.0,0.0,0.0,0.0,0.0,0.0,0.0,0.0,0.0,0.0,0.0,2.5669,3.4474,0.0,3.5157,3.7625,0.0,0.0,0.0,2.7372,2.2474,2.8394,3.8898,5.4725,0.0,0.0,5.4442,5.6781,5.5396,4.7919,5.043,5.1597,4.7747,5.0999,5.2291,4.7012,4.7253,4.8359,4.9373,4.8981,4.8522,4.8735,4.8933,4.8819,4.8912,4.8895,4.8808,4.8782,4.8361,4.817,4.8951,5.0076,5.0631,4.8319,4.7964,4.7946,4.7876,4.7931,4.8216,4.9549,4.4143,4.0111,3.9764,4.1937,4.1583,4.3811,4.7655,4.7269,4.6321,4.502,4.4898,4.2048,3.7224,3.6629,0.0,0.0,0.0,4.6114,5.1582,5.2812,5.5264,5.8581,5.9102,5.9682,6.0479,6.0213,6.0432,6.1078,6.1571,5.4373,4.0353,0.0,4.4882,4.4009,5.179,5.8432,6.3608,6.7763,6.9857,7.0013,7.0013,6.9629,6.8864,6.8262,6.7155,6.5301,6.4276,6.1656,5.7111,5.2658,4.7951,0.0,0.0,0.0,0.0,0.0,0.0,0.0,0.0,0.0,0.0,0.0,1.8319,1.6925,0.0,0.0,0.0,2.6392,2.7253,2.6537,2.9811,0.0,0.0,0.0,0.0,0.0,0.0,0.0,4.3438,4.4315,4.4238,4.4883,4.6526,4.625,4.2659,4.4845,4.5888,4.3441,0.0,4.7043,4.4534,4.5116,4.6242,4.7346,4.5924,4.5081,4.6131,4.653,4.6861,4.7417,4.7393,4.7284,4.7239,4.7024,4.6985,4.7272,4.7216,4.6725,4.5425,4.5145,4.5298,4.5758,4.6192,4.6695,3.9039,0.0,0.0,0.0,0.0,3.3491,3.5573,3.9228,3.8563,3.778,3.6831,3.6852,0.0,0.0,0.0,0.0,0.0,0.0,3.9963,4.5876,4.8662,5.2385,5.691,5.7176,5.7659,5.8201,5.697,5.6096,5.5518,5.4298,4.4942,2.8441,0.0,0.0,0.0,0.0,5.3455,5.9126,6.5539,6.9211,6.9976,6.9748,6.9444,6.9135,6.7579,6.5681,6.3509,6.1542,5.7708,5.1671,4.6736,0.0,0.0,0.0,0.0,0.0,0.0,0.0,0.0,0.0,0.0,0.0,0.0,0.0,0.0,0.0,0.0,0.0,0.0,0.0,2.2394,2.5633,2.6294,0.0,0.0,0.0,0.0,0.0,0.0,0.0,0.0,0.0,3.545,3.7723,3.953,0.0,0.0,4.2565,4.1448,4.2525,4.3182,4.2375,4.3562,0.0,4.5212,4.3449,4.2088,4.2227,4.272,4.3805,4.5701,4.519,4.4345,4.3584,4.3954,4.4249,4.4178,4.3328,4.2519,4.2031,4.1261,4.1085,4.2325,4.3396,4.421,0.0,0.0,0.0,0.0,2.6807,0.0,0.0,0.0,3.3813,3.1679,0.0,2.8779,0.0,0.0,0.0,0.0,2.3773,2.8124,0.0,0.0,4.6985,5.08,5.2547,5.3519,5.3962,5.3771,4.9634,4.6651,4.4497,3.8621,3.2247,0.0,0.0,0.0,0.0,0.0,4.7963,5.4126,6.3771,6.9173,6.99,6.9249,6.9211,6.9786,6.675,6.4238,6.2436,5.6303,5.1609,4.8893,3.8783,0.0,0.0,0.0,0.0,0.0,0.0,0.0,0.0,0.0,0.0,0.0,0.0,0.0,0.0,0.0,0.0,0.0,0.0,0.0,0.0,2.724,0.0,0.0,0.0,0.0,0.0,0.0,0.0,0.0,0.0,3.0622,2.7198,3.2211,3.6754,3.844,0.0,0.0,0.0,0.0,4.2816,4.1251,4.2994,4.4051,4.3007,4.2414,4.086,3.7424,0.0,0.0,4.3763,4.225,3.9764,3.7468,3.8502,3.9509,3.9464,3.8528,3.8036,3.8418,3.6265,3.539,3.7377,3.877,4.0064,0.0,0.0,0.0,0.0,0.0,0.0,0.0,0.0,0.0,2.2637,2.1534,2.1185,0.0,0.0,0.0,0.0,0.0,0.0,0.0,0.0,3.7644,4.1854,4.3472,4.715,4.7316,4.4311,4.1853,3.7049,0.0,0.0,0.0,0.0,0.0,0.0,0.0,0.0,4.382,4.9968,6.1264,6.7839,6.9135,6.8946,6.8642,6.83,6.6143,6.1627,5.4569,5.0532,4.647,0.0,0.0,0.0,0.0,0.0,0.0,0.0,0.0,0.0,0.0,0.0,0.0,0.0,0.0,0.0,0.0,0.0,0.0,0.0,0.0,0.0,0.0,0.0,2.2064,0.0,0.0,0.0,0.0,0.0,0.0,0.0,0.0,0.0,2.2166,2.8729,3.4203,3.5598,3.8644,4.0898,4.1323,0.0,0.0,0.0,0.0,0.0,0.0,0.0,3.5603,3.6106,3.4482,3.3926,3.6293,3.7098,3.6777,3.4709,0.0,0.0,3.3283,3.2648,3.1925,3.047,2.8939,2.8602,3.1023,3.0507,3.0718,0.0,0.0,0.0,0.0,0.0,0.0,0.0,0.0,0.0,1.5317,1.5288,0.0,0.0,0.0,0.0,0.0,0.0,0.0,0.0,0.0,0.0,0.0,3.6086,3.9816,0.0,0.0,0.0,0.0,0.0,0.0,0.0,0.0,0.0,0.0,0.0,0.0,4.1031,4.6354,5.9393,6.7079,6.875,6.849,6.8072,6.7465,6.5536,6.0223,5.1067,0.0,0.0,0.0,2.7208,0.0,0.0,0.0,0.0,0.0,0.0,0.0,0.0,0.0,0.0,0.0,0.0,0.0,0.0,0.0,0.0,0.0,0.0,0.0,0.0,0.0,1.7828,0.0,0.0,0.0,0.0,0.0,0.0,0.0,0.0,0.0,0.0,2.5537,3.0575,3.3278,3.6382,3.8974,4.0539,4.0891,4.05,0.0,0.0,0.0,0.0,0.0,0.0,0.0,0.0,0.0,0.0,0.0,0.0,0.0,3.1094,3.0252,2.8553,2.6884,2.5444,2.4311,0.0,0.0,0.0,0.0,0.0,0.0,0.0,0.0,0.0,0.0,0.0,0.0,0.0,0.0,0.0,1.0248,0.0,0.0,0.8583,0.0,0.0,0.0,0.0,0.0,0.0,0.0,0.0,0.0,0.0,0.0,0.0,0.0,0.0,0.0,0.0,0.0,0.0,0.0,0.0,0.0,0.0,3.953,4.2894,5.8113,6.6914,6.8642,6.7921,6.7465,6.7351,6.4997,6.0138,5.2558,0.0,0.0,0.0,0.0,0.0,0.0,0.0,0.0,0.0,0.0,0.0,0.0,0.0,0.0,0.0,0.0,0.0,0.0,0.0,0.0,0.0,0.0,0.0,0.0,0.0,0.0,1.5604,1.7969,2.1217,0.0,0.0,0.0,0.0,0.0,0.0,0.0,0.0,0.0,3.1558,3.4852,3.7496,3.9816,4.0649,4.0944,4.0853,4.0939,3.9839,3.6573,3.5898,3.4743,0.0,0.0,0.0,0.0,0.0,0.0,0.0,0.0,0.0,0.0,0.0,0.0,0.0,0.0,0.0,0.0,0.0,0.0,0.0,0.0,0.0,0.0,0.0,0.0,0.0,0.0,0.0,0.0,0.8738,0.8273,0.0,0.0,0.0,0.0,0.0,0.0,0.0,0.0,0.0,0.0,0.0,0.0,0.0,0.0,0.0,0.0,0.0,0.0,0.0,0.0,0.0,0.0,0.0,0.0,3.6549,4.1923,5.5197,6.3675,6.7003,6.7313,6.7161,6.6585,6.363,5.8439,5.0916,0.0,0.0,0.0,0.0,0.0,0.0,0.0,0.0,0.0,0.0,0.0,0.0,0.0,0.0,0.0,0.0,0.0,0.0,0.0,0.0,0.0,0.0,0.0,0.0,0.0,0.0,0.0,1.8903,2.1851,2.7456,0.0,0.0,0.0,0.0,0.0,0.0,0.0,0.0,0.0,0.0,3.5813,3.8129,3.9928,4.0489,3.8924,3.9994,4.0351,3.8551,3.5626,3.332,3.2719,0.0,0.0,0.0,0.0,0.0,0.0,0.0,0.0,0.0,0.0,0.0,0.0,0.0,0.0,0.0,0.0,0.0,0.0,0.0,0.0,0.0,0.0,0.0,0.0,0.0,0.0,0.0,0.0,0.0,0.0,0.0,0.0,0.0,0.0,0.0,0.0,0.0,0.0,0.0,0.0,0.0,0.0,0.0,0.0,0.0,0.0,0.0,0.0,0.0,0.0,0.0,0.0,0.0,3.523,4.1592,5.3622,6.1754,6.5594,6.6585,6.6471,6.5332,6.2652,5.6781,0.0,0.0,0.0,0.0,0.0,0.0,0.0,0.0,0.0,0.0,0.0,0.0,0.0,0.0,0.0,0.0,0.0,0.0,0.0,0.0,0.0,0.0,0.0,0.0,0.0,0.0,0.0,0.0,1.6087,1.8994,2.3051,0.0,0.0,0.0,0.0,0.0,0.0,0.0,0.0,0.0,0.0,3.3421,3.5737,3.815,0.0,0.0,3.7693,3.9768,3.9915,3.7207,3.4323,3.2158,3.0483,0.0,0.0,0.0,0.0,0.0,0.0,0.0,0.0,0.0,0.0,0.0,0.0,0.0,0.0,0.0,0.0,0.0,0.0,0.0,0.0,0.0,0.0,0.0,0.0,0.0,0.0,0.0,0.0,0.0,0.0,0.0,0.0,0.0,0.0,0.0,0.0,0.0,0.0,0.0,0.0,0.0,0.0,0.0,0.0,0.0,0.0,0.0,0.0,0.0,0.0,0.0,0.0,3.4793,4.1255,5.2693,6.0553,6.4385,6.5625,6.5408,6.3782,6.2044,5.529,0.0,0.0,0.0,0.0,0.0,0.0,0.0,0.0,0.0,0.0,0.0,0.0,0.0,0.0,0.0,0.0,0.0,0.0,0.0,0.0,0.0,0.0,0.0,0.0,0.0,0.0,0.0,0.0,0.0,0.0,0.0,0.0,0.0,0.0,0.0,0.0,0.0,0.0,0.0,0.0,0.0,3.0653,3.3082,3.5767,3.5791,0.0,3.4498,3.8265,4.0628,3.9924,3.6934,3.0235,0.0,0.0,0.0,0.0,0.0,0.0,0.0,0.0,0.0,0.0,0.0,0.0,0.0,0.0,0.0,0.0,0.0,0.0,0.0,0.0,0.0,0.0,0.0,0.0,0.0,0.0,0.0,0.0,0.0,0.0,0.0,0.0,0.0,0.0,0.0,0.0,0.0,0.0,0.0,0.0,0.0,0.0,0.0,0.0,0.0,0.0,0.0,0.0,0.0,0.0,0.0,0.0,0.0,0.0,3.6457,4.8344,5.6518,6.0451,6.3641,6.4777,6.3744,6.1542,0.0,0.0,0.0,0.0,0.0,0.0,0.0,0.0,0.0,0.0,0.0,0.0,0.0,0.0,0.0,0.0,0.0,0.0,0.0,0.0,0.0,0.0,0.0,0.0,0.0,0.0,0.0,0.6791,0.0,0.0,0.0,0.0,0.0,0.0,0.0,0.0,0.0,0.0,0.0,0.0,0.0,0.0,2.8889,3.2882,3.4368,3.3479,0.0,0.0,3.6463,4.039,3.94,3.6044,0.0,0.0,0.0,0.0,0.0,0.0,0.0,0.0,0.0,0.0,0.0,0.0,0.0,0.0,0.0,0.0,0.0,0.0,0.0,0.0,0.0,0.0,0.0,0.0,0.0,0.0,0.0,0.0,0.0,0.0,0.0,0.0,0.0,0.0,0.0,0.0,0.0,0.0,0.0,0.0,0.0,0.0,0.0,0.0,0.0,0.0,0.0,0.0,0.0,0.0,0.0,0.0,0.0,0.0,2.8713,3.6665,4.4304,5.204,5.972,6.1167,6.2087,6.2652,6.0593,5.4165,0.0,0.0,0.0,0.0,0.0,0.0,0.0,0.0,0.0,0.0,0.0,0.0,0.0,0.0,0.0,0.0,0.0,0.0,0.0,0.0,0.0,0.0,0.0,0.0,0.0,0.0,0.0,0.0,0.0,0.0,0.0,0.0,0.0,0.0,0.0,0.0,0.0,0.0,0.0,0.0,0.0,0.0,2.9951,3.1731,0.0,0.0,0.0,3.1659,3.7225,0.0,0.0,0.0,0.0,0.0,0.0,0.0,0.0,0.0,0.0,0.0,0.0,0.0,0.0,0.0,0.0,0.0,0.0,0.0,0.0,0.0,0.0,0.0,0.0,0.0,0.0,0.0,0.0,0.0,0.0,0.0,0.0,0.0,0.0,0.0,0.0,0.0,0.0,0.0,0.0,0.0,0.0,0.0,0.0,0.0,0.0,0.0,0.0,0.0,0.0,0.0,0.0,0.0,0.0,0.0,0.0,0.0,3.7774,4.0734,4.7794,5.8814,5.8272,5.8576,6.0572,5.9409,5.3633,0.0,0.0,0.0,0.0,0.0,0.0,0.0,0.0,0.0,0.0,0.0,0.0,0.0,0.0,0.0,0.0,0.0,0.0,0.0,0.0,0.0,0.0,0.0,0.0,0.0,0.0,0.0,0.0,0.0,0.0,0.0,0.0,0.0,0.0,0.0,0.0,0.0,0.0,0.0,0.0,0.0,2.4822,2.6408,2.8528,2.7685,0.0,0.0,2.587,3.2395,3.3657,0.0,0.0,0.0,0.0,0.0,0.0,0.0,0.0,0.0,0.0,0.0,0.0,0.0,0.0,0.0,0.0,0.0,0.0,0.0,0.0,0.0,0.0,0.0,0.0,0.0,0.0,0.0,0.0,0.0,0.0,0.0,0.0,0.0,0.0,0.0,0.0,0.0,0.0,0.0,0.0,0.0,0.0,0.0,0.0,0.0,0.0,0.0,0.0,0.0,0.0,0.0,0.0,0.0,0.0,0.0,0.0,3.0527,3.8674,4.5231,4.984,5.4406,5.7033,5.7504,5.8317,5.3633,0.0,0.0,0.0,0.0,0.0,0.0,0.0,0.0,0.0,0.0,0.0,0.0,0.0,0.0,0.0,0.0,0.0,0.0,0.0,0.0,0.0,0.0,0.0,0.0,0.0,0.0,0.0,0.0,0.0,0.0,0.0,0.0,0.0,0.0,0.0,0.0,0.0,0.0,0.0,0.0,0.0,2.4021,2.7337,2.6387,0.0,0.0,0.0,0.0,2.8009,3.0278,0.0,0.0,0.0,0.0,0.0,0.0,0.0,0.0,0.0,0.0,0.0,0.0,0.0,0.0,0.0,0.0,0.0,0.0,0.0,0.0,0.0,0.0,0.0,0.0,0.0,0.0,0.0,0.0,0.0,0.0,0.0,0.0,0.0,0.0,0.0,0.0,0.0,0.0,0.0,0.0,0.0,0.0,0.0,0.0,0.0,0.0,0.0,0.0,0.0,0.0,0.0,0.0,0.0,0.0,0.0,0.0,3.1863,3.6311,4.1773,4.8562,5.1949,5.438,5.5876,5.7357,5.338,0.0,0.0,0.0,0.0,0.0,0.0,0.0,0.0,0.0,0.0,0.0,0.0,0.0,0.0,0.0,0.0,0.0,0.0,0.0,0.0,0.0,0.0,0.0,0.0,0.0,0.0,0.0,0.0,0.0,0.0,0.0,0.0,0.0,0.0,0.0,0.0,0.0,0.0,0.0,0.0,1.9352,2.1098,2.5511,0.0,0.0,0.0,0.0,0.0,0.0,2.7987,2.7437,0.0,0.0,0.0,0.0,0.0,0.0,0.0,0.0,0.0,0.0,0.0,0.0,0.0,0.0,0.0,0.0,0.0,0.0,0.0,0.0,0.0,0.0,0.0,0.0,0.0,0.0,0.0,0.0,0.0,0.0,0.0,0.0,0.0,0.0,0.0,0.0,0.0,0.0,0.0,0.0,0.0,0.0,0.0,0.0,0.0,0.0,0.0,0.0,0.0,0.0,0.0,0.0,0.0,0.0,0.0,3.4113,3.3646,3.8202,4.8255,4.9344,5.1182,5.4145,5.5731,5.2386,4.3674,0.0,0.0,0.0,0.0,0.0,0.0,0.0,0.0,0.0,0.0,0.0,0.0,0.0,0.0,0.0,0.0,0.0,0.0,0.0,0.0,0.0,0.0,0.0,0.0,0.0,0.0,0.0,0.0,0.0,0.0,0.0,0.0,0.0,0.0,0.0,0.0,0.0,0.0,0.0,1.7553,1.8213,0.0,0.0,0.0,0.0,0.0,0.0,0.0,0.0,2.5217,0.0,0.0,0.0,0.0,0.0,0.0,0.0,0.0,0.0,0.0,0.0,0.0,0.0,0.0,0.0,0.0,0.0,0.0,0.0,0.0,0.0,0.0,0.0,0.0,0.0,0.0,0.0,0.0,0.0,0.0,0.0,0.0,0.0,0.0,0.0,0.0,0.0,0.0,0.0,0.0,0.0,0.0,0.0,0.0,0.0,0.0,0.0,0.0,0.0,0.0,0.0,0.0,0.0,0.0,0.0,0.0,3.0295,3.5136,4.023,4.4418,4.7682,5.0013,5.163,4.9049,4.1849,0.0,0.0,0.0,0.0,0.0,0.0,0.0,0.0,0.0,0.0,0.0,0.0,0.0,0.0,0.0,0.0,0.0,0.0,0.0,0.0,0.0,0.0,0.0,0.0,0.0,0.0,0.0,0.0,0.0,0.0,0.0,0.0,0.0,0.0,0.0,0.0,0.0,0.0,1.0668,1.5121,0.0,0.0,0.0,0.0,0.0,0.0,0.0,0.0,2.0007,0.0,0.0,0.0,0.0,0.0,0.0,0.0,0.0,0.0,0.0,0.0,0.0,0.0,0.0,0.0,0.0,0.0,0.0,0.0,0.0,0.0,0.0,0.0,0.0,0.0,0.0,0.0,0.0,0.0,0.0,0.0,0.0,0.0,0.0,0.0,0.0,0.0,0.0,0.0,0.0,0.0,0.0,0.0,0.0,0.0,0.0,0.0,0.0,0.0,0.0,0.0,0.0,0.0,0.0,0.0,0.0,0.0,0.0,3.3632,3.8001,4.2569,4.6277,4.8886,4.6591,4.2624,0.0,0.0,0.0,0.0,0.0,0.0,0.0,0.0,0.0,0.0,0.0,0.0,0.0,0.0,0.0,0.0,0.0,0.0,0.0,0.0,0.0,0.0,0.0,0.0,0.0,0.0,0.0,0.0,0.0,0.0,0.0,0.0,0.0,0.0,0.0,0.0,0.0,0.0,0.0,0.0,0.0,0.0,0.0,0.0,0.0,0.0,0.0,0.0,0.0,0.0,0.0,0.0,0.0,0.0,0.0,0.0,0.0,0.0,0.0,0.0,0.0,0.0,0.0,0.0,0.0,0.0,0.0,0.0,0.0,0.0,0.0,0.0,0.0,0.0,0.0,0.0,0.0,0.0,0.0,0.0,0.0,0.0,0.0,0.0,0.0,0.0,0.0,0.0,0.0,0.0,0.0,0.0,0.0,0.0,0.0,0.0,0.0,0.0,0.0,0.0,0.0,0.0,0.0,0.0,0.0,0.0,0.0,0.0,3.2257,3.6884,4.0876,4.4484,4.7703,4.1607,3.6418,0.0,0.0,0.0,0.0,0.0,0.0,0.0,0.0,0.0,0.0,0.0,0.0,0.0,0.0,0.0,0.0,0.0,0.0,0.0,0.0,0.0,0.0,0.0,0.0,0.0,0.0,0.0,0.0,0.0,0.0,0.0,0.0,0.0,0.0,0.0,0.0,0.0,0.0,0.0,0.0,0.0,0.0,0.0,0.0,0.0,0.0,0.0,0.0,1.2313,0.0,0.0,0.0,0.0,0.0,0.0,0.0,0.0,0.0,0.0,0.0,0.0,0.0,0.0,0.0,0.0,0.0,0.0,0.0,0.0,0.0,0.0,0.0,0.0,0.0,0.0,0.0,0.0,0.0,0.0,0.0,0.0,0.0,0.0,0.0,0.0,0.0,0.0,0.0,0.0,0.0,0.0,0.0,0.0,0.0,0.0,0.0,0.0,0.0,0.0,0.0,0.0,0.0,0.0,0.0,0.0,0.0,0.0,0.0,2.9966,3.4462,3.7497,4.0468,4.3086,3.7124,3.2491,0.0,0.0,0.0,0.0,0.0,0.0,0.0,0.0,0.0,0.0,0.0,0.0,0.0,0.0,0.0,0.0,0.0,0.0,0.0,0.0,0.0,0.0,0.0,0.0,0.0,0.0,0.0,0.0,0.0,0.0,0.0,0.0,0.0,0.0,0.0,0.0,0.0,0.0,0.0,0.0,0.0,0.0,0.0,0.0,0.0,0.0,0.0,0.0,0.0,0.0,0.0,0.0,0.0,0.0,0.0,0.0,0.0,0.0,0.0,0.0,0.0,0.0,0.0,0.0,0.0,0.0,0.0,0.0,0.0,0.0,0.0,0.0,0.0,0.0,0.0,0.0,0.0,0.0,0.0,0.0,0.0,0.0,0.0,0.0,0.0,0.0,0.0,0.0,0.0,0.0,0.0,0.0,0.0,0.0,0.0,0.0,0.0,0.0,0.0,0.0,0.0,0.0,0.0,0.0,0.0,0.0,0.0,0.0,2.6639,3.1185,3.4358,3.5663,3.4905,3.1128,2.7762,0.0,0.0,0.0,0.0,0.0,0.0,0.0,0.0,0.0,0.0,0.0,0.0,0.0,0.0,0.0,0.0,0.0,0.0,0.0,0.0,0.0,0.0,0.0,0.0,0.0,0.0,0.0,0.0,0.0,0.0,0.0,0.0,0.0,0.0,0.0,0.0,0.0,0.0,0.0,0.0,0.0,0.0,0.0,0.0,0.0,0.0,0.0,0.0,0.0,0.0,0.0,0.0,0.0,0.0,0.0,0.0,0.0,0.0,0.0,0.0,0.0,0.0,0.0,0.0,0.0,0.0,0.0,0.0,0.0,0.0,0.0,0.0,0.0,0.0,0.0,0.0,0.0,0.0,0.0,0.0,0.0,0.0,0.0,0.0,0.0,0.0,0.0,0.0,0.0,0.0,0.0,0.0,0.0,0.0,0.0,0.0,0.0,0.0,0.0,0.0,0.0,0.0,0.0,0.0,0.0,0.0,0.0,0.0,0.0,2.7157,2.9884,2.9843,2.6772,2.5397,2.3115,0.0,0.0,0.0,0.0,0.0,0.0,0.0,0.0,0.0,0.0,0.0,0.0,0.0,0.0,0.0,0.0,0.0,0.0,0.0,0.0,0.0,0.0,0.0,0.0,0.0,0.0,0.0,0.0,0.0,0.0,0.0,0.0,0.0,0.0,0.0,0.0,0.0,0.0,0.0,0.0,0.0,0.0,0.0,0.0,0.0,0.0,0.0,0.0,0.0,0.0,0.0,0.0,0.0,0.0,0.0,0.0,0.0,0.0,0.0,0.0,0.0,0.0,0.0,0.0,0.0,0.0,0.0,0.0,0.0,0.0,0.0,0.0,0.0,0.0,0.0,0.0,0.0,0.0,0.0,0.0,0.0,0.0,0.0,0.0,0.0,0.0,0.0,0.0,0.0,0.0,0.0,0.0,0.0,0.0,0.0,0.0,0.0,0.0,0.0,0.0,0.0,0.0,0.0,0.0,0.0,0.0,0.0,0.0,0.0,2.2171,2.3208,2.2644,2.03,2.053,1.8741,0.0,0.0,0.0,0.0,0.0,0.0,0.0,0.0,0.0,0.0,0.0,0.0,0.0,0.0,0.0,0.0,0.0,0.0,0.0,0.0,0.0,0.0,0.0,0.0,0.0,0.0,0.0,0.0,0.0,0.0,0.0,0.0,0.0,0.0,0.0,0.0,0.0,0.0,0.0,0.0,0.0,0.0,0.0,0.0,0.0,0.0,0.0,0.0,0.0,0.0,0.0,0.0,0.0,0.0,0.0,0.0,0.0,0.0,0.0,0.0,0.0,0.0,0.0,0.0,0.0,0.0,0.0,0.0,0.0,0.0,0.0,0.0,0.0,0.0,0.0,0.0,0.0,0.0,0.0,0.0,0.0,0.0,0.0,0.0,0.0,0.0,0.0,0.0,0.0,0.0,0.0,0.0,0.0,0.0,0.0,0.0,0.0,0.0,0.0,0.0,0.0,0.0,0.0,0.0,0.0,0.0,0.0,0.0,0.0,1.2998,1.6757,1.8248,1.6977,1.611,1.5178,1.4248,0.0,0.0,0.0,0.0,0.0,0.0,0.0,0.0,0.0,0.0,0.0,0.0,0.0,0.0,0.0,0.0,0.0,0.0,0.0,0.0,0.0,0.0,0.0,0.0,0.0,0.0,0.0,0.0,0.0,0.0,0.0,0.0,0.0,0.0,0.0,0.0,0.0,0.0,0.0,0.0,0.0,0.0,0.0,0.0,0.0,0.0,0.0,0.0,0.0,0.0,0.0,0.0,0.0,0.0,0.0,0.0,0.0,0.0,0.0,0.0,0.0,0.0,0.0,0.0,0.0,0.0,0.0,0.0,0.0,0.0,0.0,0.0,0.0,0.0,0.0,0.0,0.0,0.0,0.0,0.0,0.0,0.0,0.0,0.0,0.0,0.0,0.0,0.0,0.0,0.0,0.0,0.0,0.0,0.0,0.0,0.0,0.0,0.0,0.0,0.0,0.0,0.0,0.0,0.0,0.0,0.0,0.0,0.0,0.7336,1.2213,1.4316,1.3184,1.2948,1.2609,0.0,0.0,0.0,0.0,0.0,0.0,0.0,0.0,0.0,0.0,0.0,0.0,0.0,0.0,0.0,0.0,0.0,0.0,0.0,0.0,0.0,0.0,0.0,0.0,0.0,0.0,0.0,0.0,0.0,0.0,0.0,0.0,0.0,0.0,0.0,0.0,0.0,0.0,0.0,0.0,0.0,0.0,0.0,0.0,0.0,0.0,0.0,0.0,0.0,0.0,0.0,0.0,0.0,0.0,0.0,0.0,0.0,0.0,0.0,0.0,0.0,0.0,0.0,0.0,0.0,0.0,0.0,0.0,0.0,0.0,0.0,0.0,0.0,0.0,0.0,0.0,0.0,0.0,0.0,0.0,0.0,0.0,0.0,0.0,0.0,0.0,0.0,0.0,0.0,0.0,0.0,0.0,0.0,0.0,0.0,0.0,0.0,0.0,0.0,0.0,0.0,0.0,0.0,0.0,0.0,0.0,0.0,0.0,0.4628,0.6622,0.9966,1.0834,0.8473,1.1282,1.0951,0.0,0.0,0.0,0.0,0.0,0.0,0.0,0.0,0.0,0.0,0.0,0.0,0.0,0.0,0.0,0.0,0.0,0.0,0.0,0.0,0.0,0.0,0.0,0.0,0.0,0.0,0.0,0.0,0.0,0.0,0.0,0.0,0.0,0.0,0.0,0.0,0.0,0.0,0.0,0.0,0.0,0.0,0.0,0.0,0.0,0.0,0.0,0.0,0.0,0.0,0.0,0.0,0.0,0.0,0.0,0.0,0.0,0.0,0.0,0.0,0.0,0.0,0.0,0.0,0.0,0.0,0.0,0.0,0.0,0.0,0.0,0.0,0.0,0.0,0.0,0.0,0.0,0.0,0.0,0.0,0.0,0.0,0.0,0.0,0.0,0.0,0.0,0.0,0.0,0.0,0.0,0.0,0.0,0.0,0.0,0.0,0.0,0.0,0.0,0.0,0.0,0.0,0.0,0.0,0.0,0.0,0.0,0.0,0.0,0.5702,0.0,1.0686,1.1736,1.0997,1.045,0.0,0.0,0.0,0.0,0.0,0.0,0.0,0.0,0.0,0.0,0.0,0.0,0.0,0.0,0.0,0.0,0.0,0.0,0.0,0.0,0.0,0.0,0.0,0.0,0.0,0.0,0.0,0.0,0.0,0.0,0.0,0.0,0.0,0.0,0.0,0.0,0.0,0.0,0.0,0.0,0.0,0.0,0.0,0.0,0.0,0.0,0.0,0.0,0.0,0.0,0.0,0.0,0.0,0.0,0.0,0.0,0.0,0.0,0.0,0.0,0.0,0.0,0.0,0.0,0.0,0.0,0.0,0.0,0.0,0.0,0.0,0.0,0.0,0.0,0.0,0.0,0.0,0.0,0.0,0.0,0.0,0.0,0.0,0.0,0.0,0.0,0.0,0.0,0.0,0.0,0.0,0.0,0.0,0.0,0.0,0.0,0.0,0.0,0.0,0.0,0.0,0.0,0.0,0.0,0.0,0.0,0.0,0.0,0.0,0.6247,0.7706,0.9791,1.2399,1.1321,1.0855,0.0,0.0,0.0,0.0,0.0,0.0,0.0,0.0,0.0,0.0,0.0,0.0,0.0,0.0,0.0,0.0,0.0,0.0,0.0,0.0,0.0,0.0,0.0,0.0,0.0,0.0,0.0,0.0,0.0,0.0,0.0,0.0,0.0,0.0,0.0,0.0,0.0,0.0,0.0,0.0,0.0,0.0,0.0,0.0,0.0,0.0,0.0,0.0,0.0,0.0,0.0,0.0,0.0,0.0,0.0,0.0,0.0,0.0,0.0,0.0,0.0,0.0,0.0,0.0,0.0,0.0,0.0,0.0,0.0,0.0,0.0,0.0,0.0,0.0,0.0,0.0,0.0,0.0,0.0,0.0,0.0,0.0,0.0,0.0,0.0,0.0,0.0,0.0,0.0,0.0,0.0,0.0,0.0,0.0,0.0,0.0,0.0,0.0,0.0,0.0,0.0,0.0,0.0,0.0,0.0,0.0,0.0,0.0,0.0,0.7879,0.7439,0.8238,1.0584,1.1954,1.1936,0.0,0.0,0.0,0.0,0.0,0.0,0.0,0.0,0.0,0.0,0.0,0.0,0.0,0.0,0.0,0.0,0.0,0.0,0.0,0.0,0.0,0.0,0.0,0.0,0.0,0.0,0.0,0.0,0.0,0.0,0.0,0.0,0.0,0.0,0.0,0.0,0.0,0.0,0.0,0.0,0.0,0.0,0.0,0.0,0.0,0.0,0.0,0.0,0.0,0.0,0.0,0.0,0.0,0.0,0.0,0.0,0.0,0.0,0.0,0.0,0.0,0.0,0.0,0.0,0.0,0.0,0.0,0.0,0.0,0.0,0.0,0.0,0.0,0.0,0.0,0.0,0.0,0.0,0.0,0.0,0.0,0.0,0.0,0.0,0.0,0.0,0.0,0.0,0.0,0.0,0.0,0.0,0.0,0.0,0.0,0.0,0.0,0.0,0.0,0.0,0.0,0.0,0.0,0.0,0.0,0.0,0.0,0.0,0.0,0.0,0.7761,0.8867,0.9781,1.0397,1.0777,1.0849,0.0,0.0,0.0,0.0,0.0,0.0,0.0,0.0,0.0,0.0,0.0,0.0,0.0,0.0,0.0,0.0,0.0,0.0,0.0,0.0,0.0,0.0,0.0,0.0,0.0,0.0,0.0,0.0,0.0,0.0,0.0,0.0,0.0,0.0,0.0,0.0,0.0,0.0,0.0,0.0,0.0,0.0,0.0,0.0,0.0,0.0,0.0,0.0,0.0,0.0,0.0,0.0,0.0,0.0,0.0,0.0,0.0,0.0,0.0,0.0,0.0,0.0,0.0,0.0,0.0,0.0,0.0,0.0,0.0,0.0,0.0,0.0,0.0,0.0,0.0,0.0,0.0,0.0,0.0,0.0,0.0,0.0,0.0,0.0,0.0,0.0,0.0,0.0,0.0,0.0,0.0,0.0,0.0,0.0,0.0,0.0,0.0,0.0,0.0,0.0,0.0,0.0,0.0,0.0,0.0,0.0,0.0,0.0,0.0,0.0,0.8562,0.9981,1.015,1.0642,0.0,0.0,0.0,0.0,0.0,0.0,0.0,0.0,0.0,0.0,0.0,0.0,0.0,0.0,0.0,0.0,0.0,0.0,0.0,0.0,0.0,0.0,0.0,0.0,0.0,0.0,0.0,0.0,0.0,0.0,0.0,0.0,0.0,0.0,0.0,0.0,0.0,0.0,0.0,0.0,0.0,0.0,0.0,0.0,0.0,0.0,0.0,0.0,0.0,0.0,0.0,0.0,0.0,0.0,0.0,0.0,0.0,0.0,0.0,0.0,0.0,0.0,0.0,0.0,0.0,0.0,0.0,0.0,0.0,0.0,0.0,0.0,0.0,0.0,0.0,0.0,0.0,0.0,0.0,0.0,0.0,0.0,0.0,0.0,0.0,0.0,0.0,0.0,0.0,0.0,0.0,0.0,0.0,0.0,0.0,0.0,0.0,0.0,0.0,0.0,0.0,0.0,0.0,0.0,0.0,0.0,0.0,0.0,0.0,0.0,0.0,0.7875,1.0343,1.0777,0.0,1.1659,0.0,0.0,0.0,0.0,0.0,0.0,0.0,0.0,0.0,0.0,0.0,0.0,0.0,0.0,0.0,0.0,0.0,0.0,0.0,0.0,0.0,0.0,0.0,0.0,0.0,0.0,0.0,0.0,0.0,0.0,0.0,0.0,0.0,0.0,0.0,0.0,0.0,0.0,0.0,0.0,0.0,0.0,0.0,0.0,0.0,0.0,0.0,0.0,0.0,0.0,0.0,0.0,0.0,0.0,0.0,0.0,0.0,0.0,0.0,0.0,0.0,0.0,0.0,0.0,0.0,0.0,0.0,0.0,0.0,0.0,0.0,0.0,0.0,0.0,0.0,0.0,0.0,0.0,0.0,0.0,0.0,0.0,0.0,0.0,0.0,0.0,0.0,0.0,0.0,0.0,0.0,0.0,0.0,0.0,0.0,0.0,0.0,0.0,0.0,0.0,0.0,0.0,0.0,0.0,0.0,0.0,0.0,0.0,0.0,0.0,0.0,0.0,1.137,1.1717,0.9227,0.0,0.0,0.0,0.0,0.0,0.0,0.0,0.0,0.0,0.0,0.0,0.0,0.0,0.0,0.0,0.0,0.0,0.0,0.0,0.0,0.0,0.0,0.0,0.0,0.0,0.0,0.0,0.0,0.0,0.0,0.0,0.0,0.0,0.0,0.0,0.0,0.0,0.0,0.0,0.0,0.0,0.0,0.0,0.0,0.0,0.0,0.0,0.0,0.0,0.0,0.0,0.0,0.0,0.0,0.0,0.0,0.0,0.0,0.0,0.0,0.0,0.0,0.0,0.0,0.0,0.0,0.0,0.0,0.0,0.0,0.0,0.0,0.0,0.0,0.0,0.0,0.0,0.0,0.0,0.0,0.0,0.0,0.0,0.0,0.0,0.0,0.0,0.0,0.0,0.0,0.0,0.0,0.0,0.0,0.0,0.0,0.0,0.0,0.0,0.0,0.0,0.0,0.0,0.0,0.0,0.0,0.0,0.0,0.0,0.0,0.7685,0.7213,0.9391,0.9843,0.8256,0.0,0.0,0.0,0.0,0.0,0.0,0.0,0.0,0.0,0.0,0.0,0.0,0.0,0.0,0.0,0.0,0.0,0.0,0.0,0.0,0.0,0.0,0.0,0.0,0.0,0.0,0.0,0.0,0.0,0.0,0.0,0.0,0.0,0.0,0.0,0.0,0.0,0.0,0.0,0.0,0.0,0.0,0.0,0.0,0.0,0.0,0.0,0.0,0.0,0.0,0.0,0.0,0.0,0.0,0.0,0.0,0.0,0.0,0.0,0.0,0.0,0.0,0.0,0.0,0.0,0.0,0.0,0.0,0.0,0.0,0.0,0.0,0.0,0.0,0.0,0.0,0.0,0.0,0.0,0.0,0.0,0.0,0.0,0.0,0.0,0.0,0.0,0.0,0.0,0.0,0.0,0.0,0.0,0.0,0.0,0.0,0.0,0.0,0.0,0.0,0.0,0.0,0.0,0.0,0.0,0.0,0.0,0.0,0.0,0.0,0.6402,0.0,0.0,0.0,0.8331,0.0,0.0,0.0,0.0,0.0,0.0,0.0,0.0,0.0,0.0,0.0,0.0,0.0,0.0,0.0,0.0,0.0,0.0,0.0,0.0,0.0,0.0,0.0,0.0,0.0,0.0,0.0,0.0,0.0,0.0,0.0,0.0,0.0,0.0,0.0,0.0,0.0,0.0,0.0,0.0,0.0,0.0,0.0,0.0,0.0,0.0,0.0,0.0,0.0,0.0,0.0,0.0,0.0,0.0,0.0,0.0,0.0,0.0,0.0,0.0,0.0,0.0,0.0,0.0,0.0,0.0,0.0,0.0,0.0,0.0,0.0,0.0,0.0,0.0,0.0,0.0,0.0,0.0,0.0,0.0,0.0,0.0,0.0,0.0,0.0,0.0,0.0,0.0,0.0,0.0,0.0,0.0,0.0,0.0,0.0,0.0,0.0,0.0,0.0,0.0,0.0,0.0,0.0,0.0,0.0,0.0,0.0,0.0,0.0,0.0,0.0,0.0,0.0,0.0,0.0,0.0,0.0,0.0,0.0,0.0,0.0,0.0,0.0,0.0,0.0,0.0,0.0,0.0,0.0,0.0,0.0,0.0,0.0,0.0,0.0,0.0,0.0,0.0,0.0,0.0,0.0,0.0,0.0,0.0,0.0,0.0,0.0,0.0,0.0,0.0,0.0,0.0,0.0,0.0,0.0,0.0,0.0,0.0,0.0,0.0,0.0,0.0,0.0,0.0,0.0,0.0,0.0,0.0,0.0,0.0,0.0,0.0,0.0,0.0,0.0,0.0,0.0,0.0,0.0,0.0,0.0,0.0,0.0,0.0,0.0,0.0,0.0,0.0,0.0,0.0,0.0,0.0,0.0,0.0,0.0,0.0,0.0,0.0,0.0,0.0,0.0,0.0,0.0,0.0,0.0,0.0,0.0,0.0,0.0,0.0,0.0,0.0,0.0,0.0,0.0,0.0,0.0,0.0,0.0,0.0,0.0,0.0,0.0,0.0,0.0,0.0,0.0,0.0,0.0,0.0,0.0,0.0,0.0,0.0,0.0,0.0,0.0,0.0,0.0,0.0,0.0,0.0,0.0,0.0,0.0,0.0,0.0,0.0,0.0,0.0,0.0,0.0,0.0,0.0,0.0,0.0,0.0,0.0,0.0,0.0,0.0,0.0,0.0,0.0,0.0,0.0,0.0,0.0,0.0,0.0,0.0,0.0,0.0,0.0,0.0,0.0,0.0,0.0,0.0,0.0,0.0,0.0,0.0,0.0,0.0,0.0,0.0,0.0,0.0,0.0,0.0,0.0,0.0,0.0,0.0,0.0,0.0,0.0,0.0,0.0,0.0,0.0,0.0,0.0,0.0,0.0,0.0,0.0,0.0,0.0,0.0,0.0,0.0,0.0,0.0,0.0,0.0,0.0,0.0,0.0,0.0,0.0,0.0,0.0,0.0,0.0,0.0,0.0,0.0,0.0,0.0,0.0,0.0,0.0,0.0,0.0,0.0,0.0,0.0,0.0,0.0,0.0,0.0,0.0,0.0,0.0,0.0,0.0,0.0,0.0,0.0,0.0,0.0,0.0,0.0,0.0,0.0,0.0,0.0,0.0,0.0,0.0,0.0,0.0,0.0,0.0,0.0,0.0,0.0,0.0,0.0,0.0,0.0,0.0,0.0,0.0,0.0,0.0,0.0,0.0,0.0,0.0,0.0,0.0,0.0,0.0,0.0,0.0,0.0,0.0,0.0,0.0,0.0,0.0,0.0,0.0,0.0,0.0,0.0,0.0,0.0,0.0,0.0,0.0,0.0,0.0,0.0,0.0,0.0,0.0,0.0,0.0,0.0,0.0,0.0,0.0,0.0,0.0,0.0,0.0,0.0,0.0,0.0,0.0,0.0,0.0,0.0,0.0,0.0,0.0,0.0,0.0,0.0,0.0,0.0,0.0,0.0,0.0,0.0,0.0,0.0,0.0,0.0,0.0,0.0,0.0,0.0,0.0,0.0,0.0,0.0,0.0,0.0,0.0,0.0,0.0,0.0,0.0,0.0,0.0,0.0,0.0,0.0,0.0,0.0,0.0,0.0,0.0,0.0,0.0,0.0,0.0,0.0,0.0,0.0,0.0,0.0,0.0,0.0,0.0,0.0,0.0,0.0,0.0,0.0,0.0,0.0,0.0,0.0,0.0,0.0,0.0,0.0,0.0,0.0,0.0,0.0,0.0,0.0,0.0,0.0,0.0,0.0,0.0,0.0,0.0,0.0,0.0,0.0,0.0,0.0,0.0,0.0,0.0,0.0,0.0,0.0,0.0,0.0,0.0,0.0,0.0,0.0,0.0,0.0,0.0,0.0,0.0,0.0,0.0,0.0,0.0,0.0,0.0,0.0,0.0,0.0,0.0,0.0,0.0,0.0,0.0,0.0,0.0,0.0,0.0,0.0,0.0,0.0,0.0,0.0,0.0,0.0,0.0,0.0,0.0,0.0,0.0,0.0,0.0,0.0,0.0,0.0,0.0,0.0,0.0,0.0,0.0,0.0,0.0,0.0,0.0,0.0,0.0,0.0,0.0,0.0,0.0,0.0,0.0,0.0,0.0,0.0,0.0,0.0,0.0,0.0,0.0,0.0,0.0,0.0,0.0,0.0,0.0,0.0,0.0,0.0,0.0,0.0,0.0,0.0,0.0,0.0,0.0,0.0,0.0,0.0,0.0,0.0,0.0,0.0,0.0,0.0,0.0,0.0,0.0,0.0,0.0,0.0,0.0,0.0,0.0,0.0,0.0,0.0,0.0,0.0,0.0,0.0,0.0,0.0,0.0,0.0,0.0,0.0,0.0,0.0,0.0,0.0,0.0,0.0,0.0,0.0,0.0,0.0,0.0,0.0,0.0,0.0,0.0,0.0,0.0,0.0,0.0,0.0,0.0,0.0,0.0,0.0,0.0,0.0,0.0,0.0,0.0,0.0,0.0,0.0,0.0,0.0,0.0,0.0,0.0,0.0,0.0,0.0,0.0,0.0,0.0,0.0,0.0,0.0,0.0,0.0,0.0,0.0,0.0,0.0,0.0,0.0,0.0,0.0,0.0,0.0,0.0,0.0,0.0,0.0,0.0,0.0,0.0,0.0,0.0,0.0,0.0,0.0,0.0,0.0,0.0,0.0,0.0,0.0,0.0,0.0,0.0,0.0,0.0,0.0,0.0,0.0,0.0,0.0,0.0,0.0,0.0,0.0,0.0,0.0,0.0,0.0,0.0,0.0,0.0,0.0,0.0,0.0,0.0,0.0,0.0,0.0,0.0,0.0,0.0,0.0,0.0,0.0,0.0,0.0,0.0,0.0,0.0,0.0,0.0,0.0,0.0,0.0,0.0,0.0,0.0,0.0,0.0,0.0,0.0,0.0,0.0,0.0,0.0,0.0,0.0,0.0,0.0,0.0,0.0,0.0,0.0,0.0,0.0,0.0,0.0,0.0,0.0,0.0,0.0,0.0,0.0,0.0,0.0,0.0,0.0,0.0,0.0,0.0,0.0,0.0,0.0,0.0,0.0,0.0,0.0,0.0,0.0,0.0,0.0,0.0,0.0,0.0,0.0,0.0,0.0,0.0,0.0,0.0,0.0,0.0,0.0,0.0,0.0,0.0,0.0,0.0,0.0,0.0,0.0,0.0,0.0,0.0,0.0,0.0,0.0,0.0,0.0,0.0,0.0,0.0,0.0,0.0,0.0,0.0,0.0,0.0,0.0,0.0,0.0,0.0,0.0,0.0,0.0,0.0,0.0,0.0,0.0,0.0,0.0,0.0,0.0,0.0,0.0,0.0,0.0,0.0,0.0,0.0,0.0,0.0,0.0,0.0,0.0,0.0,0.0,0.0,0.0,0.0,0.0,0.0,0.0,0.0,0.0,0.0,0.0,0.0,0.0,0.0,0.0,0.0,0.0,0.0,0.0,0.0,0.0,0.0,0.0,0.0,0.0,0.0,0.0,0.0,0.0,0.0,0.0,0.0,0.0,0.0,0.0,0.0,0.0,0.0,0.0,0.0,0.0,0.0,0.0,0.0,0.0,0.0,0.0,0.0,0.0,0.0,0.0,0.0,0.0,0.0,0.0,0.0,0.0,0.0,0.0,0.0,0.0,0.0,0.0,0.0,0.0,0.0,0.0,0.0,0.0,0.0,0.0,0.0,0.0,0.0,0.0,0.0,0.0,0.0,0.0,0.0,0.0,0.0,0.0,0.0,0.0,0.0,0.0,0.0,0.0,0.0,0.0,0.0,0.0,0.0,0.0,0.0,0.0,0.0,0.0,0.0,0.0,0.0,0.0,0.0,0.0,0.0,0.0,0.0,0.0,0.0,0.0,0.0,0.0,0.0,0.0,0.0,0.0,0.0,0.0,0.0,0.0]}]]]